<?xml version="1.0" encoding="UTF-8"?>
<gpx xmlns="http://www.topografix.com/GPX/1/1"
     creator="GpsDumpMac 0.36"
     version="1.1"
     xmlns:xsi="http://www.w3.org/2001/XMLSchema-instance"
     xsi:schemaLocation="http://www.topografix.com/GPX/1/1 http://www.topografix.com/GPX/1/1/gpx.xsd">
  <metadata>
    <link href="http://www.gethome.no/stein.sorensen/">
      <text>GPS dump for www.flightlog.org</text>
    </link>
    <time>2015-09-27T19:07:52Z</time>
    <bounds minlat="41.023000" minlon="-3.774033" maxlat="41.107233" maxlon="-3.707633"/>
  </metadata>
  <trk>
    <name>Track 001</name>
    <trkseg>
      <trkpt lat="41.077367" lon="-3.707650">
        <ele>1843.0</ele>
        <time>2015-09-27T11:23:18Z</time>
      </trkpt>
      <trkpt lat="41.077417" lon="-3.707717">
        <ele>1845.0</ele>
        <time>2015-09-27T11:23:20Z</time>
      </trkpt>
      <trkpt lat="41.077483" lon="-3.707767">
        <ele>1849.0</ele>
        <time>2015-09-27T11:23:22Z</time>
      </trkpt>
      <trkpt lat="41.077517" lon="-3.707783">
        <ele>1854.0</ele>
        <time>2015-09-27T11:23:24Z</time>
      </trkpt>
      <trkpt lat="41.077567" lon="-3.707767">
        <ele>1854.0</ele>
        <time>2015-09-27T11:23:26Z</time>
      </trkpt>
      <trkpt lat="41.077650" lon="-3.707767">
        <ele>1853.0</ele>
        <time>2015-09-27T11:23:28Z</time>
      </trkpt>
      <trkpt lat="41.077733" lon="-3.707750">
        <ele>1854.0</ele>
        <time>2015-09-27T11:23:30Z</time>
      </trkpt>
      <trkpt lat="41.077833" lon="-3.707717">
        <ele>1856.0</ele>
        <time>2015-09-27T11:23:32Z</time>
      </trkpt>
      <trkpt lat="41.077917" lon="-3.707683">
        <ele>1858.0</ele>
        <time>2015-09-27T11:23:34Z</time>
      </trkpt>
      <trkpt lat="41.078017" lon="-3.707650">
        <ele>1860.0</ele>
        <time>2015-09-27T11:23:36Z</time>
      </trkpt>
      <trkpt lat="41.078133" lon="-3.707633">
        <ele>1863.0</ele>
        <time>2015-09-27T11:23:38Z</time>
      </trkpt>
      <trkpt lat="41.078200" lon="-3.707667">
        <ele>1866.0</ele>
        <time>2015-09-27T11:23:40Z</time>
      </trkpt>
      <trkpt lat="41.078250" lon="-3.707700">
        <ele>1867.0</ele>
        <time>2015-09-27T11:23:42Z</time>
      </trkpt>
      <trkpt lat="41.078333" lon="-3.707750">
        <ele>1869.0</ele>
        <time>2015-09-27T11:23:44Z</time>
      </trkpt>
      <trkpt lat="41.078400" lon="-3.707817">
        <ele>1871.0</ele>
        <time>2015-09-27T11:23:46Z</time>
      </trkpt>
      <trkpt lat="41.078467" lon="-3.707883">
        <ele>1874.0</ele>
        <time>2015-09-27T11:23:48Z</time>
      </trkpt>
      <trkpt lat="41.078517" lon="-3.707933">
        <ele>1873.0</ele>
        <time>2015-09-27T11:23:50Z</time>
      </trkpt>
      <trkpt lat="41.078583" lon="-3.707983">
        <ele>1872.0</ele>
        <time>2015-09-27T11:23:52Z</time>
      </trkpt>
      <trkpt lat="41.078633" lon="-3.708033">
        <ele>1872.0</ele>
        <time>2015-09-27T11:23:54Z</time>
      </trkpt>
      <trkpt lat="41.078667" lon="-3.708083">
        <ele>1872.0</ele>
        <time>2015-09-27T11:23:56Z</time>
      </trkpt>
      <trkpt lat="41.078683" lon="-3.708150">
        <ele>1871.0</ele>
        <time>2015-09-27T11:23:58Z</time>
      </trkpt>
      <trkpt lat="41.078667" lon="-3.708233">
        <ele>1870.0</ele>
        <time>2015-09-27T11:24:00Z</time>
      </trkpt>
      <trkpt lat="41.078650" lon="-3.708333">
        <ele>1869.0</ele>
        <time>2015-09-27T11:24:02Z</time>
      </trkpt>
      <trkpt lat="41.078617" lon="-3.708450">
        <ele>1869.0</ele>
        <time>2015-09-27T11:24:04Z</time>
      </trkpt>
      <trkpt lat="41.078583" lon="-3.708583">
        <ele>1868.0</ele>
        <time>2015-09-27T11:24:06Z</time>
      </trkpt>
      <trkpt lat="41.078550" lon="-3.708717">
        <ele>1871.0</ele>
        <time>2015-09-27T11:24:08Z</time>
      </trkpt>
      <trkpt lat="41.078533" lon="-3.708800">
        <ele>1873.0</ele>
        <time>2015-09-27T11:24:10Z</time>
      </trkpt>
      <trkpt lat="41.078483" lon="-3.708933">
        <ele>1873.0</ele>
        <time>2015-09-27T11:24:12Z</time>
      </trkpt>
      <trkpt lat="41.078450" lon="-3.709067">
        <ele>1874.0</ele>
        <time>2015-09-27T11:24:14Z</time>
      </trkpt>
      <trkpt lat="41.078400" lon="-3.709200">
        <ele>1877.0</ele>
        <time>2015-09-27T11:24:16Z</time>
      </trkpt>
      <trkpt lat="41.078350" lon="-3.709367">
        <ele>1881.0</ele>
        <time>2015-09-27T11:24:18Z</time>
      </trkpt>
      <trkpt lat="41.078317" lon="-3.709500">
        <ele>1887.0</ele>
        <time>2015-09-27T11:24:20Z</time>
      </trkpt>
      <trkpt lat="41.078283" lon="-3.709650">
        <ele>1892.0</ele>
        <time>2015-09-27T11:24:22Z</time>
      </trkpt>
      <trkpt lat="41.078200" lon="-3.709800">
        <ele>1898.0</ele>
        <time>2015-09-27T11:24:24Z</time>
      </trkpt>
      <trkpt lat="41.078167" lon="-3.709917">
        <ele>1902.0</ele>
        <time>2015-09-27T11:24:26Z</time>
      </trkpt>
      <trkpt lat="41.078183" lon="-3.710000">
        <ele>1903.0</ele>
        <time>2015-09-27T11:24:28Z</time>
      </trkpt>
      <trkpt lat="41.078267" lon="-3.710033">
        <ele>1904.0</ele>
        <time>2015-09-27T11:24:30Z</time>
      </trkpt>
      <trkpt lat="41.078383" lon="-3.709983">
        <ele>1906.0</ele>
        <time>2015-09-27T11:24:32Z</time>
      </trkpt>
      <trkpt lat="41.078517" lon="-3.709833">
        <ele>1906.0</ele>
        <time>2015-09-27T11:24:34Z</time>
      </trkpt>
      <trkpt lat="41.078633" lon="-3.709600">
        <ele>1907.0</ele>
        <time>2015-09-27T11:24:36Z</time>
      </trkpt>
      <trkpt lat="41.078683" lon="-3.709283">
        <ele>1908.0</ele>
        <time>2015-09-27T11:24:38Z</time>
      </trkpt>
      <trkpt lat="41.078717" lon="-3.708933">
        <ele>1908.0</ele>
        <time>2015-09-27T11:24:40Z</time>
      </trkpt>
      <trkpt lat="41.078750" lon="-3.708583">
        <ele>1909.0</ele>
        <time>2015-09-27T11:24:42Z</time>
      </trkpt>
      <trkpt lat="41.078800" lon="-3.708283">
        <ele>1909.0</ele>
        <time>2015-09-27T11:24:44Z</time>
      </trkpt>
      <trkpt lat="41.078883" lon="-3.708050">
        <ele>1907.0</ele>
        <time>2015-09-27T11:24:46Z</time>
      </trkpt>
      <trkpt lat="41.079000" lon="-3.707933">
        <ele>1905.0</ele>
        <time>2015-09-27T11:24:48Z</time>
      </trkpt>
      <trkpt lat="41.079100" lon="-3.707917">
        <ele>1905.0</ele>
        <time>2015-09-27T11:24:50Z</time>
      </trkpt>
      <trkpt lat="41.079133" lon="-3.707900">
        <ele>1906.0</ele>
        <time>2015-09-27T11:24:52Z</time>
      </trkpt>
      <trkpt lat="41.079167" lon="-3.707917">
        <ele>1903.0</ele>
        <time>2015-09-27T11:24:54Z</time>
      </trkpt>
      <trkpt lat="41.079167" lon="-3.708017">
        <ele>1900.0</ele>
        <time>2015-09-27T11:24:56Z</time>
      </trkpt>
      <trkpt lat="41.079167" lon="-3.708100">
        <ele>1902.0</ele>
        <time>2015-09-27T11:24:58Z</time>
      </trkpt>
      <trkpt lat="41.079150" lon="-3.708133">
        <ele>1902.0</ele>
        <time>2015-09-27T11:25:00Z</time>
      </trkpt>
      <trkpt lat="41.079100" lon="-3.708250">
        <ele>1900.0</ele>
        <time>2015-09-27T11:25:02Z</time>
      </trkpt>
      <trkpt lat="41.079033" lon="-3.708383">
        <ele>1900.0</ele>
        <time>2015-09-27T11:25:04Z</time>
      </trkpt>
      <trkpt lat="41.078950" lon="-3.708467">
        <ele>1900.0</ele>
        <time>2015-09-27T11:25:06Z</time>
      </trkpt>
      <trkpt lat="41.078867" lon="-3.708567">
        <ele>1900.0</ele>
        <time>2015-09-27T11:25:08Z</time>
      </trkpt>
      <trkpt lat="41.078767" lon="-3.708683">
        <ele>1900.0</ele>
        <time>2015-09-27T11:25:10Z</time>
      </trkpt>
      <trkpt lat="41.078700" lon="-3.708783">
        <ele>1902.0</ele>
        <time>2015-09-27T11:25:12Z</time>
      </trkpt>
      <trkpt lat="41.078617" lon="-3.708867">
        <ele>1900.0</ele>
        <time>2015-09-27T11:25:14Z</time>
      </trkpt>
      <trkpt lat="41.078517" lon="-3.708983">
        <ele>1899.0</ele>
        <time>2015-09-27T11:25:16Z</time>
      </trkpt>
      <trkpt lat="41.078400" lon="-3.709117">
        <ele>1899.0</ele>
        <time>2015-09-27T11:25:18Z</time>
      </trkpt>
      <trkpt lat="41.078300" lon="-3.709217">
        <ele>1900.0</ele>
        <time>2015-09-27T11:25:20Z</time>
      </trkpt>
      <trkpt lat="41.078233" lon="-3.709333">
        <ele>1900.0</ele>
        <time>2015-09-27T11:25:22Z</time>
      </trkpt>
      <trkpt lat="41.078183" lon="-3.709450">
        <ele>1900.0</ele>
        <time>2015-09-27T11:25:24Z</time>
      </trkpt>
      <trkpt lat="41.078150" lon="-3.709583">
        <ele>1901.0</ele>
        <time>2015-09-27T11:25:26Z</time>
      </trkpt>
      <trkpt lat="41.078083" lon="-3.709717">
        <ele>1905.0</ele>
        <time>2015-09-27T11:25:28Z</time>
      </trkpt>
      <trkpt lat="41.078050" lon="-3.709817">
        <ele>1907.0</ele>
        <time>2015-09-27T11:25:30Z</time>
      </trkpt>
      <trkpt lat="41.078017" lon="-3.709917">
        <ele>1910.0</ele>
        <time>2015-09-27T11:25:32Z</time>
      </trkpt>
      <trkpt lat="41.078000" lon="-3.710033">
        <ele>1912.0</ele>
        <time>2015-09-27T11:25:34Z</time>
      </trkpt>
      <trkpt lat="41.077983" lon="-3.710117">
        <ele>1913.0</ele>
        <time>2015-09-27T11:25:36Z</time>
      </trkpt>
      <trkpt lat="41.078000" lon="-3.710217">
        <ele>1912.0</ele>
        <time>2015-09-27T11:25:38Z</time>
      </trkpt>
      <trkpt lat="41.077983" lon="-3.710333">
        <ele>1911.0</ele>
        <time>2015-09-27T11:25:40Z</time>
      </trkpt>
      <trkpt lat="41.077950" lon="-3.710483">
        <ele>1910.0</ele>
        <time>2015-09-27T11:25:42Z</time>
      </trkpt>
      <trkpt lat="41.077917" lon="-3.710650">
        <ele>1909.0</ele>
        <time>2015-09-27T11:25:45Z</time>
      </trkpt>
      <trkpt lat="41.077900" lon="-3.710783">
        <ele>1910.0</ele>
        <time>2015-09-27T11:25:47Z</time>
      </trkpt>
      <trkpt lat="41.077900" lon="-3.710917">
        <ele>1912.0</ele>
        <time>2015-09-27T11:25:49Z</time>
      </trkpt>
      <trkpt lat="41.077883" lon="-3.711050">
        <ele>1915.0</ele>
        <time>2015-09-27T11:25:51Z</time>
      </trkpt>
      <trkpt lat="41.077817" lon="-3.711183">
        <ele>1916.0</ele>
        <time>2015-09-27T11:25:53Z</time>
      </trkpt>
      <trkpt lat="41.077733" lon="-3.711300">
        <ele>1916.0</ele>
        <time>2015-09-27T11:25:55Z</time>
      </trkpt>
      <trkpt lat="41.077633" lon="-3.711433">
        <ele>1915.0</ele>
        <time>2015-09-27T11:25:57Z</time>
      </trkpt>
      <trkpt lat="41.077533" lon="-3.711550">
        <ele>1915.0</ele>
        <time>2015-09-27T11:25:59Z</time>
      </trkpt>
      <trkpt lat="41.077450" lon="-3.711683">
        <ele>1914.0</ele>
        <time>2015-09-27T11:26:01Z</time>
      </trkpt>
      <trkpt lat="41.077350" lon="-3.711817">
        <ele>1915.0</ele>
        <time>2015-09-27T11:26:03Z</time>
      </trkpt>
      <trkpt lat="41.077250" lon="-3.711933">
        <ele>1915.0</ele>
        <time>2015-09-27T11:26:05Z</time>
      </trkpt>
      <trkpt lat="41.077167" lon="-3.712083">
        <ele>1914.0</ele>
        <time>2015-09-27T11:26:07Z</time>
      </trkpt>
      <trkpt lat="41.077100" lon="-3.712283">
        <ele>1917.0</ele>
        <time>2015-09-27T11:26:09Z</time>
      </trkpt>
      <trkpt lat="41.077033" lon="-3.712433">
        <ele>1924.0</ele>
        <time>2015-09-27T11:26:11Z</time>
      </trkpt>
      <trkpt lat="41.077017" lon="-3.712533">
        <ele>1929.0</ele>
        <time>2015-09-27T11:26:13Z</time>
      </trkpt>
      <trkpt lat="41.077067" lon="-3.712600">
        <ele>1930.0</ele>
        <time>2015-09-27T11:26:15Z</time>
      </trkpt>
      <trkpt lat="41.077200" lon="-3.712600">
        <ele>1928.0</ele>
        <time>2015-09-27T11:26:17Z</time>
      </trkpt>
      <trkpt lat="41.077350" lon="-3.712467">
        <ele>1928.0</ele>
        <time>2015-09-27T11:26:19Z</time>
      </trkpt>
      <trkpt lat="41.077417" lon="-3.712217">
        <ele>1928.0</ele>
        <time>2015-09-27T11:26:21Z</time>
      </trkpt>
      <trkpt lat="41.077417" lon="-3.711900">
        <ele>1926.0</ele>
        <time>2015-09-27T11:26:23Z</time>
      </trkpt>
      <trkpt lat="41.077283" lon="-3.711567">
        <ele>1923.0</ele>
        <time>2015-09-27T11:26:25Z</time>
      </trkpt>
      <trkpt lat="41.077017" lon="-3.711433">
        <ele>1920.0</ele>
        <time>2015-09-27T11:26:27Z</time>
      </trkpt>
      <trkpt lat="41.076817" lon="-3.711500">
        <ele>1922.0</ele>
        <time>2015-09-27T11:26:29Z</time>
      </trkpt>
      <trkpt lat="41.076650" lon="-3.711567">
        <ele>1928.0</ele>
        <time>2015-09-27T11:26:31Z</time>
      </trkpt>
      <trkpt lat="41.076517" lon="-3.711650">
        <ele>1932.0</ele>
        <time>2015-09-27T11:26:33Z</time>
      </trkpt>
      <trkpt lat="41.076400" lon="-3.711750">
        <ele>1932.0</ele>
        <time>2015-09-27T11:26:35Z</time>
      </trkpt>
      <trkpt lat="41.076300" lon="-3.711867">
        <ele>1932.0</ele>
        <time>2015-09-27T11:26:37Z</time>
      </trkpt>
      <trkpt lat="41.076250" lon="-3.711983">
        <ele>1932.0</ele>
        <time>2015-09-27T11:26:39Z</time>
      </trkpt>
      <trkpt lat="41.076200" lon="-3.712083">
        <ele>1932.0</ele>
        <time>2015-09-27T11:26:41Z</time>
      </trkpt>
      <trkpt lat="41.076167" lon="-3.712200">
        <ele>1932.0</ele>
        <time>2015-09-27T11:26:43Z</time>
      </trkpt>
      <trkpt lat="41.076150" lon="-3.712300">
        <ele>1933.0</ele>
        <time>2015-09-27T11:26:45Z</time>
      </trkpt>
      <trkpt lat="41.076100" lon="-3.712417">
        <ele>1933.0</ele>
        <time>2015-09-27T11:26:47Z</time>
      </trkpt>
      <trkpt lat="41.076050" lon="-3.712550">
        <ele>1933.0</ele>
        <time>2015-09-27T11:26:49Z</time>
      </trkpt>
      <trkpt lat="41.075983" lon="-3.712667">
        <ele>1935.0</ele>
        <time>2015-09-27T11:26:51Z</time>
      </trkpt>
      <trkpt lat="41.075933" lon="-3.712783">
        <ele>1936.0</ele>
        <time>2015-09-27T11:26:53Z</time>
      </trkpt>
      <trkpt lat="41.075867" lon="-3.712900">
        <ele>1936.0</ele>
        <time>2015-09-27T11:26:55Z</time>
      </trkpt>
      <trkpt lat="41.075783" lon="-3.713033">
        <ele>1935.0</ele>
        <time>2015-09-27T11:26:57Z</time>
      </trkpt>
      <trkpt lat="41.075683" lon="-3.713133">
        <ele>1937.0</ele>
        <time>2015-09-27T11:26:59Z</time>
      </trkpt>
      <trkpt lat="41.075600" lon="-3.713233">
        <ele>1938.0</ele>
        <time>2015-09-27T11:27:01Z</time>
      </trkpt>
      <trkpt lat="41.075500" lon="-3.713350">
        <ele>1937.0</ele>
        <time>2015-09-27T11:27:03Z</time>
      </trkpt>
      <trkpt lat="41.075417" lon="-3.713483">
        <ele>1939.0</ele>
        <time>2015-09-27T11:27:05Z</time>
      </trkpt>
      <trkpt lat="41.075333" lon="-3.713567">
        <ele>1940.0</ele>
        <time>2015-09-27T11:27:07Z</time>
      </trkpt>
      <trkpt lat="41.075250" lon="-3.713683">
        <ele>1939.0</ele>
        <time>2015-09-27T11:27:09Z</time>
      </trkpt>
      <trkpt lat="41.075167" lon="-3.713817">
        <ele>1939.0</ele>
        <time>2015-09-27T11:27:11Z</time>
      </trkpt>
      <trkpt lat="41.075083" lon="-3.713917">
        <ele>1940.0</ele>
        <time>2015-09-27T11:27:13Z</time>
      </trkpt>
      <trkpt lat="41.075000" lon="-3.714033">
        <ele>1939.0</ele>
        <time>2015-09-27T11:27:15Z</time>
      </trkpt>
      <trkpt lat="41.074917" lon="-3.714183">
        <ele>1938.0</ele>
        <time>2015-09-27T11:27:17Z</time>
      </trkpt>
      <trkpt lat="41.074833" lon="-3.714317">
        <ele>1938.0</ele>
        <time>2015-09-27T11:27:19Z</time>
      </trkpt>
      <trkpt lat="41.074767" lon="-3.714433">
        <ele>1939.0</ele>
        <time>2015-09-27T11:27:21Z</time>
      </trkpt>
      <trkpt lat="41.074683" lon="-3.714550">
        <ele>1939.0</ele>
        <time>2015-09-27T11:27:23Z</time>
      </trkpt>
      <trkpt lat="41.074583" lon="-3.714683">
        <ele>1939.0</ele>
        <time>2015-09-27T11:27:25Z</time>
      </trkpt>
      <trkpt lat="41.074483" lon="-3.714817">
        <ele>1939.0</ele>
        <time>2015-09-27T11:27:27Z</time>
      </trkpt>
      <trkpt lat="41.074383" lon="-3.714950">
        <ele>1940.0</ele>
        <time>2015-09-27T11:27:29Z</time>
      </trkpt>
      <trkpt lat="41.074300" lon="-3.715067">
        <ele>1940.0</ele>
        <time>2015-09-27T11:27:31Z</time>
      </trkpt>
      <trkpt lat="41.074217" lon="-3.715200">
        <ele>1940.0</ele>
        <time>2015-09-27T11:27:33Z</time>
      </trkpt>
      <trkpt lat="41.074133" lon="-3.715317">
        <ele>1940.0</ele>
        <time>2015-09-27T11:27:35Z</time>
      </trkpt>
      <trkpt lat="41.074050" lon="-3.715433">
        <ele>1939.0</ele>
        <time>2015-09-27T11:27:37Z</time>
      </trkpt>
      <trkpt lat="41.073950" lon="-3.715550">
        <ele>1938.0</ele>
        <time>2015-09-27T11:27:39Z</time>
      </trkpt>
      <trkpt lat="41.073850" lon="-3.715683">
        <ele>1938.0</ele>
        <time>2015-09-27T11:27:41Z</time>
      </trkpt>
      <trkpt lat="41.073750" lon="-3.715800">
        <ele>1938.0</ele>
        <time>2015-09-27T11:27:43Z</time>
      </trkpt>
      <trkpt lat="41.073650" lon="-3.715917">
        <ele>1938.0</ele>
        <time>2015-09-27T11:27:45Z</time>
      </trkpt>
      <trkpt lat="41.073533" lon="-3.716033">
        <ele>1938.0</ele>
        <time>2015-09-27T11:27:47Z</time>
      </trkpt>
      <trkpt lat="41.073433" lon="-3.716150">
        <ele>1937.0</ele>
        <time>2015-09-27T11:27:49Z</time>
      </trkpt>
      <trkpt lat="41.073317" lon="-3.716300">
        <ele>1937.0</ele>
        <time>2015-09-27T11:27:51Z</time>
      </trkpt>
      <trkpt lat="41.073200" lon="-3.716417">
        <ele>1938.0</ele>
        <time>2015-09-27T11:27:53Z</time>
      </trkpt>
      <trkpt lat="41.073083" lon="-3.716533">
        <ele>1939.0</ele>
        <time>2015-09-27T11:27:55Z</time>
      </trkpt>
      <trkpt lat="41.072983" lon="-3.716650">
        <ele>1939.0</ele>
        <time>2015-09-27T11:27:57Z</time>
      </trkpt>
      <trkpt lat="41.072883" lon="-3.716767">
        <ele>1939.0</ele>
        <time>2015-09-27T11:27:59Z</time>
      </trkpt>
      <trkpt lat="41.072783" lon="-3.716900">
        <ele>1940.0</ele>
        <time>2015-09-27T11:28:01Z</time>
      </trkpt>
      <trkpt lat="41.072700" lon="-3.717017">
        <ele>1941.0</ele>
        <time>2015-09-27T11:28:03Z</time>
      </trkpt>
      <trkpt lat="41.072617" lon="-3.717167">
        <ele>1941.0</ele>
        <time>2015-09-27T11:28:05Z</time>
      </trkpt>
      <trkpt lat="41.072517" lon="-3.717283">
        <ele>1942.0</ele>
        <time>2015-09-27T11:28:07Z</time>
      </trkpt>
      <trkpt lat="41.072433" lon="-3.717400">
        <ele>1942.0</ele>
        <time>2015-09-27T11:28:09Z</time>
      </trkpt>
      <trkpt lat="41.072350" lon="-3.717550">
        <ele>1942.0</ele>
        <time>2015-09-27T11:28:11Z</time>
      </trkpt>
      <trkpt lat="41.072267" lon="-3.717683">
        <ele>1943.0</ele>
        <time>2015-09-27T11:28:13Z</time>
      </trkpt>
      <trkpt lat="41.072217" lon="-3.717817">
        <ele>1943.0</ele>
        <time>2015-09-27T11:28:15Z</time>
      </trkpt>
      <trkpt lat="41.072150" lon="-3.717950">
        <ele>1943.0</ele>
        <time>2015-09-27T11:28:17Z</time>
      </trkpt>
      <trkpt lat="41.072100" lon="-3.718083">
        <ele>1944.0</ele>
        <time>2015-09-27T11:28:19Z</time>
      </trkpt>
      <trkpt lat="41.072050" lon="-3.718217">
        <ele>1945.0</ele>
        <time>2015-09-27T11:28:21Z</time>
      </trkpt>
      <trkpt lat="41.072017" lon="-3.718333">
        <ele>1945.0</ele>
        <time>2015-09-27T11:28:23Z</time>
      </trkpt>
      <trkpt lat="41.071967" lon="-3.718467">
        <ele>1944.0</ele>
        <time>2015-09-27T11:28:25Z</time>
      </trkpt>
      <trkpt lat="41.071900" lon="-3.718583">
        <ele>1944.0</ele>
        <time>2015-09-27T11:28:27Z</time>
      </trkpt>
      <trkpt lat="41.071800" lon="-3.718683">
        <ele>1944.0</ele>
        <time>2015-09-27T11:28:29Z</time>
      </trkpt>
      <trkpt lat="41.071683" lon="-3.718800">
        <ele>1942.0</ele>
        <time>2015-09-27T11:28:31Z</time>
      </trkpt>
      <trkpt lat="41.071567" lon="-3.718933">
        <ele>1941.0</ele>
        <time>2015-09-27T11:28:33Z</time>
      </trkpt>
      <trkpt lat="41.071433" lon="-3.719050">
        <ele>1940.0</ele>
        <time>2015-09-27T11:28:35Z</time>
      </trkpt>
      <trkpt lat="41.071300" lon="-3.719167">
        <ele>1939.0</ele>
        <time>2015-09-27T11:28:37Z</time>
      </trkpt>
      <trkpt lat="41.071167" lon="-3.719283">
        <ele>1938.0</ele>
        <time>2015-09-27T11:28:39Z</time>
      </trkpt>
      <trkpt lat="41.071017" lon="-3.719383">
        <ele>1938.0</ele>
        <time>2015-09-27T11:28:41Z</time>
      </trkpt>
      <trkpt lat="41.070867" lon="-3.719450">
        <ele>1940.0</ele>
        <time>2015-09-27T11:28:43Z</time>
      </trkpt>
      <trkpt lat="41.070717" lon="-3.719533">
        <ele>1938.0</ele>
        <time>2015-09-27T11:28:45Z</time>
      </trkpt>
      <trkpt lat="41.070533" lon="-3.719650">
        <ele>1939.0</ele>
        <time>2015-09-27T11:28:47Z</time>
      </trkpt>
      <trkpt lat="41.070350" lon="-3.719750">
        <ele>1942.0</ele>
        <time>2015-09-27T11:28:49Z</time>
      </trkpt>
      <trkpt lat="41.070167" lon="-3.719850">
        <ele>1944.0</ele>
        <time>2015-09-27T11:28:51Z</time>
      </trkpt>
      <trkpt lat="41.069983" lon="-3.720033">
        <ele>1947.0</ele>
        <time>2015-09-27T11:28:53Z</time>
      </trkpt>
      <trkpt lat="41.069817" lon="-3.720200">
        <ele>1957.0</ele>
        <time>2015-09-27T11:28:55Z</time>
      </trkpt>
      <trkpt lat="41.069667" lon="-3.720300">
        <ele>1966.0</ele>
        <time>2015-09-27T11:28:57Z</time>
      </trkpt>
      <trkpt lat="41.069567" lon="-3.720417">
        <ele>1968.0</ele>
        <time>2015-09-27T11:28:59Z</time>
      </trkpt>
      <trkpt lat="41.069500" lon="-3.720600">
        <ele>1967.0</ele>
        <time>2015-09-27T11:29:01Z</time>
      </trkpt>
      <trkpt lat="41.069483" lon="-3.720733">
        <ele>1970.0</ele>
        <time>2015-09-27T11:29:03Z</time>
      </trkpt>
      <trkpt lat="41.069467" lon="-3.720833">
        <ele>1970.0</ele>
        <time>2015-09-27T11:29:05Z</time>
      </trkpt>
      <trkpt lat="41.069500" lon="-3.720983">
        <ele>1968.0</ele>
        <time>2015-09-27T11:29:07Z</time>
      </trkpt>
      <trkpt lat="41.069583" lon="-3.721067">
        <ele>1971.0</ele>
        <time>2015-09-27T11:29:09Z</time>
      </trkpt>
      <trkpt lat="41.069650" lon="-3.721033">
        <ele>1975.0</ele>
        <time>2015-09-27T11:29:11Z</time>
      </trkpt>
      <trkpt lat="41.069717" lon="-3.720983">
        <ele>1976.0</ele>
        <time>2015-09-27T11:29:13Z</time>
      </trkpt>
      <trkpt lat="41.069833" lon="-3.720883">
        <ele>1975.0</ele>
        <time>2015-09-27T11:29:15Z</time>
      </trkpt>
      <trkpt lat="41.069950" lon="-3.720767">
        <ele>1981.0</ele>
        <time>2015-09-27T11:29:17Z</time>
      </trkpt>
      <trkpt lat="41.070017" lon="-3.720683">
        <ele>1987.0</ele>
        <time>2015-09-27T11:29:19Z</time>
      </trkpt>
      <trkpt lat="41.070117" lon="-3.720600">
        <ele>1991.0</ele>
        <time>2015-09-27T11:29:21Z</time>
      </trkpt>
      <trkpt lat="41.070217" lon="-3.720567">
        <ele>1995.0</ele>
        <time>2015-09-27T11:29:23Z</time>
      </trkpt>
      <trkpt lat="41.070283" lon="-3.720533">
        <ele>2000.0</ele>
        <time>2015-09-27T11:29:25Z</time>
      </trkpt>
      <trkpt lat="41.070367" lon="-3.720533">
        <ele>2003.0</ele>
        <time>2015-09-27T11:29:27Z</time>
      </trkpt>
      <trkpt lat="41.070400" lon="-3.720617">
        <ele>2006.0</ele>
        <time>2015-09-27T11:29:29Z</time>
      </trkpt>
      <trkpt lat="41.070400" lon="-3.720683">
        <ele>2009.0</ele>
        <time>2015-09-27T11:29:31Z</time>
      </trkpt>
      <trkpt lat="41.070383" lon="-3.720750">
        <ele>2010.0</ele>
        <time>2015-09-27T11:29:33Z</time>
      </trkpt>
      <trkpt lat="41.070317" lon="-3.720867">
        <ele>2008.0</ele>
        <time>2015-09-27T11:29:35Z</time>
      </trkpt>
      <trkpt lat="41.070217" lon="-3.721000">
        <ele>2009.0</ele>
        <time>2015-09-27T11:29:37Z</time>
      </trkpt>
      <trkpt lat="41.070150" lon="-3.721133">
        <ele>2013.0</ele>
        <time>2015-09-27T11:29:39Z</time>
      </trkpt>
      <trkpt lat="41.070100" lon="-3.721233">
        <ele>2017.0</ele>
        <time>2015-09-27T11:29:41Z</time>
      </trkpt>
      <trkpt lat="41.070067" lon="-3.721317">
        <ele>2016.0</ele>
        <time>2015-09-27T11:29:43Z</time>
      </trkpt>
      <trkpt lat="41.070150" lon="-3.721383">
        <ele>2011.0</ele>
        <time>2015-09-27T11:29:45Z</time>
      </trkpt>
      <trkpt lat="41.070267" lon="-3.721350">
        <ele>2009.0</ele>
        <time>2015-09-27T11:29:47Z</time>
      </trkpt>
      <trkpt lat="41.070367" lon="-3.721267">
        <ele>2009.0</ele>
        <time>2015-09-27T11:29:49Z</time>
      </trkpt>
      <trkpt lat="41.070450" lon="-3.721117">
        <ele>2006.0</ele>
        <time>2015-09-27T11:29:51Z</time>
      </trkpt>
      <trkpt lat="41.070517" lon="-3.720833">
        <ele>2002.0</ele>
        <time>2015-09-27T11:29:53Z</time>
      </trkpt>
      <trkpt lat="41.070483" lon="-3.720450">
        <ele>1999.0</ele>
        <time>2015-09-27T11:29:55Z</time>
      </trkpt>
      <trkpt lat="41.070317" lon="-3.720133">
        <ele>1997.0</ele>
        <time>2015-09-27T11:29:57Z</time>
      </trkpt>
      <trkpt lat="41.070067" lon="-3.719900">
        <ele>1994.0</ele>
        <time>2015-09-27T11:29:59Z</time>
      </trkpt>
      <trkpt lat="41.069817" lon="-3.719850">
        <ele>1991.0</ele>
        <time>2015-09-27T11:30:01Z</time>
      </trkpt>
      <trkpt lat="41.069600" lon="-3.719883">
        <ele>1988.0</ele>
        <time>2015-09-27T11:30:03Z</time>
      </trkpt>
      <trkpt lat="41.069433" lon="-3.719950">
        <ele>1987.0</ele>
        <time>2015-09-27T11:30:05Z</time>
      </trkpt>
      <trkpt lat="41.069283" lon="-3.720017">
        <ele>1987.0</ele>
        <time>2015-09-27T11:30:07Z</time>
      </trkpt>
      <trkpt lat="41.069167" lon="-3.720133">
        <ele>1988.0</ele>
        <time>2015-09-27T11:30:09Z</time>
      </trkpt>
      <trkpt lat="41.069017" lon="-3.720233">
        <ele>1988.0</ele>
        <time>2015-09-27T11:30:11Z</time>
      </trkpt>
      <trkpt lat="41.068900" lon="-3.720333">
        <ele>1987.0</ele>
        <time>2015-09-27T11:30:13Z</time>
      </trkpt>
      <trkpt lat="41.068817" lon="-3.720483">
        <ele>1988.0</ele>
        <time>2015-09-27T11:30:15Z</time>
      </trkpt>
      <trkpt lat="41.068733" lon="-3.720617">
        <ele>1989.0</ele>
        <time>2015-09-27T11:30:17Z</time>
      </trkpt>
      <trkpt lat="41.068667" lon="-3.720733">
        <ele>1989.0</ele>
        <time>2015-09-27T11:30:19Z</time>
      </trkpt>
      <trkpt lat="41.068567" lon="-3.720850">
        <ele>1990.0</ele>
        <time>2015-09-27T11:30:21Z</time>
      </trkpt>
      <trkpt lat="41.068483" lon="-3.720983">
        <ele>1989.0</ele>
        <time>2015-09-27T11:30:23Z</time>
      </trkpt>
      <trkpt lat="41.068433" lon="-3.721133">
        <ele>1988.0</ele>
        <time>2015-09-27T11:30:25Z</time>
      </trkpt>
      <trkpt lat="41.068400" lon="-3.721283">
        <ele>1989.0</ele>
        <time>2015-09-27T11:30:27Z</time>
      </trkpt>
      <trkpt lat="41.068367" lon="-3.721400">
        <ele>1989.0</ele>
        <time>2015-09-27T11:30:29Z</time>
      </trkpt>
      <trkpt lat="41.068383" lon="-3.721517">
        <ele>1988.0</ele>
        <time>2015-09-27T11:30:31Z</time>
      </trkpt>
      <trkpt lat="41.068400" lon="-3.721650">
        <ele>1989.0</ele>
        <time>2015-09-27T11:30:33Z</time>
      </trkpt>
      <trkpt lat="41.068383" lon="-3.721750">
        <ele>1992.0</ele>
        <time>2015-09-27T11:30:35Z</time>
      </trkpt>
      <trkpt lat="41.068367" lon="-3.721817">
        <ele>1992.0</ele>
        <time>2015-09-27T11:30:37Z</time>
      </trkpt>
      <trkpt lat="41.068350" lon="-3.721983">
        <ele>1991.0</ele>
        <time>2015-09-27T11:30:39Z</time>
      </trkpt>
      <trkpt lat="41.068283" lon="-3.722133">
        <ele>1994.0</ele>
        <time>2015-09-27T11:30:41Z</time>
      </trkpt>
      <trkpt lat="41.068200" lon="-3.722233">
        <ele>1995.0</ele>
        <time>2015-09-27T11:30:43Z</time>
      </trkpt>
      <trkpt lat="41.068083" lon="-3.722433">
        <ele>1996.0</ele>
        <time>2015-09-27T11:30:45Z</time>
      </trkpt>
      <trkpt lat="41.067983" lon="-3.722600">
        <ele>1999.0</ele>
        <time>2015-09-27T11:30:47Z</time>
      </trkpt>
      <trkpt lat="41.067883" lon="-3.722750">
        <ele>2000.0</ele>
        <time>2015-09-27T11:30:49Z</time>
      </trkpt>
      <trkpt lat="41.067750" lon="-3.722933">
        <ele>2000.0</ele>
        <time>2015-09-27T11:30:51Z</time>
      </trkpt>
      <trkpt lat="41.067633" lon="-3.723133">
        <ele>2006.0</ele>
        <time>2015-09-27T11:30:53Z</time>
      </trkpt>
      <trkpt lat="41.067550" lon="-3.723250">
        <ele>2010.0</ele>
        <time>2015-09-27T11:30:55Z</time>
      </trkpt>
      <trkpt lat="41.067467" lon="-3.723383">
        <ele>2007.0</ele>
        <time>2015-09-27T11:30:57Z</time>
      </trkpt>
      <trkpt lat="41.067383" lon="-3.723583">
        <ele>2004.0</ele>
        <time>2015-09-27T11:30:59Z</time>
      </trkpt>
      <trkpt lat="41.067300" lon="-3.723750">
        <ele>2007.0</ele>
        <time>2015-09-27T11:31:01Z</time>
      </trkpt>
      <trkpt lat="41.067167" lon="-3.723867">
        <ele>2007.0</ele>
        <time>2015-09-27T11:31:03Z</time>
      </trkpt>
      <trkpt lat="41.067033" lon="-3.724017">
        <ele>2003.0</ele>
        <time>2015-09-27T11:31:05Z</time>
      </trkpt>
      <trkpt lat="41.066867" lon="-3.724200">
        <ele>2002.0</ele>
        <time>2015-09-27T11:31:07Z</time>
      </trkpt>
      <trkpt lat="41.066733" lon="-3.724333">
        <ele>2005.0</ele>
        <time>2015-09-27T11:31:09Z</time>
      </trkpt>
      <trkpt lat="41.066617" lon="-3.724467">
        <ele>2004.0</ele>
        <time>2015-09-27T11:31:11Z</time>
      </trkpt>
      <trkpt lat="41.066467" lon="-3.724617">
        <ele>2005.0</ele>
        <time>2015-09-27T11:31:13Z</time>
      </trkpt>
      <trkpt lat="41.066367" lon="-3.724750">
        <ele>2007.0</ele>
        <time>2015-09-27T11:31:15Z</time>
      </trkpt>
      <trkpt lat="41.066283" lon="-3.724900">
        <ele>2006.0</ele>
        <time>2015-09-27T11:31:17Z</time>
      </trkpt>
      <trkpt lat="41.066167" lon="-3.725050">
        <ele>2006.0</ele>
        <time>2015-09-27T11:31:19Z</time>
      </trkpt>
      <trkpt lat="41.066050" lon="-3.725167">
        <ele>2008.0</ele>
        <time>2015-09-27T11:31:21Z</time>
      </trkpt>
      <trkpt lat="41.065950" lon="-3.725317">
        <ele>2008.0</ele>
        <time>2015-09-27T11:31:23Z</time>
      </trkpt>
      <trkpt lat="41.065800" lon="-3.725483">
        <ele>2009.0</ele>
        <time>2015-09-27T11:31:25Z</time>
      </trkpt>
      <trkpt lat="41.065650" lon="-3.725617">
        <ele>2012.0</ele>
        <time>2015-09-27T11:31:27Z</time>
      </trkpt>
      <trkpt lat="41.065500" lon="-3.725750">
        <ele>2013.0</ele>
        <time>2015-09-27T11:31:29Z</time>
      </trkpt>
      <trkpt lat="41.065350" lon="-3.725883">
        <ele>2015.0</ele>
        <time>2015-09-27T11:31:31Z</time>
      </trkpt>
      <trkpt lat="41.065233" lon="-3.726017">
        <ele>2018.0</ele>
        <time>2015-09-27T11:31:33Z</time>
      </trkpt>
      <trkpt lat="41.065167" lon="-3.726150">
        <ele>2018.0</ele>
        <time>2015-09-27T11:31:35Z</time>
      </trkpt>
      <trkpt lat="41.065150" lon="-3.726267">
        <ele>2018.0</ele>
        <time>2015-09-27T11:31:37Z</time>
      </trkpt>
      <trkpt lat="41.065217" lon="-3.726300">
        <ele>2017.0</ele>
        <time>2015-09-27T11:31:39Z</time>
      </trkpt>
      <trkpt lat="41.065300" lon="-3.726233">
        <ele>2017.0</ele>
        <time>2015-09-27T11:31:41Z</time>
      </trkpt>
      <trkpt lat="41.065383" lon="-3.726083">
        <ele>2016.0</ele>
        <time>2015-09-27T11:31:43Z</time>
      </trkpt>
      <trkpt lat="41.065483" lon="-3.725883">
        <ele>2017.0</ele>
        <time>2015-09-27T11:31:45Z</time>
      </trkpt>
      <trkpt lat="41.065583" lon="-3.725717">
        <ele>2018.0</ele>
        <time>2015-09-27T11:31:47Z</time>
      </trkpt>
      <trkpt lat="41.065683" lon="-3.725550">
        <ele>2019.0</ele>
        <time>2015-09-27T11:31:49Z</time>
      </trkpt>
      <trkpt lat="41.065783" lon="-3.725383">
        <ele>2022.0</ele>
        <time>2015-09-27T11:31:51Z</time>
      </trkpt>
      <trkpt lat="41.065883" lon="-3.725233">
        <ele>2025.0</ele>
        <time>2015-09-27T11:31:53Z</time>
      </trkpt>
      <trkpt lat="41.065983" lon="-3.725100">
        <ele>2027.0</ele>
        <time>2015-09-27T11:31:55Z</time>
      </trkpt>
      <trkpt lat="41.066083" lon="-3.724983">
        <ele>2028.0</ele>
        <time>2015-09-27T11:31:57Z</time>
      </trkpt>
      <trkpt lat="41.066183" lon="-3.724883">
        <ele>2030.0</ele>
        <time>2015-09-27T11:31:59Z</time>
      </trkpt>
      <trkpt lat="41.066267" lon="-3.724800">
        <ele>2032.0</ele>
        <time>2015-09-27T11:32:01Z</time>
      </trkpt>
      <trkpt lat="41.066350" lon="-3.724750">
        <ele>2033.0</ele>
        <time>2015-09-27T11:32:03Z</time>
      </trkpt>
      <trkpt lat="41.066433" lon="-3.724733">
        <ele>2033.0</ele>
        <time>2015-09-27T11:32:05Z</time>
      </trkpt>
      <trkpt lat="41.066500" lon="-3.724767">
        <ele>2032.0</ele>
        <time>2015-09-27T11:32:07Z</time>
      </trkpt>
      <trkpt lat="41.066583" lon="-3.724833">
        <ele>2032.0</ele>
        <time>2015-09-27T11:32:09Z</time>
      </trkpt>
      <trkpt lat="41.066617" lon="-3.724933">
        <ele>2034.0</ele>
        <time>2015-09-27T11:32:11Z</time>
      </trkpt>
      <trkpt lat="41.066617" lon="-3.725050">
        <ele>2034.0</ele>
        <time>2015-09-27T11:32:13Z</time>
      </trkpt>
      <trkpt lat="41.066583" lon="-3.725217">
        <ele>2033.0</ele>
        <time>2015-09-27T11:32:15Z</time>
      </trkpt>
      <trkpt lat="41.066550" lon="-3.725383">
        <ele>2033.0</ele>
        <time>2015-09-27T11:32:17Z</time>
      </trkpt>
      <trkpt lat="41.066500" lon="-3.725533">
        <ele>2035.0</ele>
        <time>2015-09-27T11:32:19Z</time>
      </trkpt>
      <trkpt lat="41.066467" lon="-3.725683">
        <ele>2038.0</ele>
        <time>2015-09-27T11:32:21Z</time>
      </trkpt>
      <trkpt lat="41.066400" lon="-3.725850">
        <ele>2041.0</ele>
        <time>2015-09-27T11:32:23Z</time>
      </trkpt>
      <trkpt lat="41.066317" lon="-3.726000">
        <ele>2044.0</ele>
        <time>2015-09-27T11:32:25Z</time>
      </trkpt>
      <trkpt lat="41.066233" lon="-3.726150">
        <ele>2046.0</ele>
        <time>2015-09-27T11:32:27Z</time>
      </trkpt>
      <trkpt lat="41.066150" lon="-3.726300">
        <ele>2049.0</ele>
        <time>2015-09-27T11:32:29Z</time>
      </trkpt>
      <trkpt lat="41.066067" lon="-3.726433">
        <ele>2051.0</ele>
        <time>2015-09-27T11:32:31Z</time>
      </trkpt>
      <trkpt lat="41.065967" lon="-3.726583">
        <ele>2053.0</ele>
        <time>2015-09-27T11:32:33Z</time>
      </trkpt>
      <trkpt lat="41.065883" lon="-3.726750">
        <ele>2056.0</ele>
        <time>2015-09-27T11:32:35Z</time>
      </trkpt>
      <trkpt lat="41.065850" lon="-3.726867">
        <ele>2060.0</ele>
        <time>2015-09-27T11:32:37Z</time>
      </trkpt>
      <trkpt lat="41.065833" lon="-3.726967">
        <ele>2061.0</ele>
        <time>2015-09-27T11:32:39Z</time>
      </trkpt>
      <trkpt lat="41.065767" lon="-3.727117">
        <ele>2060.0</ele>
        <time>2015-09-27T11:32:41Z</time>
      </trkpt>
      <trkpt lat="41.065600" lon="-3.727250">
        <ele>2061.0</ele>
        <time>2015-09-27T11:32:43Z</time>
      </trkpt>
      <trkpt lat="41.065450" lon="-3.727333">
        <ele>2063.0</ele>
        <time>2015-09-27T11:32:45Z</time>
      </trkpt>
      <trkpt lat="41.065283" lon="-3.727433">
        <ele>2062.0</ele>
        <time>2015-09-27T11:32:47Z</time>
      </trkpt>
      <trkpt lat="41.065117" lon="-3.727583">
        <ele>2062.0</ele>
        <time>2015-09-27T11:32:49Z</time>
      </trkpt>
      <trkpt lat="41.064983" lon="-3.727700">
        <ele>2064.0</ele>
        <time>2015-09-27T11:32:51Z</time>
      </trkpt>
      <trkpt lat="41.064850" lon="-3.727817">
        <ele>2063.0</ele>
        <time>2015-09-27T11:32:53Z</time>
      </trkpt>
      <trkpt lat="41.064733" lon="-3.727967">
        <ele>2063.0</ele>
        <time>2015-09-27T11:32:55Z</time>
      </trkpt>
      <trkpt lat="41.064650" lon="-3.728100">
        <ele>2063.0</ele>
        <time>2015-09-27T11:32:57Z</time>
      </trkpt>
      <trkpt lat="41.064600" lon="-3.728233">
        <ele>2063.0</ele>
        <time>2015-09-27T11:32:59Z</time>
      </trkpt>
      <trkpt lat="41.064533" lon="-3.728333">
        <ele>2064.0</ele>
        <time>2015-09-27T11:33:01Z</time>
      </trkpt>
      <trkpt lat="41.064483" lon="-3.728433">
        <ele>2062.0</ele>
        <time>2015-09-27T11:33:03Z</time>
      </trkpt>
      <trkpt lat="41.064433" lon="-3.728550">
        <ele>2058.0</ele>
        <time>2015-09-27T11:33:05Z</time>
      </trkpt>
      <trkpt lat="41.064400" lon="-3.728700">
        <ele>2056.0</ele>
        <time>2015-09-27T11:33:07Z</time>
      </trkpt>
      <trkpt lat="41.064367" lon="-3.728817">
        <ele>2056.0</ele>
        <time>2015-09-27T11:33:09Z</time>
      </trkpt>
      <trkpt lat="41.064333" lon="-3.728933">
        <ele>2055.0</ele>
        <time>2015-09-27T11:33:11Z</time>
      </trkpt>
      <trkpt lat="41.064283" lon="-3.729083">
        <ele>2053.0</ele>
        <time>2015-09-27T11:33:13Z</time>
      </trkpt>
      <trkpt lat="41.064200" lon="-3.729233">
        <ele>2053.0</ele>
        <time>2015-09-27T11:33:15Z</time>
      </trkpt>
      <trkpt lat="41.064117" lon="-3.729350">
        <ele>2053.0</ele>
        <time>2015-09-27T11:33:17Z</time>
      </trkpt>
      <trkpt lat="41.064050" lon="-3.729483">
        <ele>2052.0</ele>
        <time>2015-09-27T11:33:19Z</time>
      </trkpt>
      <trkpt lat="41.063950" lon="-3.729617">
        <ele>2051.0</ele>
        <time>2015-09-27T11:33:21Z</time>
      </trkpt>
      <trkpt lat="41.063850" lon="-3.729733">
        <ele>2050.0</ele>
        <time>2015-09-27T11:33:23Z</time>
      </trkpt>
      <trkpt lat="41.063767" lon="-3.729883">
        <ele>2048.0</ele>
        <time>2015-09-27T11:33:25Z</time>
      </trkpt>
      <trkpt lat="41.063650" lon="-3.730033">
        <ele>2045.0</ele>
        <time>2015-09-27T11:33:27Z</time>
      </trkpt>
      <trkpt lat="41.063533" lon="-3.730183">
        <ele>2045.0</ele>
        <time>2015-09-27T11:33:29Z</time>
      </trkpt>
      <trkpt lat="41.063433" lon="-3.730317">
        <ele>2045.0</ele>
        <time>2015-09-27T11:33:31Z</time>
      </trkpt>
      <trkpt lat="41.063333" lon="-3.730450">
        <ele>2045.0</ele>
        <time>2015-09-27T11:33:33Z</time>
      </trkpt>
      <trkpt lat="41.063233" lon="-3.730600">
        <ele>2044.0</ele>
        <time>2015-09-27T11:33:35Z</time>
      </trkpt>
      <trkpt lat="41.063150" lon="-3.730750">
        <ele>2046.0</ele>
        <time>2015-09-27T11:33:37Z</time>
      </trkpt>
      <trkpt lat="41.063050" lon="-3.730883">
        <ele>2048.0</ele>
        <time>2015-09-27T11:33:39Z</time>
      </trkpt>
      <trkpt lat="41.062967" lon="-3.731000">
        <ele>2048.0</ele>
        <time>2015-09-27T11:33:41Z</time>
      </trkpt>
      <trkpt lat="41.062917" lon="-3.731150">
        <ele>2048.0</ele>
        <time>2015-09-27T11:33:43Z</time>
      </trkpt>
      <trkpt lat="41.062883" lon="-3.731267">
        <ele>2051.0</ele>
        <time>2015-09-27T11:33:45Z</time>
      </trkpt>
      <trkpt lat="41.062900" lon="-3.731367">
        <ele>2052.0</ele>
        <time>2015-09-27T11:33:47Z</time>
      </trkpt>
      <trkpt lat="41.062950" lon="-3.731417">
        <ele>2055.0</ele>
        <time>2015-09-27T11:33:49Z</time>
      </trkpt>
      <trkpt lat="41.063017" lon="-3.731417">
        <ele>2058.0</ele>
        <time>2015-09-27T11:33:51Z</time>
      </trkpt>
      <trkpt lat="41.063100" lon="-3.731350">
        <ele>2060.0</ele>
        <time>2015-09-27T11:33:53Z</time>
      </trkpt>
      <trkpt lat="41.063183" lon="-3.731250">
        <ele>2060.0</ele>
        <time>2015-09-27T11:33:55Z</time>
      </trkpt>
      <trkpt lat="41.063250" lon="-3.731083">
        <ele>2060.0</ele>
        <time>2015-09-27T11:33:57Z</time>
      </trkpt>
      <trkpt lat="41.063333" lon="-3.730867">
        <ele>2059.0</ele>
        <time>2015-09-27T11:33:59Z</time>
      </trkpt>
      <trkpt lat="41.063417" lon="-3.730667">
        <ele>2061.0</ele>
        <time>2015-09-27T11:34:01Z</time>
      </trkpt>
      <trkpt lat="41.063483" lon="-3.730483">
        <ele>2063.0</ele>
        <time>2015-09-27T11:34:03Z</time>
      </trkpt>
      <trkpt lat="41.063550" lon="-3.730317">
        <ele>2062.0</ele>
        <time>2015-09-27T11:34:05Z</time>
      </trkpt>
      <trkpt lat="41.063633" lon="-3.730217">
        <ele>2062.0</ele>
        <time>2015-09-27T11:34:07Z</time>
      </trkpt>
      <trkpt lat="41.063700" lon="-3.730167">
        <ele>2063.0</ele>
        <time>2015-09-27T11:34:09Z</time>
      </trkpt>
      <trkpt lat="41.063767" lon="-3.730150">
        <ele>2063.0</ele>
        <time>2015-09-27T11:34:11Z</time>
      </trkpt>
      <trkpt lat="41.063817" lon="-3.730217">
        <ele>2062.0</ele>
        <time>2015-09-27T11:34:13Z</time>
      </trkpt>
      <trkpt lat="41.063850" lon="-3.730300">
        <ele>2064.0</ele>
        <time>2015-09-27T11:34:15Z</time>
      </trkpt>
      <trkpt lat="41.063850" lon="-3.730383">
        <ele>2065.0</ele>
        <time>2015-09-27T11:34:17Z</time>
      </trkpt>
      <trkpt lat="41.063817" lon="-3.730517">
        <ele>2065.0</ele>
        <time>2015-09-27T11:34:19Z</time>
      </trkpt>
      <trkpt lat="41.063783" lon="-3.730650">
        <ele>2066.0</ele>
        <time>2015-09-27T11:34:21Z</time>
      </trkpt>
      <trkpt lat="41.063717" lon="-3.730783">
        <ele>2068.0</ele>
        <time>2015-09-27T11:34:23Z</time>
      </trkpt>
      <trkpt lat="41.063667" lon="-3.730917">
        <ele>2069.0</ele>
        <time>2015-09-27T11:34:25Z</time>
      </trkpt>
      <trkpt lat="41.063600" lon="-3.731050">
        <ele>2069.0</ele>
        <time>2015-09-27T11:34:27Z</time>
      </trkpt>
      <trkpt lat="41.063550" lon="-3.731200">
        <ele>2069.0</ele>
        <time>2015-09-27T11:34:29Z</time>
      </trkpt>
      <trkpt lat="41.063500" lon="-3.731317">
        <ele>2070.0</ele>
        <time>2015-09-27T11:34:31Z</time>
      </trkpt>
      <trkpt lat="41.063450" lon="-3.731433">
        <ele>2069.0</ele>
        <time>2015-09-27T11:34:33Z</time>
      </trkpt>
      <trkpt lat="41.063383" lon="-3.731583">
        <ele>2066.0</ele>
        <time>2015-09-27T11:34:35Z</time>
      </trkpt>
      <trkpt lat="41.063317" lon="-3.731733">
        <ele>2066.0</ele>
        <time>2015-09-27T11:34:37Z</time>
      </trkpt>
      <trkpt lat="41.063233" lon="-3.731867">
        <ele>2066.0</ele>
        <time>2015-09-27T11:34:39Z</time>
      </trkpt>
      <trkpt lat="41.063150" lon="-3.731983">
        <ele>2065.0</ele>
        <time>2015-09-27T11:34:41Z</time>
      </trkpt>
      <trkpt lat="41.063050" lon="-3.732133">
        <ele>2063.0</ele>
        <time>2015-09-27T11:34:43Z</time>
      </trkpt>
      <trkpt lat="41.062983" lon="-3.732283">
        <ele>2063.0</ele>
        <time>2015-09-27T11:34:45Z</time>
      </trkpt>
      <trkpt lat="41.062900" lon="-3.732400">
        <ele>2063.0</ele>
        <time>2015-09-27T11:34:47Z</time>
      </trkpt>
      <trkpt lat="41.062817" lon="-3.732533">
        <ele>2060.0</ele>
        <time>2015-09-27T11:34:49Z</time>
      </trkpt>
      <trkpt lat="41.062733" lon="-3.732683">
        <ele>2058.0</ele>
        <time>2015-09-27T11:34:51Z</time>
      </trkpt>
      <trkpt lat="41.062617" lon="-3.732817">
        <ele>2060.0</ele>
        <time>2015-09-27T11:34:53Z</time>
      </trkpt>
      <trkpt lat="41.062467" lon="-3.732917">
        <ele>2063.0</ele>
        <time>2015-09-27T11:34:55Z</time>
      </trkpt>
      <trkpt lat="41.062367" lon="-3.733017">
        <ele>2063.0</ele>
        <time>2015-09-27T11:34:57Z</time>
      </trkpt>
      <trkpt lat="41.062250" lon="-3.733150">
        <ele>2062.0</ele>
        <time>2015-09-27T11:34:59Z</time>
      </trkpt>
      <trkpt lat="41.062150" lon="-3.733283">
        <ele>2064.0</ele>
        <time>2015-09-27T11:35:01Z</time>
      </trkpt>
      <trkpt lat="41.062050" lon="-3.733417">
        <ele>2067.0</ele>
        <time>2015-09-27T11:35:03Z</time>
      </trkpt>
      <trkpt lat="41.061950" lon="-3.733533">
        <ele>2068.0</ele>
        <time>2015-09-27T11:35:05Z</time>
      </trkpt>
      <trkpt lat="41.061867" lon="-3.733650">
        <ele>2067.0</ele>
        <time>2015-09-27T11:35:07Z</time>
      </trkpt>
      <trkpt lat="41.061800" lon="-3.733783">
        <ele>2067.0</ele>
        <time>2015-09-27T11:35:09Z</time>
      </trkpt>
      <trkpt lat="41.061717" lon="-3.733883">
        <ele>2066.0</ele>
        <time>2015-09-27T11:35:11Z</time>
      </trkpt>
      <trkpt lat="41.061650" lon="-3.734017">
        <ele>2064.0</ele>
        <time>2015-09-27T11:35:13Z</time>
      </trkpt>
      <trkpt lat="41.061583" lon="-3.734150">
        <ele>2063.0</ele>
        <time>2015-09-27T11:35:15Z</time>
      </trkpt>
      <trkpt lat="41.061517" lon="-3.734250">
        <ele>2064.0</ele>
        <time>2015-09-27T11:35:17Z</time>
      </trkpt>
      <trkpt lat="41.061450" lon="-3.734367">
        <ele>2062.0</ele>
        <time>2015-09-27T11:35:19Z</time>
      </trkpt>
      <trkpt lat="41.061350" lon="-3.734500">
        <ele>2060.0</ele>
        <time>2015-09-27T11:35:21Z</time>
      </trkpt>
      <trkpt lat="41.061250" lon="-3.734650">
        <ele>2059.0</ele>
        <time>2015-09-27T11:35:23Z</time>
      </trkpt>
      <trkpt lat="41.061150" lon="-3.734783">
        <ele>2057.0</ele>
        <time>2015-09-27T11:35:25Z</time>
      </trkpt>
      <trkpt lat="41.061017" lon="-3.734950">
        <ele>2054.0</ele>
        <time>2015-09-27T11:35:27Z</time>
      </trkpt>
      <trkpt lat="41.060883" lon="-3.735100">
        <ele>2056.0</ele>
        <time>2015-09-27T11:35:29Z</time>
      </trkpt>
      <trkpt lat="41.060767" lon="-3.735200">
        <ele>2058.0</ele>
        <time>2015-09-27T11:35:31Z</time>
      </trkpt>
      <trkpt lat="41.060650" lon="-3.735300">
        <ele>2055.0</ele>
        <time>2015-09-27T11:35:33Z</time>
      </trkpt>
      <trkpt lat="41.060533" lon="-3.735417">
        <ele>2056.0</ele>
        <time>2015-09-27T11:35:35Z</time>
      </trkpt>
      <trkpt lat="41.060400" lon="-3.735500">
        <ele>2059.0</ele>
        <time>2015-09-27T11:35:37Z</time>
      </trkpt>
      <trkpt lat="41.060283" lon="-3.735583">
        <ele>2060.0</ele>
        <time>2015-09-27T11:35:39Z</time>
      </trkpt>
      <trkpt lat="41.060183" lon="-3.735700">
        <ele>2060.0</ele>
        <time>2015-09-27T11:35:41Z</time>
      </trkpt>
      <trkpt lat="41.060117" lon="-3.735817">
        <ele>2059.0</ele>
        <time>2015-09-27T11:35:43Z</time>
      </trkpt>
      <trkpt lat="41.060017" lon="-3.735933">
        <ele>2059.0</ele>
        <time>2015-09-27T11:35:45Z</time>
      </trkpt>
      <trkpt lat="41.059883" lon="-3.736050">
        <ele>2059.0</ele>
        <time>2015-09-27T11:35:47Z</time>
      </trkpt>
      <trkpt lat="41.059750" lon="-3.736150">
        <ele>2059.0</ele>
        <time>2015-09-27T11:35:49Z</time>
      </trkpt>
      <trkpt lat="41.059617" lon="-3.736233">
        <ele>2056.0</ele>
        <time>2015-09-27T11:35:51Z</time>
      </trkpt>
      <trkpt lat="41.059467" lon="-3.736367">
        <ele>2053.0</ele>
        <time>2015-09-27T11:35:53Z</time>
      </trkpt>
      <trkpt lat="41.059350" lon="-3.736500">
        <ele>2052.0</ele>
        <time>2015-09-27T11:35:55Z</time>
      </trkpt>
      <trkpt lat="41.059233" lon="-3.736617">
        <ele>2051.0</ele>
        <time>2015-09-27T11:35:57Z</time>
      </trkpt>
      <trkpt lat="41.059100" lon="-3.736717">
        <ele>2049.0</ele>
        <time>2015-09-27T11:35:59Z</time>
      </trkpt>
      <trkpt lat="41.058983" lon="-3.736833">
        <ele>2046.0</ele>
        <time>2015-09-27T11:36:01Z</time>
      </trkpt>
      <trkpt lat="41.058883" lon="-3.736967">
        <ele>2043.0</ele>
        <time>2015-09-27T11:36:03Z</time>
      </trkpt>
      <trkpt lat="41.058750" lon="-3.737100">
        <ele>2041.0</ele>
        <time>2015-09-27T11:36:05Z</time>
      </trkpt>
      <trkpt lat="41.058617" lon="-3.737233">
        <ele>2039.0</ele>
        <time>2015-09-27T11:36:07Z</time>
      </trkpt>
      <trkpt lat="41.058467" lon="-3.737367">
        <ele>2039.0</ele>
        <time>2015-09-27T11:36:09Z</time>
      </trkpt>
      <trkpt lat="41.058333" lon="-3.737483">
        <ele>2039.0</ele>
        <time>2015-09-27T11:36:11Z</time>
      </trkpt>
      <trkpt lat="41.058167" lon="-3.737650">
        <ele>2038.0</ele>
        <time>2015-09-27T11:36:13Z</time>
      </trkpt>
      <trkpt lat="41.058033" lon="-3.737800">
        <ele>2039.0</ele>
        <time>2015-09-27T11:36:15Z</time>
      </trkpt>
      <trkpt lat="41.057883" lon="-3.737933">
        <ele>2041.0</ele>
        <time>2015-09-27T11:36:17Z</time>
      </trkpt>
      <trkpt lat="41.057733" lon="-3.738067">
        <ele>2040.0</ele>
        <time>2015-09-27T11:36:19Z</time>
      </trkpt>
      <trkpt lat="41.057600" lon="-3.738250">
        <ele>2040.0</ele>
        <time>2015-09-27T11:36:21Z</time>
      </trkpt>
      <trkpt lat="41.057483" lon="-3.738400">
        <ele>2042.0</ele>
        <time>2015-09-27T11:36:23Z</time>
      </trkpt>
      <trkpt lat="41.057367" lon="-3.738550">
        <ele>2041.0</ele>
        <time>2015-09-27T11:36:25Z</time>
      </trkpt>
      <trkpt lat="41.057283" lon="-3.738700">
        <ele>2039.0</ele>
        <time>2015-09-27T11:36:27Z</time>
      </trkpt>
      <trkpt lat="41.057217" lon="-3.738900">
        <ele>2039.0</ele>
        <time>2015-09-27T11:36:29Z</time>
      </trkpt>
      <trkpt lat="41.057133" lon="-3.739050">
        <ele>2041.0</ele>
        <time>2015-09-27T11:36:31Z</time>
      </trkpt>
      <trkpt lat="41.057033" lon="-3.739217">
        <ele>2041.0</ele>
        <time>2015-09-27T11:36:33Z</time>
      </trkpt>
      <trkpt lat="41.056900" lon="-3.739383">
        <ele>2041.0</ele>
        <time>2015-09-27T11:36:35Z</time>
      </trkpt>
      <trkpt lat="41.056767" lon="-3.739533">
        <ele>2042.0</ele>
        <time>2015-09-27T11:36:37Z</time>
      </trkpt>
      <trkpt lat="41.056633" lon="-3.739700">
        <ele>2042.0</ele>
        <time>2015-09-27T11:36:39Z</time>
      </trkpt>
      <trkpt lat="41.056467" lon="-3.739850">
        <ele>2042.0</ele>
        <time>2015-09-27T11:36:41Z</time>
      </trkpt>
      <trkpt lat="41.056283" lon="-3.739983">
        <ele>2041.0</ele>
        <time>2015-09-27T11:36:43Z</time>
      </trkpt>
      <trkpt lat="41.056117" lon="-3.740133">
        <ele>2038.0</ele>
        <time>2015-09-27T11:36:45Z</time>
      </trkpt>
      <trkpt lat="41.055950" lon="-3.740283">
        <ele>2036.0</ele>
        <time>2015-09-27T11:36:47Z</time>
      </trkpt>
      <trkpt lat="41.055800" lon="-3.740433">
        <ele>2034.0</ele>
        <time>2015-09-27T11:36:49Z</time>
      </trkpt>
      <trkpt lat="41.055633" lon="-3.740550">
        <ele>2033.0</ele>
        <time>2015-09-27T11:36:51Z</time>
      </trkpt>
      <trkpt lat="41.055467" lon="-3.740650">
        <ele>2030.0</ele>
        <time>2015-09-27T11:36:53Z</time>
      </trkpt>
      <trkpt lat="41.055267" lon="-3.740733">
        <ele>2027.0</ele>
        <time>2015-09-27T11:36:55Z</time>
      </trkpt>
      <trkpt lat="41.055033" lon="-3.740817">
        <ele>2025.0</ele>
        <time>2015-09-27T11:36:57Z</time>
      </trkpt>
      <trkpt lat="41.054800" lon="-3.740883">
        <ele>2025.0</ele>
        <time>2015-09-27T11:36:59Z</time>
      </trkpt>
      <trkpt lat="41.054567" lon="-3.740967">
        <ele>2023.0</ele>
        <time>2015-09-27T11:37:01Z</time>
      </trkpt>
      <trkpt lat="41.054300" lon="-3.741050">
        <ele>2021.0</ele>
        <time>2015-09-27T11:37:03Z</time>
      </trkpt>
      <trkpt lat="41.054050" lon="-3.741133">
        <ele>2021.0</ele>
        <time>2015-09-27T11:37:05Z</time>
      </trkpt>
      <trkpt lat="41.053800" lon="-3.741200">
        <ele>2022.0</ele>
        <time>2015-09-27T11:37:07Z</time>
      </trkpt>
      <trkpt lat="41.053533" lon="-3.741250">
        <ele>2023.0</ele>
        <time>2015-09-27T11:37:09Z</time>
      </trkpt>
      <trkpt lat="41.053283" lon="-3.741317">
        <ele>2023.0</ele>
        <time>2015-09-27T11:37:11Z</time>
      </trkpt>
      <trkpt lat="41.053017" lon="-3.741400">
        <ele>2023.0</ele>
        <time>2015-09-27T11:37:13Z</time>
      </trkpt>
      <trkpt lat="41.052783" lon="-3.741467">
        <ele>2024.0</ele>
        <time>2015-09-27T11:37:15Z</time>
      </trkpt>
      <trkpt lat="41.052517" lon="-3.741533">
        <ele>2025.0</ele>
        <time>2015-09-27T11:37:17Z</time>
      </trkpt>
      <trkpt lat="41.052300" lon="-3.741600">
        <ele>2028.0</ele>
        <time>2015-09-27T11:37:19Z</time>
      </trkpt>
      <trkpt lat="41.052150" lon="-3.741717">
        <ele>2030.0</ele>
        <time>2015-09-27T11:37:21Z</time>
      </trkpt>
      <trkpt lat="41.052067" lon="-3.741867">
        <ele>2030.0</ele>
        <time>2015-09-27T11:37:23Z</time>
      </trkpt>
      <trkpt lat="41.052033" lon="-3.742000">
        <ele>2029.0</ele>
        <time>2015-09-27T11:37:25Z</time>
      </trkpt>
      <trkpt lat="41.052083" lon="-3.742100">
        <ele>2030.0</ele>
        <time>2015-09-27T11:37:27Z</time>
      </trkpt>
      <trkpt lat="41.052117" lon="-3.742183">
        <ele>2031.0</ele>
        <time>2015-09-27T11:37:29Z</time>
      </trkpt>
      <trkpt lat="41.052133" lon="-3.742267">
        <ele>2031.0</ele>
        <time>2015-09-27T11:37:31Z</time>
      </trkpt>
      <trkpt lat="41.052167" lon="-3.742350">
        <ele>2029.0</ele>
        <time>2015-09-27T11:37:33Z</time>
      </trkpt>
      <trkpt lat="41.052217" lon="-3.742450">
        <ele>2029.0</ele>
        <time>2015-09-27T11:37:35Z</time>
      </trkpt>
      <trkpt lat="41.052267" lon="-3.742533">
        <ele>2030.0</ele>
        <time>2015-09-27T11:37:37Z</time>
      </trkpt>
      <trkpt lat="41.052317" lon="-3.742600">
        <ele>2030.0</ele>
        <time>2015-09-27T11:37:39Z</time>
      </trkpt>
      <trkpt lat="41.052367" lon="-3.742683">
        <ele>2031.0</ele>
        <time>2015-09-27T11:37:41Z</time>
      </trkpt>
      <trkpt lat="41.052400" lon="-3.742767">
        <ele>2032.0</ele>
        <time>2015-09-27T11:37:43Z</time>
      </trkpt>
      <trkpt lat="41.052433" lon="-3.742850">
        <ele>2032.0</ele>
        <time>2015-09-27T11:37:45Z</time>
      </trkpt>
      <trkpt lat="41.052467" lon="-3.742967">
        <ele>2032.0</ele>
        <time>2015-09-27T11:37:47Z</time>
      </trkpt>
      <trkpt lat="41.052500" lon="-3.743083">
        <ele>2034.0</ele>
        <time>2015-09-27T11:37:49Z</time>
      </trkpt>
      <trkpt lat="41.052517" lon="-3.743183">
        <ele>2036.0</ele>
        <time>2015-09-27T11:37:51Z</time>
      </trkpt>
      <trkpt lat="41.052533" lon="-3.743300">
        <ele>2036.0</ele>
        <time>2015-09-27T11:37:53Z</time>
      </trkpt>
      <trkpt lat="41.052583" lon="-3.743383">
        <ele>2038.0</ele>
        <time>2015-09-27T11:37:55Z</time>
      </trkpt>
      <trkpt lat="41.052650" lon="-3.743417">
        <ele>2040.0</ele>
        <time>2015-09-27T11:37:57Z</time>
      </trkpt>
      <trkpt lat="41.052733" lon="-3.743383">
        <ele>2041.0</ele>
        <time>2015-09-27T11:37:59Z</time>
      </trkpt>
      <trkpt lat="41.052833" lon="-3.743300">
        <ele>2042.0</ele>
        <time>2015-09-27T11:38:01Z</time>
      </trkpt>
      <trkpt lat="41.052917" lon="-3.743217">
        <ele>2045.0</ele>
        <time>2015-09-27T11:38:03Z</time>
      </trkpt>
      <trkpt lat="41.053000" lon="-3.743167">
        <ele>2047.0</ele>
        <time>2015-09-27T11:38:05Z</time>
      </trkpt>
      <trkpt lat="41.053083" lon="-3.743083">
        <ele>2048.0</ele>
        <time>2015-09-27T11:38:07Z</time>
      </trkpt>
      <trkpt lat="41.053133" lon="-3.743017">
        <ele>2049.0</ele>
        <time>2015-09-27T11:38:09Z</time>
      </trkpt>
      <trkpt lat="41.053217" lon="-3.742983">
        <ele>2046.0</ele>
        <time>2015-09-27T11:38:11Z</time>
      </trkpt>
      <trkpt lat="41.053300" lon="-3.742967">
        <ele>2046.0</ele>
        <time>2015-09-27T11:38:13Z</time>
      </trkpt>
      <trkpt lat="41.053367" lon="-3.742967">
        <ele>2047.0</ele>
        <time>2015-09-27T11:38:15Z</time>
      </trkpt>
      <trkpt lat="41.053417" lon="-3.743000">
        <ele>2045.0</ele>
        <time>2015-09-27T11:38:17Z</time>
      </trkpt>
      <trkpt lat="41.053467" lon="-3.743033">
        <ele>2044.0</ele>
        <time>2015-09-27T11:38:19Z</time>
      </trkpt>
      <trkpt lat="41.053517" lon="-3.743083">
        <ele>2042.0</ele>
        <time>2015-09-27T11:38:21Z</time>
      </trkpt>
      <trkpt lat="41.053567" lon="-3.743167">
        <ele>2039.0</ele>
        <time>2015-09-27T11:38:23Z</time>
      </trkpt>
      <trkpt lat="41.053600" lon="-3.743267">
        <ele>2036.0</ele>
        <time>2015-09-27T11:38:25Z</time>
      </trkpt>
      <trkpt lat="41.053617" lon="-3.743383">
        <ele>2033.0</ele>
        <time>2015-09-27T11:38:27Z</time>
      </trkpt>
      <trkpt lat="41.053600" lon="-3.743550">
        <ele>2031.0</ele>
        <time>2015-09-27T11:38:29Z</time>
      </trkpt>
      <trkpt lat="41.053567" lon="-3.743683">
        <ele>2030.0</ele>
        <time>2015-09-27T11:38:31Z</time>
      </trkpt>
      <trkpt lat="41.053533" lon="-3.743817">
        <ele>2027.0</ele>
        <time>2015-09-27T11:38:33Z</time>
      </trkpt>
      <trkpt lat="41.053483" lon="-3.743967">
        <ele>2024.0</ele>
        <time>2015-09-27T11:38:35Z</time>
      </trkpt>
      <trkpt lat="41.053433" lon="-3.744150">
        <ele>2023.0</ele>
        <time>2015-09-27T11:38:37Z</time>
      </trkpt>
      <trkpt lat="41.053367" lon="-3.744300">
        <ele>2024.0</ele>
        <time>2015-09-27T11:38:39Z</time>
      </trkpt>
      <trkpt lat="41.053300" lon="-3.744467">
        <ele>2023.0</ele>
        <time>2015-09-27T11:38:41Z</time>
      </trkpt>
      <trkpt lat="41.053233" lon="-3.744633">
        <ele>2023.0</ele>
        <time>2015-09-27T11:38:43Z</time>
      </trkpt>
      <trkpt lat="41.053150" lon="-3.744750">
        <ele>2023.0</ele>
        <time>2015-09-27T11:38:45Z</time>
      </trkpt>
      <trkpt lat="41.053067" lon="-3.744900">
        <ele>2019.0</ele>
        <time>2015-09-27T11:38:47Z</time>
      </trkpt>
      <trkpt lat="41.052967" lon="-3.745133">
        <ele>2018.0</ele>
        <time>2015-09-27T11:38:49Z</time>
      </trkpt>
      <trkpt lat="41.052883" lon="-3.745300">
        <ele>2024.0</ele>
        <time>2015-09-27T11:38:51Z</time>
      </trkpt>
      <trkpt lat="41.052817" lon="-3.745433">
        <ele>2026.0</ele>
        <time>2015-09-27T11:38:53Z</time>
      </trkpt>
      <trkpt lat="41.052767" lon="-3.745617">
        <ele>2026.0</ele>
        <time>2015-09-27T11:38:55Z</time>
      </trkpt>
      <trkpt lat="41.052783" lon="-3.745783">
        <ele>2029.0</ele>
        <time>2015-09-27T11:38:57Z</time>
      </trkpt>
      <trkpt lat="41.052817" lon="-3.745900">
        <ele>2031.0</ele>
        <time>2015-09-27T11:38:59Z</time>
      </trkpt>
      <trkpt lat="41.052867" lon="-3.745950">
        <ele>2031.0</ele>
        <time>2015-09-27T11:39:01Z</time>
      </trkpt>
      <trkpt lat="41.052950" lon="-3.745883">
        <ele>2031.0</ele>
        <time>2015-09-27T11:39:03Z</time>
      </trkpt>
      <trkpt lat="41.053000" lon="-3.745783">
        <ele>2032.0</ele>
        <time>2015-09-27T11:39:05Z</time>
      </trkpt>
      <trkpt lat="41.053033" lon="-3.745633">
        <ele>2033.0</ele>
        <time>2015-09-27T11:39:07Z</time>
      </trkpt>
      <trkpt lat="41.053033" lon="-3.745383">
        <ele>2030.0</ele>
        <time>2015-09-27T11:39:09Z</time>
      </trkpt>
      <trkpt lat="41.052933" lon="-3.745083">
        <ele>2029.0</ele>
        <time>2015-09-27T11:39:11Z</time>
      </trkpt>
      <trkpt lat="41.052700" lon="-3.744850">
        <ele>2027.0</ele>
        <time>2015-09-27T11:39:13Z</time>
      </trkpt>
      <trkpt lat="41.052400" lon="-3.744767">
        <ele>2028.0</ele>
        <time>2015-09-27T11:39:15Z</time>
      </trkpt>
      <trkpt lat="41.052150" lon="-3.744817">
        <ele>2029.0</ele>
        <time>2015-09-27T11:39:17Z</time>
      </trkpt>
      <trkpt lat="41.051950" lon="-3.744950">
        <ele>2029.0</ele>
        <time>2015-09-27T11:39:19Z</time>
      </trkpt>
      <trkpt lat="41.051800" lon="-3.745133">
        <ele>2028.0</ele>
        <time>2015-09-27T11:39:21Z</time>
      </trkpt>
      <trkpt lat="41.051633" lon="-3.745300">
        <ele>2032.0</ele>
        <time>2015-09-27T11:39:23Z</time>
      </trkpt>
      <trkpt lat="41.051500" lon="-3.745483">
        <ele>2035.0</ele>
        <time>2015-09-27T11:39:25Z</time>
      </trkpt>
      <trkpt lat="41.051367" lon="-3.745683">
        <ele>2039.0</ele>
        <time>2015-09-27T11:39:27Z</time>
      </trkpt>
      <trkpt lat="41.051233" lon="-3.745883">
        <ele>2044.0</ele>
        <time>2015-09-27T11:39:29Z</time>
      </trkpt>
      <trkpt lat="41.051150" lon="-3.746083">
        <ele>2048.0</ele>
        <time>2015-09-27T11:39:31Z</time>
      </trkpt>
      <trkpt lat="41.051133" lon="-3.746300">
        <ele>2052.0</ele>
        <time>2015-09-27T11:39:33Z</time>
      </trkpt>
      <trkpt lat="41.051133" lon="-3.746467">
        <ele>2061.0</ele>
        <time>2015-09-27T11:39:35Z</time>
      </trkpt>
      <trkpt lat="41.051167" lon="-3.746533">
        <ele>2066.0</ele>
        <time>2015-09-27T11:39:37Z</time>
      </trkpt>
      <trkpt lat="41.051233" lon="-3.746633">
        <ele>2071.0</ele>
        <time>2015-09-27T11:39:39Z</time>
      </trkpt>
      <trkpt lat="41.051333" lon="-3.746650">
        <ele>2075.0</ele>
        <time>2015-09-27T11:39:41Z</time>
      </trkpt>
      <trkpt lat="41.051433" lon="-3.746550">
        <ele>2080.0</ele>
        <time>2015-09-27T11:39:43Z</time>
      </trkpt>
      <trkpt lat="41.051467" lon="-3.746383">
        <ele>2084.0</ele>
        <time>2015-09-27T11:39:45Z</time>
      </trkpt>
      <trkpt lat="41.051417" lon="-3.746117">
        <ele>2085.0</ele>
        <time>2015-09-27T11:39:47Z</time>
      </trkpt>
      <trkpt lat="41.051250" lon="-3.745850">
        <ele>2087.0</ele>
        <time>2015-09-27T11:39:49Z</time>
      </trkpt>
      <trkpt lat="41.051000" lon="-3.745683">
        <ele>2091.0</ele>
        <time>2015-09-27T11:39:51Z</time>
      </trkpt>
      <trkpt lat="41.050717" lon="-3.745667">
        <ele>2098.0</ele>
        <time>2015-09-27T11:39:53Z</time>
      </trkpt>
      <trkpt lat="41.050500" lon="-3.745733">
        <ele>2106.0</ele>
        <time>2015-09-27T11:39:55Z</time>
      </trkpt>
      <trkpt lat="41.050300" lon="-3.745833">
        <ele>2111.0</ele>
        <time>2015-09-27T11:39:57Z</time>
      </trkpt>
      <trkpt lat="41.050117" lon="-3.746000">
        <ele>2115.0</ele>
        <time>2015-09-27T11:39:59Z</time>
      </trkpt>
      <trkpt lat="41.049933" lon="-3.746133">
        <ele>2122.0</ele>
        <time>2015-09-27T11:40:01Z</time>
      </trkpt>
      <trkpt lat="41.049833" lon="-3.746267">
        <ele>2126.0</ele>
        <time>2015-09-27T11:40:03Z</time>
      </trkpt>
      <trkpt lat="41.049817" lon="-3.746450">
        <ele>2127.0</ele>
        <time>2015-09-27T11:40:05Z</time>
      </trkpt>
      <trkpt lat="41.049883" lon="-3.746550">
        <ele>2130.0</ele>
        <time>2015-09-27T11:40:07Z</time>
      </trkpt>
      <trkpt lat="41.049983" lon="-3.746550">
        <ele>2132.0</ele>
        <time>2015-09-27T11:40:09Z</time>
      </trkpt>
      <trkpt lat="41.050117" lon="-3.746417">
        <ele>2135.0</ele>
        <time>2015-09-27T11:40:11Z</time>
      </trkpt>
      <trkpt lat="41.050150" lon="-3.746200">
        <ele>2142.0</ele>
        <time>2015-09-27T11:40:13Z</time>
      </trkpt>
      <trkpt lat="41.050167" lon="-3.746050">
        <ele>2144.0</ele>
        <time>2015-09-27T11:40:15Z</time>
      </trkpt>
      <trkpt lat="41.050183" lon="-3.745817">
        <ele>2140.0</ele>
        <time>2015-09-27T11:40:17Z</time>
      </trkpt>
      <trkpt lat="41.050017" lon="-3.745483">
        <ele>2138.0</ele>
        <time>2015-09-27T11:40:19Z</time>
      </trkpt>
      <trkpt lat="41.049800" lon="-3.745250">
        <ele>2143.0</ele>
        <time>2015-09-27T11:40:21Z</time>
      </trkpt>
      <trkpt lat="41.049617" lon="-3.745083">
        <ele>2146.0</ele>
        <time>2015-09-27T11:40:23Z</time>
      </trkpt>
      <trkpt lat="41.049350" lon="-3.744917">
        <ele>2146.0</ele>
        <time>2015-09-27T11:40:25Z</time>
      </trkpt>
      <trkpt lat="41.049067" lon="-3.744900">
        <ele>2151.0</ele>
        <time>2015-09-27T11:40:27Z</time>
      </trkpt>
      <trkpt lat="41.048850" lon="-3.744983">
        <ele>2159.0</ele>
        <time>2015-09-27T11:40:29Z</time>
      </trkpt>
      <trkpt lat="41.048733" lon="-3.745083">
        <ele>2161.0</ele>
        <time>2015-09-27T11:40:31Z</time>
      </trkpt>
      <trkpt lat="41.048617" lon="-3.745250">
        <ele>2160.0</ele>
        <time>2015-09-27T11:40:33Z</time>
      </trkpt>
      <trkpt lat="41.048567" lon="-3.745417">
        <ele>2161.0</ele>
        <time>2015-09-27T11:40:35Z</time>
      </trkpt>
      <trkpt lat="41.048583" lon="-3.745550">
        <ele>2164.0</ele>
        <time>2015-09-27T11:40:37Z</time>
      </trkpt>
      <trkpt lat="41.048617" lon="-3.745650">
        <ele>2164.0</ele>
        <time>2015-09-27T11:40:39Z</time>
      </trkpt>
      <trkpt lat="41.048683" lon="-3.745783">
        <ele>2161.0</ele>
        <time>2015-09-27T11:40:41Z</time>
      </trkpt>
      <trkpt lat="41.048783" lon="-3.745933">
        <ele>2162.0</ele>
        <time>2015-09-27T11:40:43Z</time>
      </trkpt>
      <trkpt lat="41.048883" lon="-3.746017">
        <ele>2164.0</ele>
        <time>2015-09-27T11:40:45Z</time>
      </trkpt>
      <trkpt lat="41.049017" lon="-3.746067">
        <ele>2165.0</ele>
        <time>2015-09-27T11:40:47Z</time>
      </trkpt>
      <trkpt lat="41.049150" lon="-3.746067">
        <ele>2166.0</ele>
        <time>2015-09-27T11:40:49Z</time>
      </trkpt>
      <trkpt lat="41.049283" lon="-3.746017">
        <ele>2170.0</ele>
        <time>2015-09-27T11:40:51Z</time>
      </trkpt>
      <trkpt lat="41.049400" lon="-3.745900">
        <ele>2172.0</ele>
        <time>2015-09-27T11:40:53Z</time>
      </trkpt>
      <trkpt lat="41.049500" lon="-3.745683">
        <ele>2173.0</ele>
        <time>2015-09-27T11:40:55Z</time>
      </trkpt>
      <trkpt lat="41.049550" lon="-3.745450">
        <ele>2175.0</ele>
        <time>2015-09-27T11:40:57Z</time>
      </trkpt>
      <trkpt lat="41.049550" lon="-3.745200">
        <ele>2174.0</ele>
        <time>2015-09-27T11:40:59Z</time>
      </trkpt>
      <trkpt lat="41.049500" lon="-3.744883">
        <ele>2171.0</ele>
        <time>2015-09-27T11:41:01Z</time>
      </trkpt>
      <trkpt lat="41.049367" lon="-3.744550">
        <ele>2170.0</ele>
        <time>2015-09-27T11:41:03Z</time>
      </trkpt>
      <trkpt lat="41.049167" lon="-3.744317">
        <ele>2169.0</ele>
        <time>2015-09-27T11:41:05Z</time>
      </trkpt>
      <trkpt lat="41.048917" lon="-3.744150">
        <ele>2166.0</ele>
        <time>2015-09-27T11:41:07Z</time>
      </trkpt>
      <trkpt lat="41.048667" lon="-3.744117">
        <ele>2165.0</ele>
        <time>2015-09-27T11:41:09Z</time>
      </trkpt>
      <trkpt lat="41.048450" lon="-3.744150">
        <ele>2167.0</ele>
        <time>2015-09-27T11:41:11Z</time>
      </trkpt>
      <trkpt lat="41.048267" lon="-3.744233">
        <ele>2169.0</ele>
        <time>2015-09-27T11:41:13Z</time>
      </trkpt>
      <trkpt lat="41.048117" lon="-3.744350">
        <ele>2170.0</ele>
        <time>2015-09-27T11:41:15Z</time>
      </trkpt>
      <trkpt lat="41.047983" lon="-3.744483">
        <ele>2170.0</ele>
        <time>2015-09-27T11:41:17Z</time>
      </trkpt>
      <trkpt lat="41.047867" lon="-3.744600">
        <ele>2171.0</ele>
        <time>2015-09-27T11:41:19Z</time>
      </trkpt>
      <trkpt lat="41.047750" lon="-3.744767">
        <ele>2173.0</ele>
        <time>2015-09-27T11:41:21Z</time>
      </trkpt>
      <trkpt lat="41.047617" lon="-3.744900">
        <ele>2175.0</ele>
        <time>2015-09-27T11:41:23Z</time>
      </trkpt>
      <trkpt lat="41.047467" lon="-3.745017">
        <ele>2176.0</ele>
        <time>2015-09-27T11:41:25Z</time>
      </trkpt>
      <trkpt lat="41.047333" lon="-3.745200">
        <ele>2177.0</ele>
        <time>2015-09-27T11:41:27Z</time>
      </trkpt>
      <trkpt lat="41.047233" lon="-3.745367">
        <ele>2182.0</ele>
        <time>2015-09-27T11:41:29Z</time>
      </trkpt>
      <trkpt lat="41.047133" lon="-3.745517">
        <ele>2186.0</ele>
        <time>2015-09-27T11:41:31Z</time>
      </trkpt>
      <trkpt lat="41.047033" lon="-3.745683">
        <ele>2189.0</ele>
        <time>2015-09-27T11:41:33Z</time>
      </trkpt>
      <trkpt lat="41.046967" lon="-3.745867">
        <ele>2195.0</ele>
        <time>2015-09-27T11:41:35Z</time>
      </trkpt>
      <trkpt lat="41.046967" lon="-3.745983">
        <ele>2202.0</ele>
        <time>2015-09-27T11:41:37Z</time>
      </trkpt>
      <trkpt lat="41.046983" lon="-3.746050">
        <ele>2206.0</ele>
        <time>2015-09-27T11:41:39Z</time>
      </trkpt>
      <trkpt lat="41.047083" lon="-3.746033">
        <ele>2207.0</ele>
        <time>2015-09-27T11:41:41Z</time>
      </trkpt>
      <trkpt lat="41.047200" lon="-3.745917">
        <ele>2211.0</ele>
        <time>2015-09-27T11:41:43Z</time>
      </trkpt>
      <trkpt lat="41.047283" lon="-3.745700">
        <ele>2218.0</ele>
        <time>2015-09-27T11:41:45Z</time>
      </trkpt>
      <trkpt lat="41.047267" lon="-3.745400">
        <ele>2220.0</ele>
        <time>2015-09-27T11:41:47Z</time>
      </trkpt>
      <trkpt lat="41.047167" lon="-3.745083">
        <ele>2222.0</ele>
        <time>2015-09-27T11:41:49Z</time>
      </trkpt>
      <trkpt lat="41.046950" lon="-3.744833">
        <ele>2224.0</ele>
        <time>2015-09-27T11:41:51Z</time>
      </trkpt>
      <trkpt lat="41.046700" lon="-3.744717">
        <ele>2226.0</ele>
        <time>2015-09-27T11:41:53Z</time>
      </trkpt>
      <trkpt lat="41.046467" lon="-3.744733">
        <ele>2227.0</ele>
        <time>2015-09-27T11:41:55Z</time>
      </trkpt>
      <trkpt lat="41.046283" lon="-3.744850">
        <ele>2231.0</ele>
        <time>2015-09-27T11:41:57Z</time>
      </trkpt>
      <trkpt lat="41.046167" lon="-3.744950">
        <ele>2236.0</ele>
        <time>2015-09-27T11:41:59Z</time>
      </trkpt>
      <trkpt lat="41.046067" lon="-3.745083">
        <ele>2237.0</ele>
        <time>2015-09-27T11:42:01Z</time>
      </trkpt>
      <trkpt lat="41.046017" lon="-3.745250">
        <ele>2240.0</ele>
        <time>2015-09-27T11:42:03Z</time>
      </trkpt>
      <trkpt lat="41.045950" lon="-3.745433">
        <ele>2250.0</ele>
        <time>2015-09-27T11:42:05Z</time>
      </trkpt>
      <trkpt lat="41.045883" lon="-3.745517">
        <ele>2255.0</ele>
        <time>2015-09-27T11:42:07Z</time>
      </trkpt>
      <trkpt lat="41.045833" lon="-3.745633">
        <ele>2255.0</ele>
        <time>2015-09-27T11:42:09Z</time>
      </trkpt>
      <trkpt lat="41.045817" lon="-3.745750">
        <ele>2258.0</ele>
        <time>2015-09-27T11:42:11Z</time>
      </trkpt>
      <trkpt lat="41.045817" lon="-3.745833">
        <ele>2263.0</ele>
        <time>2015-09-27T11:42:13Z</time>
      </trkpt>
      <trkpt lat="41.045883" lon="-3.745900">
        <ele>2267.0</ele>
        <time>2015-09-27T11:42:15Z</time>
      </trkpt>
      <trkpt lat="41.046000" lon="-3.745917">
        <ele>2270.0</ele>
        <time>2015-09-27T11:42:17Z</time>
      </trkpt>
      <trkpt lat="41.046133" lon="-3.745850">
        <ele>2278.0</ele>
        <time>2015-09-27T11:42:19Z</time>
      </trkpt>
      <trkpt lat="41.046250" lon="-3.745767">
        <ele>2284.0</ele>
        <time>2015-09-27T11:42:21Z</time>
      </trkpt>
      <trkpt lat="41.046383" lon="-3.745617">
        <ele>2285.0</ele>
        <time>2015-09-27T11:42:23Z</time>
      </trkpt>
      <trkpt lat="41.046467" lon="-3.745333">
        <ele>2288.0</ele>
        <time>2015-09-27T11:42:25Z</time>
      </trkpt>
      <trkpt lat="41.046467" lon="-3.745050">
        <ele>2290.0</ele>
        <time>2015-09-27T11:42:27Z</time>
      </trkpt>
      <trkpt lat="41.046383" lon="-3.744733">
        <ele>2289.0</ele>
        <time>2015-09-27T11:42:29Z</time>
      </trkpt>
      <trkpt lat="41.046183" lon="-3.744450">
        <ele>2285.0</ele>
        <time>2015-09-27T11:42:31Z</time>
      </trkpt>
      <trkpt lat="41.045950" lon="-3.744333">
        <ele>2286.0</ele>
        <time>2015-09-27T11:42:33Z</time>
      </trkpt>
      <trkpt lat="41.045750" lon="-3.744317">
        <ele>2289.0</ele>
        <time>2015-09-27T11:42:35Z</time>
      </trkpt>
      <trkpt lat="41.045600" lon="-3.744367">
        <ele>2290.0</ele>
        <time>2015-09-27T11:42:37Z</time>
      </trkpt>
      <trkpt lat="41.045467" lon="-3.744517">
        <ele>2292.0</ele>
        <time>2015-09-27T11:42:39Z</time>
      </trkpt>
      <trkpt lat="41.045350" lon="-3.744633">
        <ele>2297.0</ele>
        <time>2015-09-27T11:42:41Z</time>
      </trkpt>
      <trkpt lat="41.045233" lon="-3.744767">
        <ele>2302.0</ele>
        <time>2015-09-27T11:42:43Z</time>
      </trkpt>
      <trkpt lat="41.045100" lon="-3.744917">
        <ele>2309.0</ele>
        <time>2015-09-27T11:42:45Z</time>
      </trkpt>
      <trkpt lat="41.045000" lon="-3.745000">
        <ele>2315.0</ele>
        <time>2015-09-27T11:42:47Z</time>
      </trkpt>
      <trkpt lat="41.044900" lon="-3.745117">
        <ele>2320.0</ele>
        <time>2015-09-27T11:42:49Z</time>
      </trkpt>
      <trkpt lat="41.044817" lon="-3.745250">
        <ele>2324.0</ele>
        <time>2015-09-27T11:42:51Z</time>
      </trkpt>
      <trkpt lat="41.044767" lon="-3.745383">
        <ele>2329.0</ele>
        <time>2015-09-27T11:42:53Z</time>
      </trkpt>
      <trkpt lat="41.044700" lon="-3.745483">
        <ele>2335.0</ele>
        <time>2015-09-27T11:42:55Z</time>
      </trkpt>
      <trkpt lat="41.044600" lon="-3.745617">
        <ele>2340.0</ele>
        <time>2015-09-27T11:42:57Z</time>
      </trkpt>
      <trkpt lat="41.044550" lon="-3.745717">
        <ele>2345.0</ele>
        <time>2015-09-27T11:42:59Z</time>
      </trkpt>
      <trkpt lat="41.044500" lon="-3.745833">
        <ele>2349.0</ele>
        <time>2015-09-27T11:43:01Z</time>
      </trkpt>
      <trkpt lat="41.044467" lon="-3.745917">
        <ele>2353.0</ele>
        <time>2015-09-27T11:43:03Z</time>
      </trkpt>
      <trkpt lat="41.044483" lon="-3.746017">
        <ele>2357.0</ele>
        <time>2015-09-27T11:43:05Z</time>
      </trkpt>
      <trkpt lat="41.044533" lon="-3.746083">
        <ele>2360.0</ele>
        <time>2015-09-27T11:43:07Z</time>
      </trkpt>
      <trkpt lat="41.044617" lon="-3.746167">
        <ele>2366.0</ele>
        <time>2015-09-27T11:43:09Z</time>
      </trkpt>
      <trkpt lat="41.044717" lon="-3.746200">
        <ele>2372.0</ele>
        <time>2015-09-27T11:43:11Z</time>
      </trkpt>
      <trkpt lat="41.044833" lon="-3.746183">
        <ele>2381.0</ele>
        <time>2015-09-27T11:43:13Z</time>
      </trkpt>
      <trkpt lat="41.044933" lon="-3.746117">
        <ele>2390.0</ele>
        <time>2015-09-27T11:43:15Z</time>
      </trkpt>
      <trkpt lat="41.045017" lon="-3.745967">
        <ele>2393.0</ele>
        <time>2015-09-27T11:43:17Z</time>
      </trkpt>
      <trkpt lat="41.045117" lon="-3.745833">
        <ele>2398.0</ele>
        <time>2015-09-27T11:43:19Z</time>
      </trkpt>
      <trkpt lat="41.045217" lon="-3.745800">
        <ele>2403.0</ele>
        <time>2015-09-27T11:43:21Z</time>
      </trkpt>
      <trkpt lat="41.045300" lon="-3.745800">
        <ele>2407.0</ele>
        <time>2015-09-27T11:43:23Z</time>
      </trkpt>
      <trkpt lat="41.045350" lon="-3.745883">
        <ele>2410.0</ele>
        <time>2015-09-27T11:43:25Z</time>
      </trkpt>
      <trkpt lat="41.045367" lon="-3.746017">
        <ele>2413.0</ele>
        <time>2015-09-27T11:43:27Z</time>
      </trkpt>
      <trkpt lat="41.045333" lon="-3.746150">
        <ele>2419.0</ele>
        <time>2015-09-27T11:43:29Z</time>
      </trkpt>
      <trkpt lat="41.045300" lon="-3.746283">
        <ele>2424.0</ele>
        <time>2015-09-27T11:43:31Z</time>
      </trkpt>
      <trkpt lat="41.045250" lon="-3.746417">
        <ele>2428.0</ele>
        <time>2015-09-27T11:43:33Z</time>
      </trkpt>
      <trkpt lat="41.045167" lon="-3.746567">
        <ele>2433.0</ele>
        <time>2015-09-27T11:43:35Z</time>
      </trkpt>
      <trkpt lat="41.045083" lon="-3.746700">
        <ele>2437.0</ele>
        <time>2015-09-27T11:43:37Z</time>
      </trkpt>
      <trkpt lat="41.044983" lon="-3.746850">
        <ele>2440.0</ele>
        <time>2015-09-27T11:43:39Z</time>
      </trkpt>
      <trkpt lat="41.044883" lon="-3.747000">
        <ele>2444.0</ele>
        <time>2015-09-27T11:43:41Z</time>
      </trkpt>
      <trkpt lat="41.044767" lon="-3.747167">
        <ele>2448.0</ele>
        <time>2015-09-27T11:43:43Z</time>
      </trkpt>
      <trkpt lat="41.044683" lon="-3.747333">
        <ele>2454.0</ele>
        <time>2015-09-27T11:43:45Z</time>
      </trkpt>
      <trkpt lat="41.044600" lon="-3.747467">
        <ele>2464.0</ele>
        <time>2015-09-27T11:43:47Z</time>
      </trkpt>
      <trkpt lat="41.044517" lon="-3.747600">
        <ele>2470.0</ele>
        <time>2015-09-27T11:43:49Z</time>
      </trkpt>
      <trkpt lat="41.044433" lon="-3.747750">
        <ele>2475.0</ele>
        <time>2015-09-27T11:43:51Z</time>
      </trkpt>
      <trkpt lat="41.044367" lon="-3.747917">
        <ele>2479.0</ele>
        <time>2015-09-27T11:43:53Z</time>
      </trkpt>
      <trkpt lat="41.044317" lon="-3.748100">
        <ele>2487.0</ele>
        <time>2015-09-27T11:43:55Z</time>
      </trkpt>
      <trkpt lat="41.044283" lon="-3.748250">
        <ele>2496.0</ele>
        <time>2015-09-27T11:43:57Z</time>
      </trkpt>
      <trkpt lat="41.044233" lon="-3.748400">
        <ele>2506.0</ele>
        <time>2015-09-27T11:43:59Z</time>
      </trkpt>
      <trkpt lat="41.044167" lon="-3.748500">
        <ele>2511.0</ele>
        <time>2015-09-27T11:44:01Z</time>
      </trkpt>
      <trkpt lat="41.044100" lon="-3.748617">
        <ele>2514.0</ele>
        <time>2015-09-27T11:44:03Z</time>
      </trkpt>
      <trkpt lat="41.044050" lon="-3.748767">
        <ele>2519.0</ele>
        <time>2015-09-27T11:44:05Z</time>
      </trkpt>
      <trkpt lat="41.044000" lon="-3.748917">
        <ele>2525.0</ele>
        <time>2015-09-27T11:44:07Z</time>
      </trkpt>
      <trkpt lat="41.043900" lon="-3.749067">
        <ele>2529.0</ele>
        <time>2015-09-27T11:44:09Z</time>
      </trkpt>
      <trkpt lat="41.043800" lon="-3.749217">
        <ele>2533.0</ele>
        <time>2015-09-27T11:44:11Z</time>
      </trkpt>
      <trkpt lat="41.043733" lon="-3.749383">
        <ele>2539.0</ele>
        <time>2015-09-27T11:44:13Z</time>
      </trkpt>
      <trkpt lat="41.043650" lon="-3.749533">
        <ele>2544.0</ele>
        <time>2015-09-27T11:44:15Z</time>
      </trkpt>
      <trkpt lat="41.043567" lon="-3.749683">
        <ele>2549.0</ele>
        <time>2015-09-27T11:44:17Z</time>
      </trkpt>
      <trkpt lat="41.043467" lon="-3.749800">
        <ele>2551.0</ele>
        <time>2015-09-27T11:44:19Z</time>
      </trkpt>
      <trkpt lat="41.043367" lon="-3.749933">
        <ele>2549.0</ele>
        <time>2015-09-27T11:44:21Z</time>
      </trkpt>
      <trkpt lat="41.043267" lon="-3.750083">
        <ele>2549.0</ele>
        <time>2015-09-27T11:44:23Z</time>
      </trkpt>
      <trkpt lat="41.043167" lon="-3.750183">
        <ele>2550.0</ele>
        <time>2015-09-27T11:44:25Z</time>
      </trkpt>
      <trkpt lat="41.043050" lon="-3.750300">
        <ele>2547.0</ele>
        <time>2015-09-27T11:44:27Z</time>
      </trkpt>
      <trkpt lat="41.042917" lon="-3.750467">
        <ele>2544.0</ele>
        <time>2015-09-27T11:44:29Z</time>
      </trkpt>
      <trkpt lat="41.042800" lon="-3.750583">
        <ele>2545.0</ele>
        <time>2015-09-27T11:44:31Z</time>
      </trkpt>
      <trkpt lat="41.042667" lon="-3.750667">
        <ele>2543.0</ele>
        <time>2015-09-27T11:44:33Z</time>
      </trkpt>
      <trkpt lat="41.042533" lon="-3.750767">
        <ele>2540.0</ele>
        <time>2015-09-27T11:44:35Z</time>
      </trkpt>
      <trkpt lat="41.042417" lon="-3.750850">
        <ele>2539.0</ele>
        <time>2015-09-27T11:44:37Z</time>
      </trkpt>
      <trkpt lat="41.042283" lon="-3.750933">
        <ele>2535.0</ele>
        <time>2015-09-27T11:44:39Z</time>
      </trkpt>
      <trkpt lat="41.042150" lon="-3.751050">
        <ele>2532.0</ele>
        <time>2015-09-27T11:44:41Z</time>
      </trkpt>
      <trkpt lat="41.042000" lon="-3.751183">
        <ele>2532.0</ele>
        <time>2015-09-27T11:44:43Z</time>
      </trkpt>
      <trkpt lat="41.041883" lon="-3.751300">
        <ele>2532.0</ele>
        <time>2015-09-27T11:44:45Z</time>
      </trkpt>
      <trkpt lat="41.041833" lon="-3.751417">
        <ele>2529.0</ele>
        <time>2015-09-27T11:44:47Z</time>
      </trkpt>
      <trkpt lat="41.041750" lon="-3.751517">
        <ele>2525.0</ele>
        <time>2015-09-27T11:44:49Z</time>
      </trkpt>
      <trkpt lat="41.041667" lon="-3.751633">
        <ele>2521.0</ele>
        <time>2015-09-27T11:44:51Z</time>
      </trkpt>
      <trkpt lat="41.041583" lon="-3.751733">
        <ele>2518.0</ele>
        <time>2015-09-27T11:44:53Z</time>
      </trkpt>
      <trkpt lat="41.041483" lon="-3.751833">
        <ele>2516.0</ele>
        <time>2015-09-27T11:44:55Z</time>
      </trkpt>
      <trkpt lat="41.041367" lon="-3.751950">
        <ele>2513.0</ele>
        <time>2015-09-27T11:44:57Z</time>
      </trkpt>
      <trkpt lat="41.041250" lon="-3.752033">
        <ele>2511.0</ele>
        <time>2015-09-27T11:44:59Z</time>
      </trkpt>
      <trkpt lat="41.041133" lon="-3.752117">
        <ele>2507.0</ele>
        <time>2015-09-27T11:45:01Z</time>
      </trkpt>
      <trkpt lat="41.041050" lon="-3.752217">
        <ele>2504.0</ele>
        <time>2015-09-27T11:45:03Z</time>
      </trkpt>
      <trkpt lat="41.040967" lon="-3.752317">
        <ele>2504.0</ele>
        <time>2015-09-27T11:45:05Z</time>
      </trkpt>
      <trkpt lat="41.040883" lon="-3.752383">
        <ele>2504.0</ele>
        <time>2015-09-27T11:45:07Z</time>
      </trkpt>
      <trkpt lat="41.040783" lon="-3.752450">
        <ele>2502.0</ele>
        <time>2015-09-27T11:45:09Z</time>
      </trkpt>
      <trkpt lat="41.040700" lon="-3.752550">
        <ele>2499.0</ele>
        <time>2015-09-27T11:45:11Z</time>
      </trkpt>
      <trkpt lat="41.040600" lon="-3.752683">
        <ele>2497.0</ele>
        <time>2015-09-27T11:45:13Z</time>
      </trkpt>
      <trkpt lat="41.040500" lon="-3.752833">
        <ele>2498.0</ele>
        <time>2015-09-27T11:45:15Z</time>
      </trkpt>
      <trkpt lat="41.040383" lon="-3.753000">
        <ele>2500.0</ele>
        <time>2015-09-27T11:45:17Z</time>
      </trkpt>
      <trkpt lat="41.040267" lon="-3.753117">
        <ele>2505.0</ele>
        <time>2015-09-27T11:45:19Z</time>
      </trkpt>
      <trkpt lat="41.040183" lon="-3.753217">
        <ele>2505.0</ele>
        <time>2015-09-27T11:45:21Z</time>
      </trkpt>
      <trkpt lat="41.040067" lon="-3.753367">
        <ele>2501.0</ele>
        <time>2015-09-27T11:45:23Z</time>
      </trkpt>
      <trkpt lat="41.039933" lon="-3.753550">
        <ele>2502.0</ele>
        <time>2015-09-27T11:45:25Z</time>
      </trkpt>
      <trkpt lat="41.039817" lon="-3.753683">
        <ele>2505.0</ele>
        <time>2015-09-27T11:45:27Z</time>
      </trkpt>
      <trkpt lat="41.039700" lon="-3.753817">
        <ele>2506.0</ele>
        <time>2015-09-27T11:45:29Z</time>
      </trkpt>
      <trkpt lat="41.039567" lon="-3.753950">
        <ele>2505.0</ele>
        <time>2015-09-27T11:45:31Z</time>
      </trkpt>
      <trkpt lat="41.039450" lon="-3.754067">
        <ele>2504.0</ele>
        <time>2015-09-27T11:45:33Z</time>
      </trkpt>
      <trkpt lat="41.039333" lon="-3.754183">
        <ele>2502.0</ele>
        <time>2015-09-27T11:45:35Z</time>
      </trkpt>
      <trkpt lat="41.039200" lon="-3.754300">
        <ele>2500.0</ele>
        <time>2015-09-27T11:45:37Z</time>
      </trkpt>
      <trkpt lat="41.039050" lon="-3.754417">
        <ele>2498.0</ele>
        <time>2015-09-27T11:45:39Z</time>
      </trkpt>
      <trkpt lat="41.038917" lon="-3.754567">
        <ele>2497.0</ele>
        <time>2015-09-27T11:45:41Z</time>
      </trkpt>
      <trkpt lat="41.038767" lon="-3.754667">
        <ele>2498.0</ele>
        <time>2015-09-27T11:45:43Z</time>
      </trkpt>
      <trkpt lat="41.038633" lon="-3.754800">
        <ele>2498.0</ele>
        <time>2015-09-27T11:45:45Z</time>
      </trkpt>
      <trkpt lat="41.038483" lon="-3.754917">
        <ele>2499.0</ele>
        <time>2015-09-27T11:45:47Z</time>
      </trkpt>
      <trkpt lat="41.038350" lon="-3.755000">
        <ele>2499.0</ele>
        <time>2015-09-27T11:45:49Z</time>
      </trkpt>
      <trkpt lat="41.038200" lon="-3.755117">
        <ele>2497.0</ele>
        <time>2015-09-27T11:45:51Z</time>
      </trkpt>
      <trkpt lat="41.038050" lon="-3.755267">
        <ele>2496.0</ele>
        <time>2015-09-27T11:45:53Z</time>
      </trkpt>
      <trkpt lat="41.037933" lon="-3.755383">
        <ele>2496.0</ele>
        <time>2015-09-27T11:45:55Z</time>
      </trkpt>
      <trkpt lat="41.037867" lon="-3.755483">
        <ele>2495.0</ele>
        <time>2015-09-27T11:45:57Z</time>
      </trkpt>
      <trkpt lat="41.037800" lon="-3.755617">
        <ele>2493.0</ele>
        <time>2015-09-27T11:45:59Z</time>
      </trkpt>
      <trkpt lat="41.037683" lon="-3.755750">
        <ele>2490.0</ele>
        <time>2015-09-27T11:46:01Z</time>
      </trkpt>
      <trkpt lat="41.037550" lon="-3.755833">
        <ele>2489.0</ele>
        <time>2015-09-27T11:46:03Z</time>
      </trkpt>
      <trkpt lat="41.037400" lon="-3.755900">
        <ele>2484.0</ele>
        <time>2015-09-27T11:46:05Z</time>
      </trkpt>
      <trkpt lat="41.037233" lon="-3.756033">
        <ele>2476.0</ele>
        <time>2015-09-27T11:46:07Z</time>
      </trkpt>
      <trkpt lat="41.037100" lon="-3.756167">
        <ele>2472.0</ele>
        <time>2015-09-27T11:46:09Z</time>
      </trkpt>
      <trkpt lat="41.036967" lon="-3.756250">
        <ele>2468.0</ele>
        <time>2015-09-27T11:46:11Z</time>
      </trkpt>
      <trkpt lat="41.036817" lon="-3.756383">
        <ele>2461.0</ele>
        <time>2015-09-27T11:46:13Z</time>
      </trkpt>
      <trkpt lat="41.036650" lon="-3.756517">
        <ele>2457.0</ele>
        <time>2015-09-27T11:46:15Z</time>
      </trkpt>
      <trkpt lat="41.036483" lon="-3.756600">
        <ele>2455.0</ele>
        <time>2015-09-27T11:46:17Z</time>
      </trkpt>
      <trkpt lat="41.036300" lon="-3.756667">
        <ele>2450.0</ele>
        <time>2015-09-27T11:46:19Z</time>
      </trkpt>
      <trkpt lat="41.036100" lon="-3.756767">
        <ele>2443.0</ele>
        <time>2015-09-27T11:46:21Z</time>
      </trkpt>
      <trkpt lat="41.035950" lon="-3.756917">
        <ele>2439.0</ele>
        <time>2015-09-27T11:46:23Z</time>
      </trkpt>
      <trkpt lat="41.035800" lon="-3.757050">
        <ele>2437.0</ele>
        <time>2015-09-27T11:46:25Z</time>
      </trkpt>
      <trkpt lat="41.035617" lon="-3.757183">
        <ele>2437.0</ele>
        <time>2015-09-27T11:46:27Z</time>
      </trkpt>
      <trkpt lat="41.035450" lon="-3.757300">
        <ele>2436.0</ele>
        <time>2015-09-27T11:46:29Z</time>
      </trkpt>
      <trkpt lat="41.035300" lon="-3.757450">
        <ele>2433.0</ele>
        <time>2015-09-27T11:46:31Z</time>
      </trkpt>
      <trkpt lat="41.035150" lon="-3.757617">
        <ele>2433.0</ele>
        <time>2015-09-27T11:46:33Z</time>
      </trkpt>
      <trkpt lat="41.035017" lon="-3.757767">
        <ele>2433.0</ele>
        <time>2015-09-27T11:46:35Z</time>
      </trkpt>
      <trkpt lat="41.034917" lon="-3.757933">
        <ele>2433.0</ele>
        <time>2015-09-27T11:46:37Z</time>
      </trkpt>
      <trkpt lat="41.034783" lon="-3.758100">
        <ele>2432.0</ele>
        <time>2015-09-27T11:46:39Z</time>
      </trkpt>
      <trkpt lat="41.034650" lon="-3.758267">
        <ele>2432.0</ele>
        <time>2015-09-27T11:46:41Z</time>
      </trkpt>
      <trkpt lat="41.034517" lon="-3.758417">
        <ele>2432.0</ele>
        <time>2015-09-27T11:46:43Z</time>
      </trkpt>
      <trkpt lat="41.034383" lon="-3.758583">
        <ele>2430.0</ele>
        <time>2015-09-27T11:46:45Z</time>
      </trkpt>
      <trkpt lat="41.034250" lon="-3.758733">
        <ele>2428.0</ele>
        <time>2015-09-27T11:46:47Z</time>
      </trkpt>
      <trkpt lat="41.034117" lon="-3.758883">
        <ele>2426.0</ele>
        <time>2015-09-27T11:46:49Z</time>
      </trkpt>
      <trkpt lat="41.033983" lon="-3.759033">
        <ele>2425.0</ele>
        <time>2015-09-27T11:46:51Z</time>
      </trkpt>
      <trkpt lat="41.033867" lon="-3.759200">
        <ele>2424.0</ele>
        <time>2015-09-27T11:46:53Z</time>
      </trkpt>
      <trkpt lat="41.033767" lon="-3.759367">
        <ele>2423.0</ele>
        <time>2015-09-27T11:46:55Z</time>
      </trkpt>
      <trkpt lat="41.033650" lon="-3.759533">
        <ele>2421.0</ele>
        <time>2015-09-27T11:46:57Z</time>
      </trkpt>
      <trkpt lat="41.033550" lon="-3.759717">
        <ele>2419.0</ele>
        <time>2015-09-27T11:46:59Z</time>
      </trkpt>
      <trkpt lat="41.033450" lon="-3.759883">
        <ele>2417.0</ele>
        <time>2015-09-27T11:47:01Z</time>
      </trkpt>
      <trkpt lat="41.033333" lon="-3.760050">
        <ele>2415.0</ele>
        <time>2015-09-27T11:47:03Z</time>
      </trkpt>
      <trkpt lat="41.033233" lon="-3.760217">
        <ele>2412.0</ele>
        <time>2015-09-27T11:47:05Z</time>
      </trkpt>
      <trkpt lat="41.033117" lon="-3.760383">
        <ele>2410.0</ele>
        <time>2015-09-27T11:47:07Z</time>
      </trkpt>
      <trkpt lat="41.033033" lon="-3.760550">
        <ele>2406.0</ele>
        <time>2015-09-27T11:47:09Z</time>
      </trkpt>
      <trkpt lat="41.032933" lon="-3.760733">
        <ele>2403.0</ele>
        <time>2015-09-27T11:47:11Z</time>
      </trkpt>
      <trkpt lat="41.032850" lon="-3.760883">
        <ele>2400.0</ele>
        <time>2015-09-27T11:47:13Z</time>
      </trkpt>
      <trkpt lat="41.032750" lon="-3.761017">
        <ele>2396.0</ele>
        <time>2015-09-27T11:47:15Z</time>
      </trkpt>
      <trkpt lat="41.032667" lon="-3.761183">
        <ele>2392.0</ele>
        <time>2015-09-27T11:47:17Z</time>
      </trkpt>
      <trkpt lat="41.032567" lon="-3.761350">
        <ele>2390.0</ele>
        <time>2015-09-27T11:47:19Z</time>
      </trkpt>
      <trkpt lat="41.032483" lon="-3.761500">
        <ele>2387.0</ele>
        <time>2015-09-27T11:47:21Z</time>
      </trkpt>
      <trkpt lat="41.032383" lon="-3.761650">
        <ele>2384.0</ele>
        <time>2015-09-27T11:47:23Z</time>
      </trkpt>
      <trkpt lat="41.032283" lon="-3.761817">
        <ele>2380.0</ele>
        <time>2015-09-27T11:47:25Z</time>
      </trkpt>
      <trkpt lat="41.032183" lon="-3.761983">
        <ele>2377.0</ele>
        <time>2015-09-27T11:47:27Z</time>
      </trkpt>
      <trkpt lat="41.032100" lon="-3.762133">
        <ele>2372.0</ele>
        <time>2015-09-27T11:47:29Z</time>
      </trkpt>
      <trkpt lat="41.032017" lon="-3.762317">
        <ele>2366.0</ele>
        <time>2015-09-27T11:47:31Z</time>
      </trkpt>
      <trkpt lat="41.031900" lon="-3.762467">
        <ele>2363.0</ele>
        <time>2015-09-27T11:47:33Z</time>
      </trkpt>
      <trkpt lat="41.031767" lon="-3.762567">
        <ele>2359.0</ele>
        <time>2015-09-27T11:47:35Z</time>
      </trkpt>
      <trkpt lat="41.031633" lon="-3.762683">
        <ele>2353.0</ele>
        <time>2015-09-27T11:47:37Z</time>
      </trkpt>
      <trkpt lat="41.031467" lon="-3.762817">
        <ele>2347.0</ele>
        <time>2015-09-27T11:47:39Z</time>
      </trkpt>
      <trkpt lat="41.031317" lon="-3.762933">
        <ele>2343.0</ele>
        <time>2015-09-27T11:47:41Z</time>
      </trkpt>
      <trkpt lat="41.031167" lon="-3.763050">
        <ele>2338.0</ele>
        <time>2015-09-27T11:47:43Z</time>
      </trkpt>
      <trkpt lat="41.031017" lon="-3.763150">
        <ele>2333.0</ele>
        <time>2015-09-27T11:47:45Z</time>
      </trkpt>
      <trkpt lat="41.030883" lon="-3.763267">
        <ele>2328.0</ele>
        <time>2015-09-27T11:47:47Z</time>
      </trkpt>
      <trkpt lat="41.030783" lon="-3.763383">
        <ele>2322.0</ele>
        <time>2015-09-27T11:47:49Z</time>
      </trkpt>
      <trkpt lat="41.030700" lon="-3.763533">
        <ele>2314.0</ele>
        <time>2015-09-27T11:47:51Z</time>
      </trkpt>
      <trkpt lat="41.030617" lon="-3.763683">
        <ele>2306.0</ele>
        <time>2015-09-27T11:47:53Z</time>
      </trkpt>
      <trkpt lat="41.030500" lon="-3.763800">
        <ele>2297.0</ele>
        <time>2015-09-27T11:47:55Z</time>
      </trkpt>
      <trkpt lat="41.030333" lon="-3.763967">
        <ele>2287.0</ele>
        <time>2015-09-27T11:47:57Z</time>
      </trkpt>
      <trkpt lat="41.030200" lon="-3.764100">
        <ele>2286.0</ele>
        <time>2015-09-27T11:47:59Z</time>
      </trkpt>
      <trkpt lat="41.030100" lon="-3.764167">
        <ele>2287.0</ele>
        <time>2015-09-27T11:48:01Z</time>
      </trkpt>
      <trkpt lat="41.029983" lon="-3.764217">
        <ele>2280.0</ele>
        <time>2015-09-27T11:48:03Z</time>
      </trkpt>
      <trkpt lat="41.029833" lon="-3.764300">
        <ele>2275.0</ele>
        <time>2015-09-27T11:48:05Z</time>
      </trkpt>
      <trkpt lat="41.029683" lon="-3.764350">
        <ele>2272.0</ele>
        <time>2015-09-27T11:48:07Z</time>
      </trkpt>
      <trkpt lat="41.029483" lon="-3.764350">
        <ele>2269.0</ele>
        <time>2015-09-27T11:48:09Z</time>
      </trkpt>
      <trkpt lat="41.029300" lon="-3.764383">
        <ele>2269.0</ele>
        <time>2015-09-27T11:48:11Z</time>
      </trkpt>
      <trkpt lat="41.029167" lon="-3.764450">
        <ele>2272.0</ele>
        <time>2015-09-27T11:48:13Z</time>
      </trkpt>
      <trkpt lat="41.029050" lon="-3.764483">
        <ele>2273.0</ele>
        <time>2015-09-27T11:48:15Z</time>
      </trkpt>
      <trkpt lat="41.028950" lon="-3.764533">
        <ele>2271.0</ele>
        <time>2015-09-27T11:48:17Z</time>
      </trkpt>
      <trkpt lat="41.028850" lon="-3.764617">
        <ele>2270.0</ele>
        <time>2015-09-27T11:48:19Z</time>
      </trkpt>
      <trkpt lat="41.028783" lon="-3.764700">
        <ele>2269.0</ele>
        <time>2015-09-27T11:48:21Z</time>
      </trkpt>
      <trkpt lat="41.028717" lon="-3.764817">
        <ele>2269.0</ele>
        <time>2015-09-27T11:48:23Z</time>
      </trkpt>
      <trkpt lat="41.028633" lon="-3.764900">
        <ele>2271.0</ele>
        <time>2015-09-27T11:48:25Z</time>
      </trkpt>
      <trkpt lat="41.028583" lon="-3.764983">
        <ele>2270.0</ele>
        <time>2015-09-27T11:48:27Z</time>
      </trkpt>
      <trkpt lat="41.028533" lon="-3.765083">
        <ele>2269.0</ele>
        <time>2015-09-27T11:48:29Z</time>
      </trkpt>
      <trkpt lat="41.028500" lon="-3.765200">
        <ele>2269.0</ele>
        <time>2015-09-27T11:48:31Z</time>
      </trkpt>
      <trkpt lat="41.028467" lon="-3.765300">
        <ele>2270.0</ele>
        <time>2015-09-27T11:48:33Z</time>
      </trkpt>
      <trkpt lat="41.028433" lon="-3.765400">
        <ele>2273.0</ele>
        <time>2015-09-27T11:48:35Z</time>
      </trkpt>
      <trkpt lat="41.028367" lon="-3.765500">
        <ele>2277.0</ele>
        <time>2015-09-27T11:48:37Z</time>
      </trkpt>
      <trkpt lat="41.028300" lon="-3.765583">
        <ele>2279.0</ele>
        <time>2015-09-27T11:48:39Z</time>
      </trkpt>
      <trkpt lat="41.028233" lon="-3.765733">
        <ele>2280.0</ele>
        <time>2015-09-27T11:48:41Z</time>
      </trkpt>
      <trkpt lat="41.028167" lon="-3.765883">
        <ele>2285.0</ele>
        <time>2015-09-27T11:48:43Z</time>
      </trkpt>
      <trkpt lat="41.028100" lon="-3.766000">
        <ele>2288.0</ele>
        <time>2015-09-27T11:48:45Z</time>
      </trkpt>
      <trkpt lat="41.028017" lon="-3.766133">
        <ele>2288.0</ele>
        <time>2015-09-27T11:48:47Z</time>
      </trkpt>
      <trkpt lat="41.027933" lon="-3.766283">
        <ele>2285.0</ele>
        <time>2015-09-27T11:48:49Z</time>
      </trkpt>
      <trkpt lat="41.027850" lon="-3.766500">
        <ele>2283.0</ele>
        <time>2015-09-27T11:48:51Z</time>
      </trkpt>
      <trkpt lat="41.027750" lon="-3.766700">
        <ele>2283.0</ele>
        <time>2015-09-27T11:48:53Z</time>
      </trkpt>
      <trkpt lat="41.027667" lon="-3.766867">
        <ele>2285.0</ele>
        <time>2015-09-27T11:48:55Z</time>
      </trkpt>
      <trkpt lat="41.027583" lon="-3.766983">
        <ele>2287.0</ele>
        <time>2015-09-27T11:48:57Z</time>
      </trkpt>
      <trkpt lat="41.027500" lon="-3.767133">
        <ele>2286.0</ele>
        <time>2015-09-27T11:48:59Z</time>
      </trkpt>
      <trkpt lat="41.027417" lon="-3.767283">
        <ele>2284.0</ele>
        <time>2015-09-27T11:49:01Z</time>
      </trkpt>
      <trkpt lat="41.027333" lon="-3.767417">
        <ele>2285.0</ele>
        <time>2015-09-27T11:49:03Z</time>
      </trkpt>
      <trkpt lat="41.027217" lon="-3.767517">
        <ele>2285.0</ele>
        <time>2015-09-27T11:49:05Z</time>
      </trkpt>
      <trkpt lat="41.027083" lon="-3.767583">
        <ele>2283.0</ele>
        <time>2015-09-27T11:49:07Z</time>
      </trkpt>
      <trkpt lat="41.026983" lon="-3.767683">
        <ele>2280.0</ele>
        <time>2015-09-27T11:49:09Z</time>
      </trkpt>
      <trkpt lat="41.026867" lon="-3.767800">
        <ele>2279.0</ele>
        <time>2015-09-27T11:49:11Z</time>
      </trkpt>
      <trkpt lat="41.026800" lon="-3.767900">
        <ele>2278.0</ele>
        <time>2015-09-27T11:49:13Z</time>
      </trkpt>
      <trkpt lat="41.026733" lon="-3.768000">
        <ele>2275.0</ele>
        <time>2015-09-27T11:49:15Z</time>
      </trkpt>
      <trkpt lat="41.026683" lon="-3.768117">
        <ele>2272.0</ele>
        <time>2015-09-27T11:49:17Z</time>
      </trkpt>
      <trkpt lat="41.026633" lon="-3.768233">
        <ele>2272.0</ele>
        <time>2015-09-27T11:49:19Z</time>
      </trkpt>
      <trkpt lat="41.026600" lon="-3.768317">
        <ele>2271.0</ele>
        <time>2015-09-27T11:49:21Z</time>
      </trkpt>
      <trkpt lat="41.026567" lon="-3.768417">
        <ele>2267.0</ele>
        <time>2015-09-27T11:49:23Z</time>
      </trkpt>
      <trkpt lat="41.026517" lon="-3.768533">
        <ele>2264.0</ele>
        <time>2015-09-27T11:49:25Z</time>
      </trkpt>
      <trkpt lat="41.026467" lon="-3.768667">
        <ele>2264.0</ele>
        <time>2015-09-27T11:49:27Z</time>
      </trkpt>
      <trkpt lat="41.026417" lon="-3.768783">
        <ele>2264.0</ele>
        <time>2015-09-27T11:49:29Z</time>
      </trkpt>
      <trkpt lat="41.026383" lon="-3.768867">
        <ele>2264.0</ele>
        <time>2015-09-27T11:49:31Z</time>
      </trkpt>
      <trkpt lat="41.026333" lon="-3.768967">
        <ele>2262.0</ele>
        <time>2015-09-27T11:49:33Z</time>
      </trkpt>
      <trkpt lat="41.026300" lon="-3.769083">
        <ele>2260.0</ele>
        <time>2015-09-27T11:49:35Z</time>
      </trkpt>
      <trkpt lat="41.026267" lon="-3.769200">
        <ele>2257.0</ele>
        <time>2015-09-27T11:49:37Z</time>
      </trkpt>
      <trkpt lat="41.026233" lon="-3.769333">
        <ele>2254.0</ele>
        <time>2015-09-27T11:49:39Z</time>
      </trkpt>
      <trkpt lat="41.026200" lon="-3.769467">
        <ele>2252.0</ele>
        <time>2015-09-27T11:49:41Z</time>
      </trkpt>
      <trkpt lat="41.026150" lon="-3.769583">
        <ele>2251.0</ele>
        <time>2015-09-27T11:49:43Z</time>
      </trkpt>
      <trkpt lat="41.026083" lon="-3.769700">
        <ele>2249.0</ele>
        <time>2015-09-27T11:49:45Z</time>
      </trkpt>
      <trkpt lat="41.026017" lon="-3.769817">
        <ele>2246.0</ele>
        <time>2015-09-27T11:49:47Z</time>
      </trkpt>
      <trkpt lat="41.025933" lon="-3.769917">
        <ele>2245.0</ele>
        <time>2015-09-27T11:49:49Z</time>
      </trkpt>
      <trkpt lat="41.025833" lon="-3.770033">
        <ele>2243.0</ele>
        <time>2015-09-27T11:49:51Z</time>
      </trkpt>
      <trkpt lat="41.025733" lon="-3.770150">
        <ele>2240.0</ele>
        <time>2015-09-27T11:49:53Z</time>
      </trkpt>
      <trkpt lat="41.025667" lon="-3.770283">
        <ele>2239.0</ele>
        <time>2015-09-27T11:49:55Z</time>
      </trkpt>
      <trkpt lat="41.025583" lon="-3.770400">
        <ele>2238.0</ele>
        <time>2015-09-27T11:49:57Z</time>
      </trkpt>
      <trkpt lat="41.025533" lon="-3.770517">
        <ele>2235.0</ele>
        <time>2015-09-27T11:49:59Z</time>
      </trkpt>
      <trkpt lat="41.025467" lon="-3.770617">
        <ele>2233.0</ele>
        <time>2015-09-27T11:50:01Z</time>
      </trkpt>
      <trkpt lat="41.025417" lon="-3.770700">
        <ele>2229.0</ele>
        <time>2015-09-27T11:50:03Z</time>
      </trkpt>
      <trkpt lat="41.025350" lon="-3.770800">
        <ele>2224.0</ele>
        <time>2015-09-27T11:50:05Z</time>
      </trkpt>
      <trkpt lat="41.025267" lon="-3.770883">
        <ele>2219.0</ele>
        <time>2015-09-27T11:50:07Z</time>
      </trkpt>
      <trkpt lat="41.025167" lon="-3.771000">
        <ele>2214.0</ele>
        <time>2015-09-27T11:50:09Z</time>
      </trkpt>
      <trkpt lat="41.025083" lon="-3.771117">
        <ele>2215.0</ele>
        <time>2015-09-27T11:50:11Z</time>
      </trkpt>
      <trkpt lat="41.025000" lon="-3.771183">
        <ele>2218.0</ele>
        <time>2015-09-27T11:50:13Z</time>
      </trkpt>
      <trkpt lat="41.024900" lon="-3.771217">
        <ele>2218.0</ele>
        <time>2015-09-27T11:50:15Z</time>
      </trkpt>
      <trkpt lat="41.024817" lon="-3.771267">
        <ele>2216.0</ele>
        <time>2015-09-27T11:50:17Z</time>
      </trkpt>
      <trkpt lat="41.024783" lon="-3.771350">
        <ele>2214.0</ele>
        <time>2015-09-27T11:50:19Z</time>
      </trkpt>
      <trkpt lat="41.024750" lon="-3.771433">
        <ele>2213.0</ele>
        <time>2015-09-27T11:50:21Z</time>
      </trkpt>
      <trkpt lat="41.024683" lon="-3.771517">
        <ele>2210.0</ele>
        <time>2015-09-27T11:50:23Z</time>
      </trkpt>
      <trkpt lat="41.024617" lon="-3.771683">
        <ele>2208.0</ele>
        <time>2015-09-27T11:50:25Z</time>
      </trkpt>
      <trkpt lat="41.024567" lon="-3.771783">
        <ele>2213.0</ele>
        <time>2015-09-27T11:50:27Z</time>
      </trkpt>
      <trkpt lat="41.024550" lon="-3.771783">
        <ele>2216.0</ele>
        <time>2015-09-27T11:50:29Z</time>
      </trkpt>
      <trkpt lat="41.024550" lon="-3.771800">
        <ele>2213.0</ele>
        <time>2015-09-27T11:50:31Z</time>
      </trkpt>
      <trkpt lat="41.024533" lon="-3.771850">
        <ele>2212.0</ele>
        <time>2015-09-27T11:50:33Z</time>
      </trkpt>
      <trkpt lat="41.024450" lon="-3.771950">
        <ele>2208.0</ele>
        <time>2015-09-27T11:50:35Z</time>
      </trkpt>
      <trkpt lat="41.024367" lon="-3.772033">
        <ele>2206.0</ele>
        <time>2015-09-27T11:50:37Z</time>
      </trkpt>
      <trkpt lat="41.024300" lon="-3.772117">
        <ele>2203.0</ele>
        <time>2015-09-27T11:50:39Z</time>
      </trkpt>
      <trkpt lat="41.024217" lon="-3.772233">
        <ele>2205.0</ele>
        <time>2015-09-27T11:50:41Z</time>
      </trkpt>
      <trkpt lat="41.024150" lon="-3.772317">
        <ele>2210.0</ele>
        <time>2015-09-27T11:50:43Z</time>
      </trkpt>
      <trkpt lat="41.024083" lon="-3.772400">
        <ele>2212.0</ele>
        <time>2015-09-27T11:50:45Z</time>
      </trkpt>
      <trkpt lat="41.024017" lon="-3.772500">
        <ele>2214.0</ele>
        <time>2015-09-27T11:50:47Z</time>
      </trkpt>
      <trkpt lat="41.023983" lon="-3.772600">
        <ele>2216.0</ele>
        <time>2015-09-27T11:50:49Z</time>
      </trkpt>
      <trkpt lat="41.023967" lon="-3.772750">
        <ele>2217.0</ele>
        <time>2015-09-27T11:50:51Z</time>
      </trkpt>
      <trkpt lat="41.023933" lon="-3.772833">
        <ele>2221.0</ele>
        <time>2015-09-27T11:50:53Z</time>
      </trkpt>
      <trkpt lat="41.023883" lon="-3.772933">
        <ele>2218.0</ele>
        <time>2015-09-27T11:50:55Z</time>
      </trkpt>
      <trkpt lat="41.023850" lon="-3.773067">
        <ele>2215.0</ele>
        <time>2015-09-27T11:50:57Z</time>
      </trkpt>
      <trkpt lat="41.023850" lon="-3.773217">
        <ele>2215.0</ele>
        <time>2015-09-27T11:50:59Z</time>
      </trkpt>
      <trkpt lat="41.023933" lon="-3.773350">
        <ele>2215.0</ele>
        <time>2015-09-27T11:51:01Z</time>
      </trkpt>
      <trkpt lat="41.024050" lon="-3.773400">
        <ele>2219.0</ele>
        <time>2015-09-27T11:51:03Z</time>
      </trkpt>
      <trkpt lat="41.024133" lon="-3.773383">
        <ele>2219.0</ele>
        <time>2015-09-27T11:51:05Z</time>
      </trkpt>
      <trkpt lat="41.024267" lon="-3.773283">
        <ele>2214.0</ele>
        <time>2015-09-27T11:51:07Z</time>
      </trkpt>
      <trkpt lat="41.024367" lon="-3.773050">
        <ele>2212.0</ele>
        <time>2015-09-27T11:51:09Z</time>
      </trkpt>
      <trkpt lat="41.024400" lon="-3.772767">
        <ele>2209.0</ele>
        <time>2015-09-27T11:51:11Z</time>
      </trkpt>
      <trkpt lat="41.024333" lon="-3.772433">
        <ele>2205.0</ele>
        <time>2015-09-27T11:51:13Z</time>
      </trkpt>
      <trkpt lat="41.024133" lon="-3.772183">
        <ele>2200.0</ele>
        <time>2015-09-27T11:51:15Z</time>
      </trkpt>
      <trkpt lat="41.023917" lon="-3.772167">
        <ele>2199.0</ele>
        <time>2015-09-27T11:51:17Z</time>
      </trkpt>
      <trkpt lat="41.023800" lon="-3.772233">
        <ele>2199.0</ele>
        <time>2015-09-27T11:51:19Z</time>
      </trkpt>
      <trkpt lat="41.023700" lon="-3.772317">
        <ele>2197.0</ele>
        <time>2015-09-27T11:51:21Z</time>
      </trkpt>
      <trkpt lat="41.023617" lon="-3.772467">
        <ele>2194.0</ele>
        <time>2015-09-27T11:51:23Z</time>
      </trkpt>
      <trkpt lat="41.023533" lon="-3.772567">
        <ele>2194.0</ele>
        <time>2015-09-27T11:51:25Z</time>
      </trkpt>
      <trkpt lat="41.023483" lon="-3.772667">
        <ele>2191.0</ele>
        <time>2015-09-27T11:51:27Z</time>
      </trkpt>
      <trkpt lat="41.023433" lon="-3.772800">
        <ele>2186.0</ele>
        <time>2015-09-27T11:51:29Z</time>
      </trkpt>
      <trkpt lat="41.023383" lon="-3.772917">
        <ele>2185.0</ele>
        <time>2015-09-27T11:51:31Z</time>
      </trkpt>
      <trkpt lat="41.023333" lon="-3.773017">
        <ele>2182.0</ele>
        <time>2015-09-27T11:51:33Z</time>
      </trkpt>
      <trkpt lat="41.023267" lon="-3.773133">
        <ele>2178.0</ele>
        <time>2015-09-27T11:51:35Z</time>
      </trkpt>
      <trkpt lat="41.023217" lon="-3.773300">
        <ele>2175.0</ele>
        <time>2015-09-27T11:51:37Z</time>
      </trkpt>
      <trkpt lat="41.023133" lon="-3.773467">
        <ele>2175.0</ele>
        <time>2015-09-27T11:51:39Z</time>
      </trkpt>
      <trkpt lat="41.023050" lon="-3.773600">
        <ele>2177.0</ele>
        <time>2015-09-27T11:51:41Z</time>
      </trkpt>
      <trkpt lat="41.023017" lon="-3.773750">
        <ele>2180.0</ele>
        <time>2015-09-27T11:51:43Z</time>
      </trkpt>
      <trkpt lat="41.023000" lon="-3.773867">
        <ele>2183.0</ele>
        <time>2015-09-27T11:51:45Z</time>
      </trkpt>
      <trkpt lat="41.023000" lon="-3.773950">
        <ele>2185.0</ele>
        <time>2015-09-27T11:51:47Z</time>
      </trkpt>
      <trkpt lat="41.023067" lon="-3.774017">
        <ele>2185.0</ele>
        <time>2015-09-27T11:51:49Z</time>
      </trkpt>
      <trkpt lat="41.023183" lon="-3.774033">
        <ele>2186.0</ele>
        <time>2015-09-27T11:51:51Z</time>
      </trkpt>
      <trkpt lat="41.023317" lon="-3.773967">
        <ele>2187.0</ele>
        <time>2015-09-27T11:51:53Z</time>
      </trkpt>
      <trkpt lat="41.023467" lon="-3.773817">
        <ele>2186.0</ele>
        <time>2015-09-27T11:51:55Z</time>
      </trkpt>
      <trkpt lat="41.023583" lon="-3.773550">
        <ele>2185.0</ele>
        <time>2015-09-27T11:51:57Z</time>
      </trkpt>
      <trkpt lat="41.023633" lon="-3.773267">
        <ele>2186.0</ele>
        <time>2015-09-27T11:51:59Z</time>
      </trkpt>
      <trkpt lat="41.023633" lon="-3.772967">
        <ele>2184.0</ele>
        <time>2015-09-27T11:52:01Z</time>
      </trkpt>
      <trkpt lat="41.023600" lon="-3.772633">
        <ele>2179.0</ele>
        <time>2015-09-27T11:52:03Z</time>
      </trkpt>
      <trkpt lat="41.023617" lon="-3.772317">
        <ele>2178.0</ele>
        <time>2015-09-27T11:52:05Z</time>
      </trkpt>
      <trkpt lat="41.023650" lon="-3.772033">
        <ele>2176.0</ele>
        <time>2015-09-27T11:52:07Z</time>
      </trkpt>
      <trkpt lat="41.023700" lon="-3.771750">
        <ele>2172.0</ele>
        <time>2015-09-27T11:52:09Z</time>
      </trkpt>
      <trkpt lat="41.023750" lon="-3.771450">
        <ele>2171.0</ele>
        <time>2015-09-27T11:52:11Z</time>
      </trkpt>
      <trkpt lat="41.023783" lon="-3.771167">
        <ele>2170.0</ele>
        <time>2015-09-27T11:52:13Z</time>
      </trkpt>
      <trkpt lat="41.023850" lon="-3.770917">
        <ele>2168.0</ele>
        <time>2015-09-27T11:52:15Z</time>
      </trkpt>
      <trkpt lat="41.023917" lon="-3.770650">
        <ele>2166.0</ele>
        <time>2015-09-27T11:52:17Z</time>
      </trkpt>
      <trkpt lat="41.024017" lon="-3.770433">
        <ele>2164.0</ele>
        <time>2015-09-27T11:52:19Z</time>
      </trkpt>
      <trkpt lat="41.024117" lon="-3.770233">
        <ele>2162.0</ele>
        <time>2015-09-27T11:52:21Z</time>
      </trkpt>
      <trkpt lat="41.024233" lon="-3.770000">
        <ele>2160.0</ele>
        <time>2015-09-27T11:52:23Z</time>
      </trkpt>
      <trkpt lat="41.024333" lon="-3.769767">
        <ele>2158.0</ele>
        <time>2015-09-27T11:52:25Z</time>
      </trkpt>
      <trkpt lat="41.024450" lon="-3.769533">
        <ele>2156.0</ele>
        <time>2015-09-27T11:52:27Z</time>
      </trkpt>
      <trkpt lat="41.024550" lon="-3.769283">
        <ele>2153.0</ele>
        <time>2015-09-27T11:52:29Z</time>
      </trkpt>
      <trkpt lat="41.024667" lon="-3.769033">
        <ele>2150.0</ele>
        <time>2015-09-27T11:52:31Z</time>
      </trkpt>
      <trkpt lat="41.024767" lon="-3.768800">
        <ele>2148.0</ele>
        <time>2015-09-27T11:52:33Z</time>
      </trkpt>
      <trkpt lat="41.024883" lon="-3.768567">
        <ele>2146.0</ele>
        <time>2015-09-27T11:52:35Z</time>
      </trkpt>
      <trkpt lat="41.024983" lon="-3.768350">
        <ele>2144.0</ele>
        <time>2015-09-27T11:52:37Z</time>
      </trkpt>
      <trkpt lat="41.025083" lon="-3.768117">
        <ele>2141.0</ele>
        <time>2015-09-27T11:52:39Z</time>
      </trkpt>
      <trkpt lat="41.025183" lon="-3.767883">
        <ele>2139.0</ele>
        <time>2015-09-27T11:52:41Z</time>
      </trkpt>
      <trkpt lat="41.025267" lon="-3.767667">
        <ele>2135.0</ele>
        <time>2015-09-27T11:52:43Z</time>
      </trkpt>
      <trkpt lat="41.025367" lon="-3.767450">
        <ele>2131.0</ele>
        <time>2015-09-27T11:52:45Z</time>
      </trkpt>
      <trkpt lat="41.025483" lon="-3.767217">
        <ele>2130.0</ele>
        <time>2015-09-27T11:52:47Z</time>
      </trkpt>
      <trkpt lat="41.025567" lon="-3.767033">
        <ele>2129.0</ele>
        <time>2015-09-27T11:52:49Z</time>
      </trkpt>
      <trkpt lat="41.025667" lon="-3.766817">
        <ele>2124.0</ele>
        <time>2015-09-27T11:52:51Z</time>
      </trkpt>
      <trkpt lat="41.025800" lon="-3.766617">
        <ele>2123.0</ele>
        <time>2015-09-27T11:52:53Z</time>
      </trkpt>
      <trkpt lat="41.025900" lon="-3.766417">
        <ele>2124.0</ele>
        <time>2015-09-27T11:52:55Z</time>
      </trkpt>
      <trkpt lat="41.025967" lon="-3.766200">
        <ele>2121.0</ele>
        <time>2015-09-27T11:52:57Z</time>
      </trkpt>
      <trkpt lat="41.026083" lon="-3.765967">
        <ele>2115.0</ele>
        <time>2015-09-27T11:52:59Z</time>
      </trkpt>
      <trkpt lat="41.026217" lon="-3.765700">
        <ele>2113.0</ele>
        <time>2015-09-27T11:53:01Z</time>
      </trkpt>
      <trkpt lat="41.026333" lon="-3.765500">
        <ele>2112.0</ele>
        <time>2015-09-27T11:53:03Z</time>
      </trkpt>
      <trkpt lat="41.026467" lon="-3.765283">
        <ele>2110.0</ele>
        <time>2015-09-27T11:53:05Z</time>
      </trkpt>
      <trkpt lat="41.026600" lon="-3.765050">
        <ele>2109.0</ele>
        <time>2015-09-27T11:53:07Z</time>
      </trkpt>
      <trkpt lat="41.026733" lon="-3.764833">
        <ele>2110.0</ele>
        <time>2015-09-27T11:53:09Z</time>
      </trkpt>
      <trkpt lat="41.026867" lon="-3.764617">
        <ele>2109.0</ele>
        <time>2015-09-27T11:53:11Z</time>
      </trkpt>
      <trkpt lat="41.027033" lon="-3.764367">
        <ele>2110.0</ele>
        <time>2015-09-27T11:53:13Z</time>
      </trkpt>
      <trkpt lat="41.027167" lon="-3.764133">
        <ele>2114.0</ele>
        <time>2015-09-27T11:53:15Z</time>
      </trkpt>
      <trkpt lat="41.027300" lon="-3.763917">
        <ele>2118.0</ele>
        <time>2015-09-27T11:53:17Z</time>
      </trkpt>
      <trkpt lat="41.027400" lon="-3.763667">
        <ele>2121.0</ele>
        <time>2015-09-27T11:53:19Z</time>
      </trkpt>
      <trkpt lat="41.027533" lon="-3.763367">
        <ele>2124.0</ele>
        <time>2015-09-27T11:53:21Z</time>
      </trkpt>
      <trkpt lat="41.027650" lon="-3.763117">
        <ele>2129.0</ele>
        <time>2015-09-27T11:53:23Z</time>
      </trkpt>
      <trkpt lat="41.027767" lon="-3.762917">
        <ele>2133.0</ele>
        <time>2015-09-27T11:53:25Z</time>
      </trkpt>
      <trkpt lat="41.027917" lon="-3.762817">
        <ele>2137.0</ele>
        <time>2015-09-27T11:53:27Z</time>
      </trkpt>
      <trkpt lat="41.028050" lon="-3.762783">
        <ele>2142.0</ele>
        <time>2015-09-27T11:53:29Z</time>
      </trkpt>
      <trkpt lat="41.028133" lon="-3.762800">
        <ele>2145.0</ele>
        <time>2015-09-27T11:53:31Z</time>
      </trkpt>
      <trkpt lat="41.028150" lon="-3.762867">
        <ele>2146.0</ele>
        <time>2015-09-27T11:53:33Z</time>
      </trkpt>
      <trkpt lat="41.028067" lon="-3.762950">
        <ele>2148.0</ele>
        <time>2015-09-27T11:53:35Z</time>
      </trkpt>
      <trkpt lat="41.027967" lon="-3.762983">
        <ele>2155.0</ele>
        <time>2015-09-27T11:53:37Z</time>
      </trkpt>
      <trkpt lat="41.027867" lon="-3.763000">
        <ele>2161.0</ele>
        <time>2015-09-27T11:53:39Z</time>
      </trkpt>
      <trkpt lat="41.027767" lon="-3.763050">
        <ele>2163.0</ele>
        <time>2015-09-27T11:53:41Z</time>
      </trkpt>
      <trkpt lat="41.027750" lon="-3.763150">
        <ele>2164.0</ele>
        <time>2015-09-27T11:53:43Z</time>
      </trkpt>
      <trkpt lat="41.027833" lon="-3.763200">
        <ele>2166.0</ele>
        <time>2015-09-27T11:53:45Z</time>
      </trkpt>
      <trkpt lat="41.027950" lon="-3.763167">
        <ele>2169.0</ele>
        <time>2015-09-27T11:53:47Z</time>
      </trkpt>
      <trkpt lat="41.028100" lon="-3.763033">
        <ele>2170.0</ele>
        <time>2015-09-27T11:53:49Z</time>
      </trkpt>
      <trkpt lat="41.028250" lon="-3.762767">
        <ele>2171.0</ele>
        <time>2015-09-27T11:53:51Z</time>
      </trkpt>
      <trkpt lat="41.028350" lon="-3.762450">
        <ele>2172.0</ele>
        <time>2015-09-27T11:53:53Z</time>
      </trkpt>
      <trkpt lat="41.028450" lon="-3.762150">
        <ele>2172.0</ele>
        <time>2015-09-27T11:53:55Z</time>
      </trkpt>
      <trkpt lat="41.028550" lon="-3.761883">
        <ele>2174.0</ele>
        <time>2015-09-27T11:53:57Z</time>
      </trkpt>
      <trkpt lat="41.028667" lon="-3.761667">
        <ele>2176.0</ele>
        <time>2015-09-27T11:53:59Z</time>
      </trkpt>
      <trkpt lat="41.028783" lon="-3.761467">
        <ele>2177.0</ele>
        <time>2015-09-27T11:54:01Z</time>
      </trkpt>
      <trkpt lat="41.028883" lon="-3.761317">
        <ele>2182.0</ele>
        <time>2015-09-27T11:54:03Z</time>
      </trkpt>
      <trkpt lat="41.028983" lon="-3.761200">
        <ele>2184.0</ele>
        <time>2015-09-27T11:54:05Z</time>
      </trkpt>
      <trkpt lat="41.029117" lon="-3.761083">
        <ele>2187.0</ele>
        <time>2015-09-27T11:54:07Z</time>
      </trkpt>
      <trkpt lat="41.029217" lon="-3.760967">
        <ele>2190.0</ele>
        <time>2015-09-27T11:54:09Z</time>
      </trkpt>
      <trkpt lat="41.029317" lon="-3.760850">
        <ele>2192.0</ele>
        <time>2015-09-27T11:54:11Z</time>
      </trkpt>
      <trkpt lat="41.029433" lon="-3.760717">
        <ele>2194.0</ele>
        <time>2015-09-27T11:54:13Z</time>
      </trkpt>
      <trkpt lat="41.029550" lon="-3.760583">
        <ele>2197.0</ele>
        <time>2015-09-27T11:54:15Z</time>
      </trkpt>
      <trkpt lat="41.029650" lon="-3.760433">
        <ele>2199.0</ele>
        <time>2015-09-27T11:54:17Z</time>
      </trkpt>
      <trkpt lat="41.029783" lon="-3.760283">
        <ele>2201.0</ele>
        <time>2015-09-27T11:54:19Z</time>
      </trkpt>
      <trkpt lat="41.029900" lon="-3.760117">
        <ele>2205.0</ele>
        <time>2015-09-27T11:54:21Z</time>
      </trkpt>
      <trkpt lat="41.030000" lon="-3.759933">
        <ele>2208.0</ele>
        <time>2015-09-27T11:54:23Z</time>
      </trkpt>
      <trkpt lat="41.030100" lon="-3.759750">
        <ele>2212.0</ele>
        <time>2015-09-27T11:54:25Z</time>
      </trkpt>
      <trkpt lat="41.030200" lon="-3.759600">
        <ele>2215.0</ele>
        <time>2015-09-27T11:54:27Z</time>
      </trkpt>
      <trkpt lat="41.030283" lon="-3.759450">
        <ele>2220.0</ele>
        <time>2015-09-27T11:54:29Z</time>
      </trkpt>
      <trkpt lat="41.030367" lon="-3.759283">
        <ele>2222.0</ele>
        <time>2015-09-27T11:54:31Z</time>
      </trkpt>
      <trkpt lat="41.030450" lon="-3.759150">
        <ele>2225.0</ele>
        <time>2015-09-27T11:54:33Z</time>
      </trkpt>
      <trkpt lat="41.030517" lon="-3.759000">
        <ele>2227.0</ele>
        <time>2015-09-27T11:54:35Z</time>
      </trkpt>
      <trkpt lat="41.030583" lon="-3.758867">
        <ele>2228.0</ele>
        <time>2015-09-27T11:54:37Z</time>
      </trkpt>
      <trkpt lat="41.030650" lon="-3.758733">
        <ele>2228.0</ele>
        <time>2015-09-27T11:54:39Z</time>
      </trkpt>
      <trkpt lat="41.030733" lon="-3.758633">
        <ele>2229.0</ele>
        <time>2015-09-27T11:54:41Z</time>
      </trkpt>
      <trkpt lat="41.030800" lon="-3.758517">
        <ele>2230.0</ele>
        <time>2015-09-27T11:54:43Z</time>
      </trkpt>
      <trkpt lat="41.030867" lon="-3.758383">
        <ele>2229.0</ele>
        <time>2015-09-27T11:54:45Z</time>
      </trkpt>
      <trkpt lat="41.030950" lon="-3.758250">
        <ele>2226.0</ele>
        <time>2015-09-27T11:54:47Z</time>
      </trkpt>
      <trkpt lat="41.031033" lon="-3.758150">
        <ele>2222.0</ele>
        <time>2015-09-27T11:54:49Z</time>
      </trkpt>
      <trkpt lat="41.031133" lon="-3.758033">
        <ele>2221.0</ele>
        <time>2015-09-27T11:54:51Z</time>
      </trkpt>
      <trkpt lat="41.031233" lon="-3.757917">
        <ele>2221.0</ele>
        <time>2015-09-27T11:54:53Z</time>
      </trkpt>
      <trkpt lat="41.031300" lon="-3.757800">
        <ele>2219.0</ele>
        <time>2015-09-27T11:54:55Z</time>
      </trkpt>
      <trkpt lat="41.031400" lon="-3.757650">
        <ele>2215.0</ele>
        <time>2015-09-27T11:54:57Z</time>
      </trkpt>
      <trkpt lat="41.031500" lon="-3.757533">
        <ele>2213.0</ele>
        <time>2015-09-27T11:54:59Z</time>
      </trkpt>
      <trkpt lat="41.031583" lon="-3.757367">
        <ele>2211.0</ele>
        <time>2015-09-27T11:55:01Z</time>
      </trkpt>
      <trkpt lat="41.031650" lon="-3.757183">
        <ele>2208.0</ele>
        <time>2015-09-27T11:55:03Z</time>
      </trkpt>
      <trkpt lat="41.031767" lon="-3.757033">
        <ele>2202.0</ele>
        <time>2015-09-27T11:55:05Z</time>
      </trkpt>
      <trkpt lat="41.031883" lon="-3.756900">
        <ele>2199.0</ele>
        <time>2015-09-27T11:55:07Z</time>
      </trkpt>
      <trkpt lat="41.032000" lon="-3.756783">
        <ele>2199.0</ele>
        <time>2015-09-27T11:55:09Z</time>
      </trkpt>
      <trkpt lat="41.032083" lon="-3.756617">
        <ele>2196.0</ele>
        <time>2015-09-27T11:55:11Z</time>
      </trkpt>
      <trkpt lat="41.032200" lon="-3.756467">
        <ele>2191.0</ele>
        <time>2015-09-27T11:55:13Z</time>
      </trkpt>
      <trkpt lat="41.032333" lon="-3.756283">
        <ele>2189.0</ele>
        <time>2015-09-27T11:55:15Z</time>
      </trkpt>
      <trkpt lat="41.032433" lon="-3.756100">
        <ele>2188.0</ele>
        <time>2015-09-27T11:55:17Z</time>
      </trkpt>
      <trkpt lat="41.032550" lon="-3.755950">
        <ele>2185.0</ele>
        <time>2015-09-27T11:55:19Z</time>
      </trkpt>
      <trkpt lat="41.032667" lon="-3.755800">
        <ele>2182.0</ele>
        <time>2015-09-27T11:55:21Z</time>
      </trkpt>
      <trkpt lat="41.032800" lon="-3.755650">
        <ele>2182.0</ele>
        <time>2015-09-27T11:55:23Z</time>
      </trkpt>
      <trkpt lat="41.032900" lon="-3.755500">
        <ele>2182.0</ele>
        <time>2015-09-27T11:55:25Z</time>
      </trkpt>
      <trkpt lat="41.033033" lon="-3.755350">
        <ele>2180.0</ele>
        <time>2015-09-27T11:55:27Z</time>
      </trkpt>
      <trkpt lat="41.033150" lon="-3.755150">
        <ele>2182.0</ele>
        <time>2015-09-27T11:55:29Z</time>
      </trkpt>
      <trkpt lat="41.033217" lon="-3.754933">
        <ele>2185.0</ele>
        <time>2015-09-27T11:55:31Z</time>
      </trkpt>
      <trkpt lat="41.033283" lon="-3.754750">
        <ele>2183.0</ele>
        <time>2015-09-27T11:55:33Z</time>
      </trkpt>
      <trkpt lat="41.033400" lon="-3.754633">
        <ele>2180.0</ele>
        <time>2015-09-27T11:55:35Z</time>
      </trkpt>
      <trkpt lat="41.033517" lon="-3.754533">
        <ele>2179.0</ele>
        <time>2015-09-27T11:55:37Z</time>
      </trkpt>
      <trkpt lat="41.033633" lon="-3.754433">
        <ele>2178.0</ele>
        <time>2015-09-27T11:55:39Z</time>
      </trkpt>
      <trkpt lat="41.033733" lon="-3.754317">
        <ele>2178.0</ele>
        <time>2015-09-27T11:55:41Z</time>
      </trkpt>
      <trkpt lat="41.033850" lon="-3.754183">
        <ele>2177.0</ele>
        <time>2015-09-27T11:55:43Z</time>
      </trkpt>
      <trkpt lat="41.033950" lon="-3.754083">
        <ele>2177.0</ele>
        <time>2015-09-27T11:55:45Z</time>
      </trkpt>
      <trkpt lat="41.034050" lon="-3.753967">
        <ele>2176.0</ele>
        <time>2015-09-27T11:55:47Z</time>
      </trkpt>
      <trkpt lat="41.034167" lon="-3.753867">
        <ele>2176.0</ele>
        <time>2015-09-27T11:55:49Z</time>
      </trkpt>
      <trkpt lat="41.034267" lon="-3.753767">
        <ele>2177.0</ele>
        <time>2015-09-27T11:55:51Z</time>
      </trkpt>
      <trkpt lat="41.034383" lon="-3.753683">
        <ele>2177.0</ele>
        <time>2015-09-27T11:55:53Z</time>
      </trkpt>
      <trkpt lat="41.034517" lon="-3.753567">
        <ele>2177.0</ele>
        <time>2015-09-27T11:55:55Z</time>
      </trkpt>
      <trkpt lat="41.034617" lon="-3.753467">
        <ele>2180.0</ele>
        <time>2015-09-27T11:55:57Z</time>
      </trkpt>
      <trkpt lat="41.034700" lon="-3.753383">
        <ele>2180.0</ele>
        <time>2015-09-27T11:55:59Z</time>
      </trkpt>
      <trkpt lat="41.034817" lon="-3.753267">
        <ele>2178.0</ele>
        <time>2015-09-27T11:56:01Z</time>
      </trkpt>
      <trkpt lat="41.034950" lon="-3.753167">
        <ele>2178.0</ele>
        <time>2015-09-27T11:56:03Z</time>
      </trkpt>
      <trkpt lat="41.035050" lon="-3.753067">
        <ele>2178.0</ele>
        <time>2015-09-27T11:56:05Z</time>
      </trkpt>
      <trkpt lat="41.035150" lon="-3.752950">
        <ele>2176.0</ele>
        <time>2015-09-27T11:56:07Z</time>
      </trkpt>
      <trkpt lat="41.035283" lon="-3.752833">
        <ele>2175.0</ele>
        <time>2015-09-27T11:56:09Z</time>
      </trkpt>
      <trkpt lat="41.035400" lon="-3.752750">
        <ele>2175.0</ele>
        <time>2015-09-27T11:56:11Z</time>
      </trkpt>
      <trkpt lat="41.035533" lon="-3.752683">
        <ele>2176.0</ele>
        <time>2015-09-27T11:56:13Z</time>
      </trkpt>
      <trkpt lat="41.035650" lon="-3.752617">
        <ele>2178.0</ele>
        <time>2015-09-27T11:56:15Z</time>
      </trkpt>
      <trkpt lat="41.035767" lon="-3.752550">
        <ele>2180.0</ele>
        <time>2015-09-27T11:56:17Z</time>
      </trkpt>
      <trkpt lat="41.035900" lon="-3.752450">
        <ele>2181.0</ele>
        <time>2015-09-27T11:56:19Z</time>
      </trkpt>
      <trkpt lat="41.036050" lon="-3.752350">
        <ele>2182.0</ele>
        <time>2015-09-27T11:56:21Z</time>
      </trkpt>
      <trkpt lat="41.036200" lon="-3.752250">
        <ele>2187.0</ele>
        <time>2015-09-27T11:56:23Z</time>
      </trkpt>
      <trkpt lat="41.036317" lon="-3.752167">
        <ele>2189.0</ele>
        <time>2015-09-27T11:56:25Z</time>
      </trkpt>
      <trkpt lat="41.036450" lon="-3.752067">
        <ele>2191.0</ele>
        <time>2015-09-27T11:56:27Z</time>
      </trkpt>
      <trkpt lat="41.036567" lon="-3.751933">
        <ele>2196.0</ele>
        <time>2015-09-27T11:56:29Z</time>
      </trkpt>
      <trkpt lat="41.036683" lon="-3.751817">
        <ele>2202.0</ele>
        <time>2015-09-27T11:56:31Z</time>
      </trkpt>
      <trkpt lat="41.036800" lon="-3.751617">
        <ele>2205.0</ele>
        <time>2015-09-27T11:56:33Z</time>
      </trkpt>
      <trkpt lat="41.036917" lon="-3.751417">
        <ele>2210.0</ele>
        <time>2015-09-27T11:56:35Z</time>
      </trkpt>
      <trkpt lat="41.037033" lon="-3.751250">
        <ele>2214.0</ele>
        <time>2015-09-27T11:56:37Z</time>
      </trkpt>
      <trkpt lat="41.037167" lon="-3.751083">
        <ele>2218.0</ele>
        <time>2015-09-27T11:56:39Z</time>
      </trkpt>
      <trkpt lat="41.037300" lon="-3.750900">
        <ele>2224.0</ele>
        <time>2015-09-27T11:56:41Z</time>
      </trkpt>
      <trkpt lat="41.037400" lon="-3.750800">
        <ele>2227.0</ele>
        <time>2015-09-27T11:56:43Z</time>
      </trkpt>
      <trkpt lat="41.037517" lon="-3.750733">
        <ele>2226.0</ele>
        <time>2015-09-27T11:56:45Z</time>
      </trkpt>
      <trkpt lat="41.037633" lon="-3.750667">
        <ele>2225.0</ele>
        <time>2015-09-27T11:56:47Z</time>
      </trkpt>
      <trkpt lat="41.037750" lon="-3.750600">
        <ele>2225.0</ele>
        <time>2015-09-27T11:56:49Z</time>
      </trkpt>
      <trkpt lat="41.037817" lon="-3.750533">
        <ele>2224.0</ele>
        <time>2015-09-27T11:56:51Z</time>
      </trkpt>
      <trkpt lat="41.037917" lon="-3.750467">
        <ele>2221.0</ele>
        <time>2015-09-27T11:56:53Z</time>
      </trkpt>
      <trkpt lat="41.038000" lon="-3.750400">
        <ele>2221.0</ele>
        <time>2015-09-27T11:56:55Z</time>
      </trkpt>
      <trkpt lat="41.038083" lon="-3.750300">
        <ele>2222.0</ele>
        <time>2015-09-27T11:56:57Z</time>
      </trkpt>
      <trkpt lat="41.038167" lon="-3.750233">
        <ele>2220.0</ele>
        <time>2015-09-27T11:56:59Z</time>
      </trkpt>
      <trkpt lat="41.038250" lon="-3.750167">
        <ele>2220.0</ele>
        <time>2015-09-27T11:57:01Z</time>
      </trkpt>
      <trkpt lat="41.038333" lon="-3.750117">
        <ele>2220.0</ele>
        <time>2015-09-27T11:57:03Z</time>
      </trkpt>
      <trkpt lat="41.038433" lon="-3.750050">
        <ele>2218.0</ele>
        <time>2015-09-27T11:57:05Z</time>
      </trkpt>
      <trkpt lat="41.038517" lon="-3.749983">
        <ele>2216.0</ele>
        <time>2015-09-27T11:57:07Z</time>
      </trkpt>
      <trkpt lat="41.038617" lon="-3.749900">
        <ele>2214.0</ele>
        <time>2015-09-27T11:57:09Z</time>
      </trkpt>
      <trkpt lat="41.038700" lon="-3.749800">
        <ele>2214.0</ele>
        <time>2015-09-27T11:57:11Z</time>
      </trkpt>
      <trkpt lat="41.038783" lon="-3.749733">
        <ele>2213.0</ele>
        <time>2015-09-27T11:57:13Z</time>
      </trkpt>
      <trkpt lat="41.038867" lon="-3.749667">
        <ele>2212.0</ele>
        <time>2015-09-27T11:57:15Z</time>
      </trkpt>
      <trkpt lat="41.038933" lon="-3.749650">
        <ele>2212.0</ele>
        <time>2015-09-27T11:57:17Z</time>
      </trkpt>
      <trkpt lat="41.039000" lon="-3.749600">
        <ele>2212.0</ele>
        <time>2015-09-27T11:57:19Z</time>
      </trkpt>
      <trkpt lat="41.039050" lon="-3.749567">
        <ele>2211.0</ele>
        <time>2015-09-27T11:57:21Z</time>
      </trkpt>
      <trkpt lat="41.039100" lon="-3.749550">
        <ele>2210.0</ele>
        <time>2015-09-27T11:57:23Z</time>
      </trkpt>
      <trkpt lat="41.039150" lon="-3.749567">
        <ele>2205.0</ele>
        <time>2015-09-27T11:57:25Z</time>
      </trkpt>
      <trkpt lat="41.039233" lon="-3.749567">
        <ele>2203.0</ele>
        <time>2015-09-27T11:57:27Z</time>
      </trkpt>
      <trkpt lat="41.039300" lon="-3.749567">
        <ele>2204.0</ele>
        <time>2015-09-27T11:57:29Z</time>
      </trkpt>
      <trkpt lat="41.039367" lon="-3.749567">
        <ele>2202.0</ele>
        <time>2015-09-27T11:57:31Z</time>
      </trkpt>
      <trkpt lat="41.039450" lon="-3.749550">
        <ele>2201.0</ele>
        <time>2015-09-27T11:57:33Z</time>
      </trkpt>
      <trkpt lat="41.039500" lon="-3.749550">
        <ele>2202.0</ele>
        <time>2015-09-27T11:57:35Z</time>
      </trkpt>
      <trkpt lat="41.039567" lon="-3.749517">
        <ele>2200.0</ele>
        <time>2015-09-27T11:57:37Z</time>
      </trkpt>
      <trkpt lat="41.039650" lon="-3.749500">
        <ele>2196.0</ele>
        <time>2015-09-27T11:57:39Z</time>
      </trkpt>
      <trkpt lat="41.039733" lon="-3.749483">
        <ele>2193.0</ele>
        <time>2015-09-27T11:57:41Z</time>
      </trkpt>
      <trkpt lat="41.039800" lon="-3.749450">
        <ele>2191.0</ele>
        <time>2015-09-27T11:57:43Z</time>
      </trkpt>
      <trkpt lat="41.039883" lon="-3.749400">
        <ele>2188.0</ele>
        <time>2015-09-27T11:57:45Z</time>
      </trkpt>
      <trkpt lat="41.039967" lon="-3.749383">
        <ele>2185.0</ele>
        <time>2015-09-27T11:57:47Z</time>
      </trkpt>
      <trkpt lat="41.040050" lon="-3.749350">
        <ele>2182.0</ele>
        <time>2015-09-27T11:57:49Z</time>
      </trkpt>
      <trkpt lat="41.040117" lon="-3.749317">
        <ele>2180.0</ele>
        <time>2015-09-27T11:57:51Z</time>
      </trkpt>
      <trkpt lat="41.040183" lon="-3.749300">
        <ele>2177.0</ele>
        <time>2015-09-27T11:57:53Z</time>
      </trkpt>
      <trkpt lat="41.040267" lon="-3.749283">
        <ele>2174.0</ele>
        <time>2015-09-27T11:57:55Z</time>
      </trkpt>
      <trkpt lat="41.040350" lon="-3.749250">
        <ele>2172.0</ele>
        <time>2015-09-27T11:57:57Z</time>
      </trkpt>
      <trkpt lat="41.040433" lon="-3.749217">
        <ele>2171.0</ele>
        <time>2015-09-27T11:57:59Z</time>
      </trkpt>
      <trkpt lat="41.040517" lon="-3.749167">
        <ele>2170.0</ele>
        <time>2015-09-27T11:58:01Z</time>
      </trkpt>
      <trkpt lat="41.040583" lon="-3.749133">
        <ele>2168.0</ele>
        <time>2015-09-27T11:58:03Z</time>
      </trkpt>
      <trkpt lat="41.040683" lon="-3.749067">
        <ele>2165.0</ele>
        <time>2015-09-27T11:58:05Z</time>
      </trkpt>
      <trkpt lat="41.040767" lon="-3.749000">
        <ele>2164.0</ele>
        <time>2015-09-27T11:58:07Z</time>
      </trkpt>
      <trkpt lat="41.040833" lon="-3.748933">
        <ele>2163.0</ele>
        <time>2015-09-27T11:58:09Z</time>
      </trkpt>
      <trkpt lat="41.040933" lon="-3.748883">
        <ele>2161.0</ele>
        <time>2015-09-27T11:58:11Z</time>
      </trkpt>
      <trkpt lat="41.041050" lon="-3.748800">
        <ele>2160.0</ele>
        <time>2015-09-27T11:58:13Z</time>
      </trkpt>
      <trkpt lat="41.041133" lon="-3.748733">
        <ele>2160.0</ele>
        <time>2015-09-27T11:58:15Z</time>
      </trkpt>
      <trkpt lat="41.041233" lon="-3.748633">
        <ele>2157.0</ele>
        <time>2015-09-27T11:58:17Z</time>
      </trkpt>
      <trkpt lat="41.041333" lon="-3.748567">
        <ele>2155.0</ele>
        <time>2015-09-27T11:58:19Z</time>
      </trkpt>
      <trkpt lat="41.041417" lon="-3.748483">
        <ele>2154.0</ele>
        <time>2015-09-27T11:58:21Z</time>
      </trkpt>
      <trkpt lat="41.041517" lon="-3.748417">
        <ele>2152.0</ele>
        <time>2015-09-27T11:58:23Z</time>
      </trkpt>
      <trkpt lat="41.041617" lon="-3.748350">
        <ele>2150.0</ele>
        <time>2015-09-27T11:58:25Z</time>
      </trkpt>
      <trkpt lat="41.041700" lon="-3.748267">
        <ele>2147.0</ele>
        <time>2015-09-27T11:58:27Z</time>
      </trkpt>
      <trkpt lat="41.041800" lon="-3.748200">
        <ele>2144.0</ele>
        <time>2015-09-27T11:58:29Z</time>
      </trkpt>
      <trkpt lat="41.041900" lon="-3.748133">
        <ele>2142.0</ele>
        <time>2015-09-27T11:58:31Z</time>
      </trkpt>
      <trkpt lat="41.042000" lon="-3.748083">
        <ele>2140.0</ele>
        <time>2015-09-27T11:58:33Z</time>
      </trkpt>
      <trkpt lat="41.042117" lon="-3.748000">
        <ele>2139.0</ele>
        <time>2015-09-27T11:58:35Z</time>
      </trkpt>
      <trkpt lat="41.042217" lon="-3.747933">
        <ele>2139.0</ele>
        <time>2015-09-27T11:58:37Z</time>
      </trkpt>
      <trkpt lat="41.042333" lon="-3.747867">
        <ele>2137.0</ele>
        <time>2015-09-27T11:58:39Z</time>
      </trkpt>
      <trkpt lat="41.042433" lon="-3.747800">
        <ele>2137.0</ele>
        <time>2015-09-27T11:58:41Z</time>
      </trkpt>
      <trkpt lat="41.042550" lon="-3.747733">
        <ele>2137.0</ele>
        <time>2015-09-27T11:58:43Z</time>
      </trkpt>
      <trkpt lat="41.042667" lon="-3.747667">
        <ele>2137.0</ele>
        <time>2015-09-27T11:58:45Z</time>
      </trkpt>
      <trkpt lat="41.042767" lon="-3.747567">
        <ele>2140.0</ele>
        <time>2015-09-27T11:58:47Z</time>
      </trkpt>
      <trkpt lat="41.042867" lon="-3.747467">
        <ele>2139.0</ele>
        <time>2015-09-27T11:58:49Z</time>
      </trkpt>
      <trkpt lat="41.043000" lon="-3.747367">
        <ele>2139.0</ele>
        <time>2015-09-27T11:58:51Z</time>
      </trkpt>
      <trkpt lat="41.043117" lon="-3.747267">
        <ele>2142.0</ele>
        <time>2015-09-27T11:58:53Z</time>
      </trkpt>
      <trkpt lat="41.043217" lon="-3.747183">
        <ele>2144.0</ele>
        <time>2015-09-27T11:58:55Z</time>
      </trkpt>
      <trkpt lat="41.043300" lon="-3.747100">
        <ele>2143.0</ele>
        <time>2015-09-27T11:58:57Z</time>
      </trkpt>
      <trkpt lat="41.043417" lon="-3.747017">
        <ele>2141.0</ele>
        <time>2015-09-27T11:58:59Z</time>
      </trkpt>
      <trkpt lat="41.043517" lon="-3.746917">
        <ele>2141.0</ele>
        <time>2015-09-27T11:59:01Z</time>
      </trkpt>
      <trkpt lat="41.043617" lon="-3.746833">
        <ele>2140.0</ele>
        <time>2015-09-27T11:59:03Z</time>
      </trkpt>
      <trkpt lat="41.043717" lon="-3.746750">
        <ele>2136.0</ele>
        <time>2015-09-27T11:59:05Z</time>
      </trkpt>
      <trkpt lat="41.043817" lon="-3.746667">
        <ele>2134.0</ele>
        <time>2015-09-27T11:59:07Z</time>
      </trkpt>
      <trkpt lat="41.043900" lon="-3.746583">
        <ele>2130.0</ele>
        <time>2015-09-27T11:59:09Z</time>
      </trkpt>
      <trkpt lat="41.044017" lon="-3.746483">
        <ele>2124.0</ele>
        <time>2015-09-27T11:59:11Z</time>
      </trkpt>
      <trkpt lat="41.044133" lon="-3.746400">
        <ele>2122.0</ele>
        <time>2015-09-27T11:59:13Z</time>
      </trkpt>
      <trkpt lat="41.044200" lon="-3.746300">
        <ele>2121.0</ele>
        <time>2015-09-27T11:59:15Z</time>
      </trkpt>
      <trkpt lat="41.044300" lon="-3.746200">
        <ele>2117.0</ele>
        <time>2015-09-27T11:59:17Z</time>
      </trkpt>
      <trkpt lat="41.044417" lon="-3.746117">
        <ele>2116.0</ele>
        <time>2015-09-27T11:59:19Z</time>
      </trkpt>
      <trkpt lat="41.044517" lon="-3.746033">
        <ele>2117.0</ele>
        <time>2015-09-27T11:59:21Z</time>
      </trkpt>
      <trkpt lat="41.044600" lon="-3.745933">
        <ele>2114.0</ele>
        <time>2015-09-27T11:59:23Z</time>
      </trkpt>
      <trkpt lat="41.044733" lon="-3.745850">
        <ele>2112.0</ele>
        <time>2015-09-27T11:59:25Z</time>
      </trkpt>
      <trkpt lat="41.044867" lon="-3.745783">
        <ele>2114.0</ele>
        <time>2015-09-27T11:59:27Z</time>
      </trkpt>
      <trkpt lat="41.044950" lon="-3.745733">
        <ele>2115.0</ele>
        <time>2015-09-27T11:59:29Z</time>
      </trkpt>
      <trkpt lat="41.045067" lon="-3.745683">
        <ele>2113.0</ele>
        <time>2015-09-27T11:59:31Z</time>
      </trkpt>
      <trkpt lat="41.045200" lon="-3.745633">
        <ele>2112.0</ele>
        <time>2015-09-27T11:59:33Z</time>
      </trkpt>
      <trkpt lat="41.045300" lon="-3.745600">
        <ele>2115.0</ele>
        <time>2015-09-27T11:59:35Z</time>
      </trkpt>
      <trkpt lat="41.045383" lon="-3.745550">
        <ele>2117.0</ele>
        <time>2015-09-27T11:59:37Z</time>
      </trkpt>
      <trkpt lat="41.045450" lon="-3.745517">
        <ele>2114.0</ele>
        <time>2015-09-27T11:59:39Z</time>
      </trkpt>
      <trkpt lat="41.045550" lon="-3.745517">
        <ele>2110.0</ele>
        <time>2015-09-27T11:59:41Z</time>
      </trkpt>
      <trkpt lat="41.045650" lon="-3.745483">
        <ele>2109.0</ele>
        <time>2015-09-27T11:59:43Z</time>
      </trkpt>
      <trkpt lat="41.045700" lon="-3.745450">
        <ele>2105.0</ele>
        <time>2015-09-27T11:59:45Z</time>
      </trkpt>
      <trkpt lat="41.045800" lon="-3.745417">
        <ele>2098.0</ele>
        <time>2015-09-27T11:59:47Z</time>
      </trkpt>
      <trkpt lat="41.045900" lon="-3.745383">
        <ele>2095.0</ele>
        <time>2015-09-27T11:59:49Z</time>
      </trkpt>
      <trkpt lat="41.045983" lon="-3.745333">
        <ele>2092.0</ele>
        <time>2015-09-27T11:59:51Z</time>
      </trkpt>
      <trkpt lat="41.046083" lon="-3.745300">
        <ele>2087.0</ele>
        <time>2015-09-27T11:59:53Z</time>
      </trkpt>
      <trkpt lat="41.046200" lon="-3.745283">
        <ele>2085.0</ele>
        <time>2015-09-27T11:59:55Z</time>
      </trkpt>
      <trkpt lat="41.046300" lon="-3.745250">
        <ele>2085.0</ele>
        <time>2015-09-27T11:59:57Z</time>
      </trkpt>
      <trkpt lat="41.046400" lon="-3.745217">
        <ele>2085.0</ele>
        <time>2015-09-27T11:59:59Z</time>
      </trkpt>
      <trkpt lat="41.046500" lon="-3.745167">
        <ele>2084.0</ele>
        <time>2015-09-27T12:00:01Z</time>
      </trkpt>
      <trkpt lat="41.046617" lon="-3.745083">
        <ele>2082.0</ele>
        <time>2015-09-27T12:00:03Z</time>
      </trkpt>
      <trkpt lat="41.046750" lon="-3.745017">
        <ele>2081.0</ele>
        <time>2015-09-27T12:00:05Z</time>
      </trkpt>
      <trkpt lat="41.046867" lon="-3.744950">
        <ele>2082.0</ele>
        <time>2015-09-27T12:00:07Z</time>
      </trkpt>
      <trkpt lat="41.046983" lon="-3.744883">
        <ele>2083.0</ele>
        <time>2015-09-27T12:00:09Z</time>
      </trkpt>
      <trkpt lat="41.047100" lon="-3.744800">
        <ele>2084.0</ele>
        <time>2015-09-27T12:00:11Z</time>
      </trkpt>
      <trkpt lat="41.047233" lon="-3.744733">
        <ele>2084.0</ele>
        <time>2015-09-27T12:00:13Z</time>
      </trkpt>
      <trkpt lat="41.047367" lon="-3.744650">
        <ele>2087.0</ele>
        <time>2015-09-27T12:00:15Z</time>
      </trkpt>
      <trkpt lat="41.047467" lon="-3.744567">
        <ele>2090.0</ele>
        <time>2015-09-27T12:00:17Z</time>
      </trkpt>
      <trkpt lat="41.047567" lon="-3.744517">
        <ele>2091.0</ele>
        <time>2015-09-27T12:00:19Z</time>
      </trkpt>
      <trkpt lat="41.047700" lon="-3.744450">
        <ele>2092.0</ele>
        <time>2015-09-27T12:00:21Z</time>
      </trkpt>
      <trkpt lat="41.047833" lon="-3.744400">
        <ele>2096.0</ele>
        <time>2015-09-27T12:00:23Z</time>
      </trkpt>
      <trkpt lat="41.047950" lon="-3.744350">
        <ele>2100.0</ele>
        <time>2015-09-27T12:00:25Z</time>
      </trkpt>
      <trkpt lat="41.048050" lon="-3.744333">
        <ele>2103.0</ele>
        <time>2015-09-27T12:00:27Z</time>
      </trkpt>
      <trkpt lat="41.048183" lon="-3.744317">
        <ele>2107.0</ele>
        <time>2015-09-27T12:00:29Z</time>
      </trkpt>
      <trkpt lat="41.048300" lon="-3.744300">
        <ele>2112.0</ele>
        <time>2015-09-27T12:00:31Z</time>
      </trkpt>
      <trkpt lat="41.048400" lon="-3.744283">
        <ele>2115.0</ele>
        <time>2015-09-27T12:00:33Z</time>
      </trkpt>
      <trkpt lat="41.048533" lon="-3.744267">
        <ele>2118.0</ele>
        <time>2015-09-27T12:00:35Z</time>
      </trkpt>
      <trkpt lat="41.048633" lon="-3.744250">
        <ele>2124.0</ele>
        <time>2015-09-27T12:00:37Z</time>
      </trkpt>
      <trkpt lat="41.048717" lon="-3.744250">
        <ele>2129.0</ele>
        <time>2015-09-27T12:00:39Z</time>
      </trkpt>
      <trkpt lat="41.048817" lon="-3.744267">
        <ele>2132.0</ele>
        <time>2015-09-27T12:00:41Z</time>
      </trkpt>
      <trkpt lat="41.048917" lon="-3.744267">
        <ele>2138.0</ele>
        <time>2015-09-27T12:00:43Z</time>
      </trkpt>
      <trkpt lat="41.049017" lon="-3.744267">
        <ele>2143.0</ele>
        <time>2015-09-27T12:00:45Z</time>
      </trkpt>
      <trkpt lat="41.049117" lon="-3.744283">
        <ele>2148.0</ele>
        <time>2015-09-27T12:00:47Z</time>
      </trkpt>
      <trkpt lat="41.049217" lon="-3.744267">
        <ele>2154.0</ele>
        <time>2015-09-27T12:00:49Z</time>
      </trkpt>
      <trkpt lat="41.049283" lon="-3.744200">
        <ele>2157.0</ele>
        <time>2015-09-27T12:00:51Z</time>
      </trkpt>
      <trkpt lat="41.049367" lon="-3.744150">
        <ele>2156.0</ele>
        <time>2015-09-27T12:00:53Z</time>
      </trkpt>
      <trkpt lat="41.049483" lon="-3.744100">
        <ele>2157.0</ele>
        <time>2015-09-27T12:00:55Z</time>
      </trkpt>
      <trkpt lat="41.049567" lon="-3.744050">
        <ele>2158.0</ele>
        <time>2015-09-27T12:00:57Z</time>
      </trkpt>
      <trkpt lat="41.049650" lon="-3.744017">
        <ele>2156.0</ele>
        <time>2015-09-27T12:00:59Z</time>
      </trkpt>
      <trkpt lat="41.049767" lon="-3.743967">
        <ele>2154.0</ele>
        <time>2015-09-27T12:01:01Z</time>
      </trkpt>
      <trkpt lat="41.049867" lon="-3.743933">
        <ele>2153.0</ele>
        <time>2015-09-27T12:01:03Z</time>
      </trkpt>
      <trkpt lat="41.049983" lon="-3.743883">
        <ele>2151.0</ele>
        <time>2015-09-27T12:01:05Z</time>
      </trkpt>
      <trkpt lat="41.050100" lon="-3.743850">
        <ele>2151.0</ele>
        <time>2015-09-27T12:01:07Z</time>
      </trkpt>
      <trkpt lat="41.050200" lon="-3.743817">
        <ele>2151.0</ele>
        <time>2015-09-27T12:01:09Z</time>
      </trkpt>
      <trkpt lat="41.050317" lon="-3.743767">
        <ele>2150.0</ele>
        <time>2015-09-27T12:01:11Z</time>
      </trkpt>
      <trkpt lat="41.050433" lon="-3.743733">
        <ele>2149.0</ele>
        <time>2015-09-27T12:01:13Z</time>
      </trkpt>
      <trkpt lat="41.050550" lon="-3.743700">
        <ele>2148.0</ele>
        <time>2015-09-27T12:01:15Z</time>
      </trkpt>
      <trkpt lat="41.050667" lon="-3.743650">
        <ele>2147.0</ele>
        <time>2015-09-27T12:01:17Z</time>
      </trkpt>
      <trkpt lat="41.050800" lon="-3.743617">
        <ele>2147.0</ele>
        <time>2015-09-27T12:01:19Z</time>
      </trkpt>
      <trkpt lat="41.050917" lon="-3.743567">
        <ele>2146.0</ele>
        <time>2015-09-27T12:01:21Z</time>
      </trkpt>
      <trkpt lat="41.051050" lon="-3.743533">
        <ele>2145.0</ele>
        <time>2015-09-27T12:01:23Z</time>
      </trkpt>
      <trkpt lat="41.051183" lon="-3.743500">
        <ele>2145.0</ele>
        <time>2015-09-27T12:01:25Z</time>
      </trkpt>
      <trkpt lat="41.051317" lon="-3.743467">
        <ele>2144.0</ele>
        <time>2015-09-27T12:01:27Z</time>
      </trkpt>
      <trkpt lat="41.051467" lon="-3.743417">
        <ele>2144.0</ele>
        <time>2015-09-27T12:01:29Z</time>
      </trkpt>
      <trkpt lat="41.051617" lon="-3.743367">
        <ele>2145.0</ele>
        <time>2015-09-27T12:01:31Z</time>
      </trkpt>
      <trkpt lat="41.051733" lon="-3.743300">
        <ele>2147.0</ele>
        <time>2015-09-27T12:01:33Z</time>
      </trkpt>
      <trkpt lat="41.051867" lon="-3.743217">
        <ele>2148.0</ele>
        <time>2015-09-27T12:01:35Z</time>
      </trkpt>
      <trkpt lat="41.051983" lon="-3.743117">
        <ele>2149.0</ele>
        <time>2015-09-27T12:01:37Z</time>
      </trkpt>
      <trkpt lat="41.052083" lon="-3.743033">
        <ele>2150.0</ele>
        <time>2015-09-27T12:01:39Z</time>
      </trkpt>
      <trkpt lat="41.052200" lon="-3.742983">
        <ele>2149.0</ele>
        <time>2015-09-27T12:01:41Z</time>
      </trkpt>
      <trkpt lat="41.052350" lon="-3.742933">
        <ele>2152.0</ele>
        <time>2015-09-27T12:01:43Z</time>
      </trkpt>
      <trkpt lat="41.052467" lon="-3.742850">
        <ele>2158.0</ele>
        <time>2015-09-27T12:01:45Z</time>
      </trkpt>
      <trkpt lat="41.052567" lon="-3.742767">
        <ele>2158.0</ele>
        <time>2015-09-27T12:01:47Z</time>
      </trkpt>
      <trkpt lat="41.052700" lon="-3.742667">
        <ele>2159.0</ele>
        <time>2015-09-27T12:01:49Z</time>
      </trkpt>
      <trkpt lat="41.052817" lon="-3.742567">
        <ele>2161.0</ele>
        <time>2015-09-27T12:01:51Z</time>
      </trkpt>
      <trkpt lat="41.052950" lon="-3.742500">
        <ele>2161.0</ele>
        <time>2015-09-27T12:01:53Z</time>
      </trkpt>
      <trkpt lat="41.053083" lon="-3.742450">
        <ele>2162.0</ele>
        <time>2015-09-27T12:01:55Z</time>
      </trkpt>
      <trkpt lat="41.053200" lon="-3.742400">
        <ele>2164.0</ele>
        <time>2015-09-27T12:01:57Z</time>
      </trkpt>
      <trkpt lat="41.053317" lon="-3.742350">
        <ele>2166.0</ele>
        <time>2015-09-27T12:01:59Z</time>
      </trkpt>
      <trkpt lat="41.053450" lon="-3.742283">
        <ele>2166.0</ele>
        <time>2015-09-27T12:02:01Z</time>
      </trkpt>
      <trkpt lat="41.053583" lon="-3.742200">
        <ele>2167.0</ele>
        <time>2015-09-27T12:02:03Z</time>
      </trkpt>
      <trkpt lat="41.053717" lon="-3.742133">
        <ele>2168.0</ele>
        <time>2015-09-27T12:02:05Z</time>
      </trkpt>
      <trkpt lat="41.053850" lon="-3.742033">
        <ele>2168.0</ele>
        <time>2015-09-27T12:02:07Z</time>
      </trkpt>
      <trkpt lat="41.053983" lon="-3.741950">
        <ele>2168.0</ele>
        <time>2015-09-27T12:02:09Z</time>
      </trkpt>
      <trkpt lat="41.054117" lon="-3.741850">
        <ele>2167.0</ele>
        <time>2015-09-27T12:02:11Z</time>
      </trkpt>
      <trkpt lat="41.054233" lon="-3.741767">
        <ele>2168.0</ele>
        <time>2015-09-27T12:02:13Z</time>
      </trkpt>
      <trkpt lat="41.054350" lon="-3.741650">
        <ele>2166.0</ele>
        <time>2015-09-27T12:02:15Z</time>
      </trkpt>
      <trkpt lat="41.054467" lon="-3.741533">
        <ele>2163.0</ele>
        <time>2015-09-27T12:02:17Z</time>
      </trkpt>
      <trkpt lat="41.054617" lon="-3.741383">
        <ele>2161.0</ele>
        <time>2015-09-27T12:02:19Z</time>
      </trkpt>
      <trkpt lat="41.054767" lon="-3.741267">
        <ele>2165.0</ele>
        <time>2015-09-27T12:02:21Z</time>
      </trkpt>
      <trkpt lat="41.054867" lon="-3.741183">
        <ele>2167.0</ele>
        <time>2015-09-27T12:02:23Z</time>
      </trkpt>
      <trkpt lat="41.054967" lon="-3.741050">
        <ele>2167.0</ele>
        <time>2015-09-27T12:02:25Z</time>
      </trkpt>
      <trkpt lat="41.055100" lon="-3.740917">
        <ele>2165.0</ele>
        <time>2015-09-27T12:02:27Z</time>
      </trkpt>
      <trkpt lat="41.055233" lon="-3.740767">
        <ele>2166.0</ele>
        <time>2015-09-27T12:02:29Z</time>
      </trkpt>
      <trkpt lat="41.055317" lon="-3.740617">
        <ele>2166.0</ele>
        <time>2015-09-27T12:02:31Z</time>
      </trkpt>
      <trkpt lat="41.055417" lon="-3.740467">
        <ele>2164.0</ele>
        <time>2015-09-27T12:02:33Z</time>
      </trkpt>
      <trkpt lat="41.055517" lon="-3.740350">
        <ele>2164.0</ele>
        <time>2015-09-27T12:02:35Z</time>
      </trkpt>
      <trkpt lat="41.055633" lon="-3.740217">
        <ele>2165.0</ele>
        <time>2015-09-27T12:02:37Z</time>
      </trkpt>
      <trkpt lat="41.055750" lon="-3.740117">
        <ele>2165.0</ele>
        <time>2015-09-27T12:02:39Z</time>
      </trkpt>
      <trkpt lat="41.055850" lon="-3.739983">
        <ele>2165.0</ele>
        <time>2015-09-27T12:02:41Z</time>
      </trkpt>
      <trkpt lat="41.055967" lon="-3.739833">
        <ele>2164.0</ele>
        <time>2015-09-27T12:02:43Z</time>
      </trkpt>
      <trkpt lat="41.056067" lon="-3.739700">
        <ele>2162.0</ele>
        <time>2015-09-27T12:02:45Z</time>
      </trkpt>
      <trkpt lat="41.056183" lon="-3.739583">
        <ele>2159.0</ele>
        <time>2015-09-27T12:02:47Z</time>
      </trkpt>
      <trkpt lat="41.056300" lon="-3.739500">
        <ele>2158.0</ele>
        <time>2015-09-27T12:02:49Z</time>
      </trkpt>
      <trkpt lat="41.056433" lon="-3.739417">
        <ele>2158.0</ele>
        <time>2015-09-27T12:02:51Z</time>
      </trkpt>
      <trkpt lat="41.056550" lon="-3.739350">
        <ele>2159.0</ele>
        <time>2015-09-27T12:02:53Z</time>
      </trkpt>
      <trkpt lat="41.056633" lon="-3.739300">
        <ele>2160.0</ele>
        <time>2015-09-27T12:02:55Z</time>
      </trkpt>
      <trkpt lat="41.056733" lon="-3.739250">
        <ele>2158.0</ele>
        <time>2015-09-27T12:02:57Z</time>
      </trkpt>
      <trkpt lat="41.056850" lon="-3.739167">
        <ele>2159.0</ele>
        <time>2015-09-27T12:02:59Z</time>
      </trkpt>
      <trkpt lat="41.056983" lon="-3.739033">
        <ele>2163.0</ele>
        <time>2015-09-27T12:03:01Z</time>
      </trkpt>
      <trkpt lat="41.057067" lon="-3.738950">
        <ele>2172.0</ele>
        <time>2015-09-27T12:03:03Z</time>
      </trkpt>
      <trkpt lat="41.057133" lon="-3.738850">
        <ele>2177.0</ele>
        <time>2015-09-27T12:03:05Z</time>
      </trkpt>
      <trkpt lat="41.057217" lon="-3.738750">
        <ele>2180.0</ele>
        <time>2015-09-27T12:03:07Z</time>
      </trkpt>
      <trkpt lat="41.057317" lon="-3.738667">
        <ele>2186.0</ele>
        <time>2015-09-27T12:03:09Z</time>
      </trkpt>
      <trkpt lat="41.057383" lon="-3.738600">
        <ele>2193.0</ele>
        <time>2015-09-27T12:03:11Z</time>
      </trkpt>
      <trkpt lat="41.057450" lon="-3.738517">
        <ele>2197.0</ele>
        <time>2015-09-27T12:03:13Z</time>
      </trkpt>
      <trkpt lat="41.057533" lon="-3.738433">
        <ele>2200.0</ele>
        <time>2015-09-27T12:03:15Z</time>
      </trkpt>
      <trkpt lat="41.057600" lon="-3.738383">
        <ele>2206.0</ele>
        <time>2015-09-27T12:03:17Z</time>
      </trkpt>
      <trkpt lat="41.057667" lon="-3.738317">
        <ele>2210.0</ele>
        <time>2015-09-27T12:03:19Z</time>
      </trkpt>
      <trkpt lat="41.057733" lon="-3.738217">
        <ele>2213.0</ele>
        <time>2015-09-27T12:03:21Z</time>
      </trkpt>
      <trkpt lat="41.057817" lon="-3.738150">
        <ele>2218.0</ele>
        <time>2015-09-27T12:03:23Z</time>
      </trkpt>
      <trkpt lat="41.057883" lon="-3.738083">
        <ele>2226.0</ele>
        <time>2015-09-27T12:03:25Z</time>
      </trkpt>
      <trkpt lat="41.057917" lon="-3.738033">
        <ele>2231.0</ele>
        <time>2015-09-27T12:03:27Z</time>
      </trkpt>
      <trkpt lat="41.057983" lon="-3.737983">
        <ele>2236.0</ele>
        <time>2015-09-27T12:03:29Z</time>
      </trkpt>
      <trkpt lat="41.058050" lon="-3.737933">
        <ele>2243.0</ele>
        <time>2015-09-27T12:03:31Z</time>
      </trkpt>
      <trkpt lat="41.058100" lon="-3.737883">
        <ele>2252.0</ele>
        <time>2015-09-27T12:03:33Z</time>
      </trkpt>
      <trkpt lat="41.058150" lon="-3.737800">
        <ele>2261.0</ele>
        <time>2015-09-27T12:03:35Z</time>
      </trkpt>
      <trkpt lat="41.058217" lon="-3.737717">
        <ele>2268.0</ele>
        <time>2015-09-27T12:03:37Z</time>
      </trkpt>
      <trkpt lat="41.058267" lon="-3.737600">
        <ele>2272.0</ele>
        <time>2015-09-27T12:03:39Z</time>
      </trkpt>
      <trkpt lat="41.058367" lon="-3.737467">
        <ele>2279.0</ele>
        <time>2015-09-27T12:03:41Z</time>
      </trkpt>
      <trkpt lat="41.058433" lon="-3.737333">
        <ele>2287.0</ele>
        <time>2015-09-27T12:03:43Z</time>
      </trkpt>
      <trkpt lat="41.058517" lon="-3.737233">
        <ele>2292.0</ele>
        <time>2015-09-27T12:03:45Z</time>
      </trkpt>
      <trkpt lat="41.058600" lon="-3.737150">
        <ele>2301.0</ele>
        <time>2015-09-27T12:03:47Z</time>
      </trkpt>
      <trkpt lat="41.058650" lon="-3.737100">
        <ele>2307.0</ele>
        <time>2015-09-27T12:03:49Z</time>
      </trkpt>
      <trkpt lat="41.058683" lon="-3.737067">
        <ele>2308.0</ele>
        <time>2015-09-27T12:03:51Z</time>
      </trkpt>
      <trkpt lat="41.058783" lon="-3.737017">
        <ele>2308.0</ele>
        <time>2015-09-27T12:03:53Z</time>
      </trkpt>
      <trkpt lat="41.058867" lon="-3.737000">
        <ele>2313.0</ele>
        <time>2015-09-27T12:03:55Z</time>
      </trkpt>
      <trkpt lat="41.058917" lon="-3.736983">
        <ele>2317.0</ele>
        <time>2015-09-27T12:03:57Z</time>
      </trkpt>
      <trkpt lat="41.058983" lon="-3.736933">
        <ele>2316.0</ele>
        <time>2015-09-27T12:03:59Z</time>
      </trkpt>
      <trkpt lat="41.059100" lon="-3.736867">
        <ele>2318.0</ele>
        <time>2015-09-27T12:04:01Z</time>
      </trkpt>
      <trkpt lat="41.059167" lon="-3.736783">
        <ele>2321.0</ele>
        <time>2015-09-27T12:04:03Z</time>
      </trkpt>
      <trkpt lat="41.059250" lon="-3.736717">
        <ele>2323.0</ele>
        <time>2015-09-27T12:04:05Z</time>
      </trkpt>
      <trkpt lat="41.059333" lon="-3.736667">
        <ele>2322.0</ele>
        <time>2015-09-27T12:04:07Z</time>
      </trkpt>
      <trkpt lat="41.059450" lon="-3.736583">
        <ele>2322.0</ele>
        <time>2015-09-27T12:04:09Z</time>
      </trkpt>
      <trkpt lat="41.059533" lon="-3.736517">
        <ele>2323.0</ele>
        <time>2015-09-27T12:04:11Z</time>
      </trkpt>
      <trkpt lat="41.059617" lon="-3.736467">
        <ele>2323.0</ele>
        <time>2015-09-27T12:04:13Z</time>
      </trkpt>
      <trkpt lat="41.059717" lon="-3.736433">
        <ele>2323.0</ele>
        <time>2015-09-27T12:04:15Z</time>
      </trkpt>
      <trkpt lat="41.059833" lon="-3.736400">
        <ele>2322.0</ele>
        <time>2015-09-27T12:04:17Z</time>
      </trkpt>
      <trkpt lat="41.059950" lon="-3.736350">
        <ele>2323.0</ele>
        <time>2015-09-27T12:04:19Z</time>
      </trkpt>
      <trkpt lat="41.060050" lon="-3.736283">
        <ele>2324.0</ele>
        <time>2015-09-27T12:04:21Z</time>
      </trkpt>
      <trkpt lat="41.060150" lon="-3.736217">
        <ele>2323.0</ele>
        <time>2015-09-27T12:04:23Z</time>
      </trkpt>
      <trkpt lat="41.060250" lon="-3.736133">
        <ele>2323.0</ele>
        <time>2015-09-27T12:04:25Z</time>
      </trkpt>
      <trkpt lat="41.060350" lon="-3.735983">
        <ele>2322.0</ele>
        <time>2015-09-27T12:04:27Z</time>
      </trkpt>
      <trkpt lat="41.060300" lon="-3.736050">
        <ele>2321.0</ele>
        <time>2015-09-27T12:04:29Z</time>
      </trkpt>
      <trkpt lat="41.060517" lon="-3.735933">
        <ele>2319.0</ele>
        <time>2015-09-27T12:04:31Z</time>
      </trkpt>
      <trkpt lat="41.060583" lon="-3.735883">
        <ele>2323.0</ele>
        <time>2015-09-27T12:04:33Z</time>
      </trkpt>
      <trkpt lat="41.060650" lon="-3.735817">
        <ele>2323.0</ele>
        <time>2015-09-27T12:04:35Z</time>
      </trkpt>
      <trkpt lat="41.060733" lon="-3.735750">
        <ele>2323.0</ele>
        <time>2015-09-27T12:04:37Z</time>
      </trkpt>
      <trkpt lat="41.060783" lon="-3.735683">
        <ele>2323.0</ele>
        <time>2015-09-27T12:04:39Z</time>
      </trkpt>
      <trkpt lat="41.060833" lon="-3.735617">
        <ele>2320.0</ele>
        <time>2015-09-27T12:04:41Z</time>
      </trkpt>
      <trkpt lat="41.060917" lon="-3.735550">
        <ele>2317.0</ele>
        <time>2015-09-27T12:04:43Z</time>
      </trkpt>
      <trkpt lat="41.060983" lon="-3.735467">
        <ele>2316.0</ele>
        <time>2015-09-27T12:04:45Z</time>
      </trkpt>
      <trkpt lat="41.061033" lon="-3.735367">
        <ele>2315.0</ele>
        <time>2015-09-27T12:04:47Z</time>
      </trkpt>
      <trkpt lat="41.061100" lon="-3.735233">
        <ele>2310.0</ele>
        <time>2015-09-27T12:04:49Z</time>
      </trkpt>
      <trkpt lat="41.061183" lon="-3.735067">
        <ele>2306.0</ele>
        <time>2015-09-27T12:04:51Z</time>
      </trkpt>
      <trkpt lat="41.061250" lon="-3.734867">
        <ele>2303.0</ele>
        <time>2015-09-27T12:04:53Z</time>
      </trkpt>
      <trkpt lat="41.061333" lon="-3.734717">
        <ele>2302.0</ele>
        <time>2015-09-27T12:04:55Z</time>
      </trkpt>
      <trkpt lat="41.061400" lon="-3.734600">
        <ele>2301.0</ele>
        <time>2015-09-27T12:04:57Z</time>
      </trkpt>
      <trkpt lat="41.061450" lon="-3.734483">
        <ele>2298.0</ele>
        <time>2015-09-27T12:04:59Z</time>
      </trkpt>
      <trkpt lat="41.061550" lon="-3.734400">
        <ele>2294.0</ele>
        <time>2015-09-27T12:05:01Z</time>
      </trkpt>
      <trkpt lat="41.061650" lon="-3.734300">
        <ele>2294.0</ele>
        <time>2015-09-27T12:05:03Z</time>
      </trkpt>
      <trkpt lat="41.061733" lon="-3.734217">
        <ele>2292.0</ele>
        <time>2015-09-27T12:05:05Z</time>
      </trkpt>
      <trkpt lat="41.061817" lon="-3.734133">
        <ele>2288.0</ele>
        <time>2015-09-27T12:05:07Z</time>
      </trkpt>
      <trkpt lat="41.061917" lon="-3.734033">
        <ele>2286.0</ele>
        <time>2015-09-27T12:05:09Z</time>
      </trkpt>
      <trkpt lat="41.062000" lon="-3.733950">
        <ele>2285.0</ele>
        <time>2015-09-27T12:05:11Z</time>
      </trkpt>
      <trkpt lat="41.062083" lon="-3.733867">
        <ele>2283.0</ele>
        <time>2015-09-27T12:05:13Z</time>
      </trkpt>
      <trkpt lat="41.062167" lon="-3.733783">
        <ele>2282.0</ele>
        <time>2015-09-27T12:05:15Z</time>
      </trkpt>
      <trkpt lat="41.062250" lon="-3.733700">
        <ele>2280.0</ele>
        <time>2015-09-27T12:05:17Z</time>
      </trkpt>
      <trkpt lat="41.062333" lon="-3.733633">
        <ele>2280.0</ele>
        <time>2015-09-27T12:05:19Z</time>
      </trkpt>
      <trkpt lat="41.062400" lon="-3.733550">
        <ele>2280.0</ele>
        <time>2015-09-27T12:05:21Z</time>
      </trkpt>
      <trkpt lat="41.062467" lon="-3.733467">
        <ele>2279.0</ele>
        <time>2015-09-27T12:05:23Z</time>
      </trkpt>
      <trkpt lat="41.062550" lon="-3.733367">
        <ele>2278.0</ele>
        <time>2015-09-27T12:05:25Z</time>
      </trkpt>
      <trkpt lat="41.062650" lon="-3.733283">
        <ele>2277.0</ele>
        <time>2015-09-27T12:05:27Z</time>
      </trkpt>
      <trkpt lat="41.062733" lon="-3.733183">
        <ele>2278.0</ele>
        <time>2015-09-27T12:05:29Z</time>
      </trkpt>
      <trkpt lat="41.062800" lon="-3.733100">
        <ele>2278.0</ele>
        <time>2015-09-27T12:05:31Z</time>
      </trkpt>
      <trkpt lat="41.062883" lon="-3.733000">
        <ele>2275.0</ele>
        <time>2015-09-27T12:05:33Z</time>
      </trkpt>
      <trkpt lat="41.062967" lon="-3.732850">
        <ele>2273.0</ele>
        <time>2015-09-27T12:05:35Z</time>
      </trkpt>
      <trkpt lat="41.063033" lon="-3.732717">
        <ele>2270.0</ele>
        <time>2015-09-27T12:05:37Z</time>
      </trkpt>
      <trkpt lat="41.063117" lon="-3.732633">
        <ele>2263.0</ele>
        <time>2015-09-27T12:05:39Z</time>
      </trkpt>
      <trkpt lat="41.063217" lon="-3.732517">
        <ele>2258.0</ele>
        <time>2015-09-27T12:05:41Z</time>
      </trkpt>
      <trkpt lat="41.063300" lon="-3.732400">
        <ele>2256.0</ele>
        <time>2015-09-27T12:05:43Z</time>
      </trkpt>
      <trkpt lat="41.063367" lon="-3.732267">
        <ele>2253.0</ele>
        <time>2015-09-27T12:05:45Z</time>
      </trkpt>
      <trkpt lat="41.063450" lon="-3.732150">
        <ele>2249.0</ele>
        <time>2015-09-27T12:05:47Z</time>
      </trkpt>
      <trkpt lat="41.063533" lon="-3.732017">
        <ele>2246.0</ele>
        <time>2015-09-27T12:05:49Z</time>
      </trkpt>
      <trkpt lat="41.063617" lon="-3.731917">
        <ele>2244.0</ele>
        <time>2015-09-27T12:05:51Z</time>
      </trkpt>
      <trkpt lat="41.063700" lon="-3.731800">
        <ele>2242.0</ele>
        <time>2015-09-27T12:05:53Z</time>
      </trkpt>
      <trkpt lat="41.063783" lon="-3.731683">
        <ele>2240.0</ele>
        <time>2015-09-27T12:05:55Z</time>
      </trkpt>
      <trkpt lat="41.063867" lon="-3.731567">
        <ele>2238.0</ele>
        <time>2015-09-27T12:05:57Z</time>
      </trkpt>
      <trkpt lat="41.063950" lon="-3.731483">
        <ele>2234.0</ele>
        <time>2015-09-27T12:05:59Z</time>
      </trkpt>
      <trkpt lat="41.064067" lon="-3.731367">
        <ele>2231.0</ele>
        <time>2015-09-27T12:06:01Z</time>
      </trkpt>
      <trkpt lat="41.064150" lon="-3.731283">
        <ele>2228.0</ele>
        <time>2015-09-27T12:06:03Z</time>
      </trkpt>
      <trkpt lat="41.064250" lon="-3.731200">
        <ele>2224.0</ele>
        <time>2015-09-27T12:06:05Z</time>
      </trkpt>
      <trkpt lat="41.064350" lon="-3.731117">
        <ele>2220.0</ele>
        <time>2015-09-27T12:06:07Z</time>
      </trkpt>
      <trkpt lat="41.064467" lon="-3.730983">
        <ele>2217.0</ele>
        <time>2015-09-27T12:06:09Z</time>
      </trkpt>
      <trkpt lat="41.064567" lon="-3.730850">
        <ele>2214.0</ele>
        <time>2015-09-27T12:06:11Z</time>
      </trkpt>
      <trkpt lat="41.064667" lon="-3.730733">
        <ele>2211.0</ele>
        <time>2015-09-27T12:06:13Z</time>
      </trkpt>
      <trkpt lat="41.064783" lon="-3.730617">
        <ele>2209.0</ele>
        <time>2015-09-27T12:06:15Z</time>
      </trkpt>
      <trkpt lat="41.064883" lon="-3.730517">
        <ele>2208.0</ele>
        <time>2015-09-27T12:06:17Z</time>
      </trkpt>
      <trkpt lat="41.064983" lon="-3.730417">
        <ele>2204.0</ele>
        <time>2015-09-27T12:06:19Z</time>
      </trkpt>
      <trkpt lat="41.065100" lon="-3.730333">
        <ele>2199.0</ele>
        <time>2015-09-27T12:06:21Z</time>
      </trkpt>
      <trkpt lat="41.065217" lon="-3.730233">
        <ele>2198.0</ele>
        <time>2015-09-27T12:06:23Z</time>
      </trkpt>
      <trkpt lat="41.065317" lon="-3.730133">
        <ele>2197.0</ele>
        <time>2015-09-27T12:06:25Z</time>
      </trkpt>
      <trkpt lat="41.065433" lon="-3.730033">
        <ele>2194.0</ele>
        <time>2015-09-27T12:06:27Z</time>
      </trkpt>
      <trkpt lat="41.065567" lon="-3.729950">
        <ele>2194.0</ele>
        <time>2015-09-27T12:06:29Z</time>
      </trkpt>
      <trkpt lat="41.065667" lon="-3.729867">
        <ele>2196.0</ele>
        <time>2015-09-27T12:06:31Z</time>
      </trkpt>
      <trkpt lat="41.065767" lon="-3.729800">
        <ele>2193.0</ele>
        <time>2015-09-27T12:06:33Z</time>
      </trkpt>
      <trkpt lat="41.065900" lon="-3.729717">
        <ele>2190.0</ele>
        <time>2015-09-27T12:06:35Z</time>
      </trkpt>
      <trkpt lat="41.066017" lon="-3.729633">
        <ele>2190.0</ele>
        <time>2015-09-27T12:06:37Z</time>
      </trkpt>
      <trkpt lat="41.066117" lon="-3.729533">
        <ele>2191.0</ele>
        <time>2015-09-27T12:06:39Z</time>
      </trkpt>
      <trkpt lat="41.066217" lon="-3.729433">
        <ele>2191.0</ele>
        <time>2015-09-27T12:06:41Z</time>
      </trkpt>
      <trkpt lat="41.066333" lon="-3.729317">
        <ele>2189.0</ele>
        <time>2015-09-27T12:06:43Z</time>
      </trkpt>
      <trkpt lat="41.066450" lon="-3.729200">
        <ele>2187.0</ele>
        <time>2015-09-27T12:06:45Z</time>
      </trkpt>
      <trkpt lat="41.066567" lon="-3.729100">
        <ele>2186.0</ele>
        <time>2015-09-27T12:06:47Z</time>
      </trkpt>
      <trkpt lat="41.066683" lon="-3.729017">
        <ele>2185.0</ele>
        <time>2015-09-27T12:06:49Z</time>
      </trkpt>
      <trkpt lat="41.066817" lon="-3.728917">
        <ele>2186.0</ele>
        <time>2015-09-27T12:06:51Z</time>
      </trkpt>
      <trkpt lat="41.066917" lon="-3.728833">
        <ele>2188.0</ele>
        <time>2015-09-27T12:06:53Z</time>
      </trkpt>
      <trkpt lat="41.067017" lon="-3.728717">
        <ele>2187.0</ele>
        <time>2015-09-27T12:06:55Z</time>
      </trkpt>
      <trkpt lat="41.067150" lon="-3.728600">
        <ele>2184.0</ele>
        <time>2015-09-27T12:06:57Z</time>
      </trkpt>
      <trkpt lat="41.067267" lon="-3.728500">
        <ele>2185.0</ele>
        <time>2015-09-27T12:06:59Z</time>
      </trkpt>
      <trkpt lat="41.067367" lon="-3.728383">
        <ele>2186.0</ele>
        <time>2015-09-27T12:07:01Z</time>
      </trkpt>
      <trkpt lat="41.067483" lon="-3.728250">
        <ele>2184.0</ele>
        <time>2015-09-27T12:07:03Z</time>
      </trkpt>
      <trkpt lat="41.067600" lon="-3.728100">
        <ele>2182.0</ele>
        <time>2015-09-27T12:07:05Z</time>
      </trkpt>
      <trkpt lat="41.067700" lon="-3.727967">
        <ele>2181.0</ele>
        <time>2015-09-27T12:07:07Z</time>
      </trkpt>
      <trkpt lat="41.067783" lon="-3.727850">
        <ele>2181.0</ele>
        <time>2015-09-27T12:07:09Z</time>
      </trkpt>
      <trkpt lat="41.067867" lon="-3.727717">
        <ele>2179.0</ele>
        <time>2015-09-27T12:07:11Z</time>
      </trkpt>
      <trkpt lat="41.067967" lon="-3.727600">
        <ele>2177.0</ele>
        <time>2015-09-27T12:07:13Z</time>
      </trkpt>
      <trkpt lat="41.068067" lon="-3.727467">
        <ele>2176.0</ele>
        <time>2015-09-27T12:07:15Z</time>
      </trkpt>
      <trkpt lat="41.068150" lon="-3.727333">
        <ele>2175.0</ele>
        <time>2015-09-27T12:07:17Z</time>
      </trkpt>
      <trkpt lat="41.068267" lon="-3.727233">
        <ele>2173.0</ele>
        <time>2015-09-27T12:07:19Z</time>
      </trkpt>
      <trkpt lat="41.068383" lon="-3.727117">
        <ele>2174.0</ele>
        <time>2015-09-27T12:07:21Z</time>
      </trkpt>
      <trkpt lat="41.068500" lon="-3.727000">
        <ele>2174.0</ele>
        <time>2015-09-27T12:07:23Z</time>
      </trkpt>
      <trkpt lat="41.068617" lon="-3.726883">
        <ele>2173.0</ele>
        <time>2015-09-27T12:07:25Z</time>
      </trkpt>
      <trkpt lat="41.068717" lon="-3.726767">
        <ele>2172.0</ele>
        <time>2015-09-27T12:07:27Z</time>
      </trkpt>
      <trkpt lat="41.068817" lon="-3.726650">
        <ele>2169.0</ele>
        <time>2015-09-27T12:07:29Z</time>
      </trkpt>
      <trkpt lat="41.068933" lon="-3.726533">
        <ele>2167.0</ele>
        <time>2015-09-27T12:07:31Z</time>
      </trkpt>
      <trkpt lat="41.069033" lon="-3.726417">
        <ele>2166.0</ele>
        <time>2015-09-27T12:07:33Z</time>
      </trkpt>
      <trkpt lat="41.069117" lon="-3.726300">
        <ele>2164.0</ele>
        <time>2015-09-27T12:07:35Z</time>
      </trkpt>
      <trkpt lat="41.069217" lon="-3.726200">
        <ele>2160.0</ele>
        <time>2015-09-27T12:07:37Z</time>
      </trkpt>
      <trkpt lat="41.069317" lon="-3.726117">
        <ele>2158.0</ele>
        <time>2015-09-27T12:07:39Z</time>
      </trkpt>
      <trkpt lat="41.069400" lon="-3.726017">
        <ele>2154.0</ele>
        <time>2015-09-27T12:07:41Z</time>
      </trkpt>
      <trkpt lat="41.069517" lon="-3.725900">
        <ele>2151.0</ele>
        <time>2015-09-27T12:07:43Z</time>
      </trkpt>
      <trkpt lat="41.069617" lon="-3.725783">
        <ele>2149.0</ele>
        <time>2015-09-27T12:07:45Z</time>
      </trkpt>
      <trkpt lat="41.069733" lon="-3.725700">
        <ele>2145.0</ele>
        <time>2015-09-27T12:07:47Z</time>
      </trkpt>
      <trkpt lat="41.069867" lon="-3.725617">
        <ele>2142.0</ele>
        <time>2015-09-27T12:07:49Z</time>
      </trkpt>
      <trkpt lat="41.070000" lon="-3.725517">
        <ele>2140.0</ele>
        <time>2015-09-27T12:07:51Z</time>
      </trkpt>
      <trkpt lat="41.070100" lon="-3.725433">
        <ele>2137.0</ele>
        <time>2015-09-27T12:07:53Z</time>
      </trkpt>
      <trkpt lat="41.070217" lon="-3.725367">
        <ele>2135.0</ele>
        <time>2015-09-27T12:07:55Z</time>
      </trkpt>
      <trkpt lat="41.070300" lon="-3.725267">
        <ele>2132.0</ele>
        <time>2015-09-27T12:07:57Z</time>
      </trkpt>
      <trkpt lat="41.070417" lon="-3.725150">
        <ele>2127.0</ele>
        <time>2015-09-27T12:07:59Z</time>
      </trkpt>
      <trkpt lat="41.070533" lon="-3.725033">
        <ele>2125.0</ele>
        <time>2015-09-27T12:08:01Z</time>
      </trkpt>
      <trkpt lat="41.070633" lon="-3.724933">
        <ele>2123.0</ele>
        <time>2015-09-27T12:08:03Z</time>
      </trkpt>
      <trkpt lat="41.070733" lon="-3.724833">
        <ele>2120.0</ele>
        <time>2015-09-27T12:08:05Z</time>
      </trkpt>
      <trkpt lat="41.070850" lon="-3.724750">
        <ele>2117.0</ele>
        <time>2015-09-27T12:08:07Z</time>
      </trkpt>
      <trkpt lat="41.070950" lon="-3.724683">
        <ele>2115.0</ele>
        <time>2015-09-27T12:08:09Z</time>
      </trkpt>
      <trkpt lat="41.071050" lon="-3.724600">
        <ele>2114.0</ele>
        <time>2015-09-27T12:08:11Z</time>
      </trkpt>
      <trkpt lat="41.071133" lon="-3.724517">
        <ele>2112.0</ele>
        <time>2015-09-27T12:08:13Z</time>
      </trkpt>
      <trkpt lat="41.071233" lon="-3.724417">
        <ele>2110.0</ele>
        <time>2015-09-27T12:08:15Z</time>
      </trkpt>
      <trkpt lat="41.071333" lon="-3.724333">
        <ele>2109.0</ele>
        <time>2015-09-27T12:08:17Z</time>
      </trkpt>
      <trkpt lat="41.071433" lon="-3.724250">
        <ele>2107.0</ele>
        <time>2015-09-27T12:08:19Z</time>
      </trkpt>
      <trkpt lat="41.071533" lon="-3.724167">
        <ele>2104.0</ele>
        <time>2015-09-27T12:08:21Z</time>
      </trkpt>
      <trkpt lat="41.071650" lon="-3.724067">
        <ele>2103.0</ele>
        <time>2015-09-27T12:08:23Z</time>
      </trkpt>
      <trkpt lat="41.071750" lon="-3.723983">
        <ele>2102.0</ele>
        <time>2015-09-27T12:08:25Z</time>
      </trkpt>
      <trkpt lat="41.071850" lon="-3.723900">
        <ele>2100.0</ele>
        <time>2015-09-27T12:08:27Z</time>
      </trkpt>
      <trkpt lat="41.071950" lon="-3.723817">
        <ele>2099.0</ele>
        <time>2015-09-27T12:08:29Z</time>
      </trkpt>
      <trkpt lat="41.072050" lon="-3.723733">
        <ele>2098.0</ele>
        <time>2015-09-27T12:08:31Z</time>
      </trkpt>
      <trkpt lat="41.072150" lon="-3.723650">
        <ele>2097.0</ele>
        <time>2015-09-27T12:08:33Z</time>
      </trkpt>
      <trkpt lat="41.072250" lon="-3.723533">
        <ele>2095.0</ele>
        <time>2015-09-27T12:08:35Z</time>
      </trkpt>
      <trkpt lat="41.072367" lon="-3.723433">
        <ele>2093.0</ele>
        <time>2015-09-27T12:08:37Z</time>
      </trkpt>
      <trkpt lat="41.072483" lon="-3.723317">
        <ele>2092.0</ele>
        <time>2015-09-27T12:08:39Z</time>
      </trkpt>
      <trkpt lat="41.072583" lon="-3.723200">
        <ele>2090.0</ele>
        <time>2015-09-27T12:08:41Z</time>
      </trkpt>
      <trkpt lat="41.072700" lon="-3.723100">
        <ele>2089.0</ele>
        <time>2015-09-27T12:08:43Z</time>
      </trkpt>
      <trkpt lat="41.072800" lon="-3.723000">
        <ele>2088.0</ele>
        <time>2015-09-27T12:08:45Z</time>
      </trkpt>
      <trkpt lat="41.072900" lon="-3.722900">
        <ele>2086.0</ele>
        <time>2015-09-27T12:08:47Z</time>
      </trkpt>
      <trkpt lat="41.073000" lon="-3.722800">
        <ele>2084.0</ele>
        <time>2015-09-27T12:08:49Z</time>
      </trkpt>
      <trkpt lat="41.073100" lon="-3.722717">
        <ele>2081.0</ele>
        <time>2015-09-27T12:08:51Z</time>
      </trkpt>
      <trkpt lat="41.073217" lon="-3.722617">
        <ele>2078.0</ele>
        <time>2015-09-27T12:08:53Z</time>
      </trkpt>
      <trkpt lat="41.073317" lon="-3.722533">
        <ele>2075.0</ele>
        <time>2015-09-27T12:08:55Z</time>
      </trkpt>
      <trkpt lat="41.073417" lon="-3.722450">
        <ele>2072.0</ele>
        <time>2015-09-27T12:08:57Z</time>
      </trkpt>
      <trkpt lat="41.073533" lon="-3.722367">
        <ele>2068.0</ele>
        <time>2015-09-27T12:08:59Z</time>
      </trkpt>
      <trkpt lat="41.073650" lon="-3.722267">
        <ele>2066.0</ele>
        <time>2015-09-27T12:09:01Z</time>
      </trkpt>
      <trkpt lat="41.073750" lon="-3.722167">
        <ele>2063.0</ele>
        <time>2015-09-27T12:09:03Z</time>
      </trkpt>
      <trkpt lat="41.073850" lon="-3.722067">
        <ele>2059.0</ele>
        <time>2015-09-27T12:09:05Z</time>
      </trkpt>
      <trkpt lat="41.073967" lon="-3.721950">
        <ele>2055.0</ele>
        <time>2015-09-27T12:09:07Z</time>
      </trkpt>
      <trkpt lat="41.074067" lon="-3.721833">
        <ele>2052.0</ele>
        <time>2015-09-27T12:09:09Z</time>
      </trkpt>
      <trkpt lat="41.074167" lon="-3.721717">
        <ele>2048.0</ele>
        <time>2015-09-27T12:09:11Z</time>
      </trkpt>
      <trkpt lat="41.074283" lon="-3.721583">
        <ele>2044.0</ele>
        <time>2015-09-27T12:09:13Z</time>
      </trkpt>
      <trkpt lat="41.074400" lon="-3.721450">
        <ele>2040.0</ele>
        <time>2015-09-27T12:09:15Z</time>
      </trkpt>
      <trkpt lat="41.074517" lon="-3.721317">
        <ele>2037.0</ele>
        <time>2015-09-27T12:09:17Z</time>
      </trkpt>
      <trkpt lat="41.074617" lon="-3.721183">
        <ele>2034.0</ele>
        <time>2015-09-27T12:09:19Z</time>
      </trkpt>
      <trkpt lat="41.074733" lon="-3.721083">
        <ele>2030.0</ele>
        <time>2015-09-27T12:09:21Z</time>
      </trkpt>
      <trkpt lat="41.074833" lon="-3.720967">
        <ele>2026.0</ele>
        <time>2015-09-27T12:09:23Z</time>
      </trkpt>
      <trkpt lat="41.074950" lon="-3.720883">
        <ele>2023.0</ele>
        <time>2015-09-27T12:09:25Z</time>
      </trkpt>
      <trkpt lat="41.075067" lon="-3.720783">
        <ele>2021.0</ele>
        <time>2015-09-27T12:09:27Z</time>
      </trkpt>
      <trkpt lat="41.075167" lon="-3.720683">
        <ele>2019.0</ele>
        <time>2015-09-27T12:09:29Z</time>
      </trkpt>
      <trkpt lat="41.075250" lon="-3.720583">
        <ele>2015.0</ele>
        <time>2015-09-27T12:09:31Z</time>
      </trkpt>
      <trkpt lat="41.075367" lon="-3.720517">
        <ele>2008.0</ele>
        <time>2015-09-27T12:09:33Z</time>
      </trkpt>
      <trkpt lat="41.075500" lon="-3.720433">
        <ele>2003.0</ele>
        <time>2015-09-27T12:09:35Z</time>
      </trkpt>
      <trkpt lat="41.075617" lon="-3.720367">
        <ele>1999.0</ele>
        <time>2015-09-27T12:09:37Z</time>
      </trkpt>
      <trkpt lat="41.075750" lon="-3.720300">
        <ele>1996.0</ele>
        <time>2015-09-27T12:09:39Z</time>
      </trkpt>
      <trkpt lat="41.075867" lon="-3.720250">
        <ele>1996.0</ele>
        <time>2015-09-27T12:09:41Z</time>
      </trkpt>
      <trkpt lat="41.075967" lon="-3.720200">
        <ele>1997.0</ele>
        <time>2015-09-27T12:09:43Z</time>
      </trkpt>
      <trkpt lat="41.076067" lon="-3.720133">
        <ele>1995.0</ele>
        <time>2015-09-27T12:09:45Z</time>
      </trkpt>
      <trkpt lat="41.076183" lon="-3.720067">
        <ele>1993.0</ele>
        <time>2015-09-27T12:09:47Z</time>
      </trkpt>
      <trkpt lat="41.076283" lon="-3.719983">
        <ele>1991.0</ele>
        <time>2015-09-27T12:09:49Z</time>
      </trkpt>
      <trkpt lat="41.076383" lon="-3.719867">
        <ele>1987.0</ele>
        <time>2015-09-27T12:09:51Z</time>
      </trkpt>
      <trkpt lat="41.076517" lon="-3.719800">
        <ele>1983.0</ele>
        <time>2015-09-27T12:09:53Z</time>
      </trkpt>
      <trkpt lat="41.076667" lon="-3.719717">
        <ele>1983.0</ele>
        <time>2015-09-27T12:09:55Z</time>
      </trkpt>
      <trkpt lat="41.076767" lon="-3.719633">
        <ele>1981.0</ele>
        <time>2015-09-27T12:09:57Z</time>
      </trkpt>
      <trkpt lat="41.076883" lon="-3.719567">
        <ele>1977.0</ele>
        <time>2015-09-27T12:09:59Z</time>
      </trkpt>
      <trkpt lat="41.077017" lon="-3.719483">
        <ele>1971.0</ele>
        <time>2015-09-27T12:10:01Z</time>
      </trkpt>
      <trkpt lat="41.077150" lon="-3.719400">
        <ele>1967.0</ele>
        <time>2015-09-27T12:10:03Z</time>
      </trkpt>
      <trkpt lat="41.077283" lon="-3.719367">
        <ele>1964.0</ele>
        <time>2015-09-27T12:10:05Z</time>
      </trkpt>
      <trkpt lat="41.077417" lon="-3.719333">
        <ele>1965.0</ele>
        <time>2015-09-27T12:10:07Z</time>
      </trkpt>
      <trkpt lat="41.077550" lon="-3.719283">
        <ele>1966.0</ele>
        <time>2015-09-27T12:10:09Z</time>
      </trkpt>
      <trkpt lat="41.077683" lon="-3.719250">
        <ele>1964.0</ele>
        <time>2015-09-27T12:10:11Z</time>
      </trkpt>
      <trkpt lat="41.077833" lon="-3.719183">
        <ele>1964.0</ele>
        <time>2015-09-27T12:10:13Z</time>
      </trkpt>
      <trkpt lat="41.077967" lon="-3.719117">
        <ele>1963.0</ele>
        <time>2015-09-27T12:10:15Z</time>
      </trkpt>
      <trkpt lat="41.078117" lon="-3.719067">
        <ele>1961.0</ele>
        <time>2015-09-27T12:10:17Z</time>
      </trkpt>
      <trkpt lat="41.078267" lon="-3.719000">
        <ele>1958.0</ele>
        <time>2015-09-27T12:10:19Z</time>
      </trkpt>
      <trkpt lat="41.078400" lon="-3.718917">
        <ele>1955.0</ele>
        <time>2015-09-27T12:10:21Z</time>
      </trkpt>
      <trkpt lat="41.078533" lon="-3.718867">
        <ele>1950.0</ele>
        <time>2015-09-27T12:10:23Z</time>
      </trkpt>
      <trkpt lat="41.078683" lon="-3.718800">
        <ele>1943.0</ele>
        <time>2015-09-27T12:10:25Z</time>
      </trkpt>
      <trkpt lat="41.078833" lon="-3.718767">
        <ele>1939.0</ele>
        <time>2015-09-27T12:10:27Z</time>
      </trkpt>
      <trkpt lat="41.078967" lon="-3.718717">
        <ele>1937.0</ele>
        <time>2015-09-27T12:10:29Z</time>
      </trkpt>
      <trkpt lat="41.079083" lon="-3.718650">
        <ele>1933.0</ele>
        <time>2015-09-27T12:10:31Z</time>
      </trkpt>
      <trkpt lat="41.079200" lon="-3.718600">
        <ele>1928.0</ele>
        <time>2015-09-27T12:10:33Z</time>
      </trkpt>
      <trkpt lat="41.079350" lon="-3.718550">
        <ele>1924.0</ele>
        <time>2015-09-27T12:10:35Z</time>
      </trkpt>
      <trkpt lat="41.079483" lon="-3.718517">
        <ele>1923.0</ele>
        <time>2015-09-27T12:10:37Z</time>
      </trkpt>
      <trkpt lat="41.079600" lon="-3.718467">
        <ele>1921.0</ele>
        <time>2015-09-27T12:10:39Z</time>
      </trkpt>
      <trkpt lat="41.079717" lon="-3.718433">
        <ele>1918.0</ele>
        <time>2015-09-27T12:10:41Z</time>
      </trkpt>
      <trkpt lat="41.079850" lon="-3.718383">
        <ele>1916.0</ele>
        <time>2015-09-27T12:10:43Z</time>
      </trkpt>
      <trkpt lat="41.079983" lon="-3.718333">
        <ele>1914.0</ele>
        <time>2015-09-27T12:10:45Z</time>
      </trkpt>
      <trkpt lat="41.080117" lon="-3.718267">
        <ele>1911.0</ele>
        <time>2015-09-27T12:10:47Z</time>
      </trkpt>
      <trkpt lat="41.080267" lon="-3.718183">
        <ele>1908.0</ele>
        <time>2015-09-27T12:10:49Z</time>
      </trkpt>
      <trkpt lat="41.080400" lon="-3.718083">
        <ele>1907.0</ele>
        <time>2015-09-27T12:10:51Z</time>
      </trkpt>
      <trkpt lat="41.080533" lon="-3.718017">
        <ele>1905.0</ele>
        <time>2015-09-27T12:10:53Z</time>
      </trkpt>
      <trkpt lat="41.080667" lon="-3.717967">
        <ele>1903.0</ele>
        <time>2015-09-27T12:10:55Z</time>
      </trkpt>
      <trkpt lat="41.080800" lon="-3.717917">
        <ele>1902.0</ele>
        <time>2015-09-27T12:10:57Z</time>
      </trkpt>
      <trkpt lat="41.080933" lon="-3.717867">
        <ele>1902.0</ele>
        <time>2015-09-27T12:10:59Z</time>
      </trkpt>
      <trkpt lat="41.081050" lon="-3.717833">
        <ele>1901.0</ele>
        <time>2015-09-27T12:11:01Z</time>
      </trkpt>
      <trkpt lat="41.081167" lon="-3.717783">
        <ele>1899.0</ele>
        <time>2015-09-27T12:11:03Z</time>
      </trkpt>
      <trkpt lat="41.081300" lon="-3.717733">
        <ele>1897.0</ele>
        <time>2015-09-27T12:11:05Z</time>
      </trkpt>
      <trkpt lat="41.081433" lon="-3.717700">
        <ele>1895.0</ele>
        <time>2015-09-27T12:11:07Z</time>
      </trkpt>
      <trkpt lat="41.081567" lon="-3.717667">
        <ele>1893.0</ele>
        <time>2015-09-27T12:11:09Z</time>
      </trkpt>
      <trkpt lat="41.081683" lon="-3.717617">
        <ele>1890.0</ele>
        <time>2015-09-27T12:11:11Z</time>
      </trkpt>
      <trkpt lat="41.081817" lon="-3.717567">
        <ele>1887.0</ele>
        <time>2015-09-27T12:11:13Z</time>
      </trkpt>
      <trkpt lat="41.081950" lon="-3.717517">
        <ele>1885.0</ele>
        <time>2015-09-27T12:11:15Z</time>
      </trkpt>
      <trkpt lat="41.082050" lon="-3.717450">
        <ele>1884.0</ele>
        <time>2015-09-27T12:11:17Z</time>
      </trkpt>
      <trkpt lat="41.082150" lon="-3.717400">
        <ele>1880.0</ele>
        <time>2015-09-27T12:11:19Z</time>
      </trkpt>
      <trkpt lat="41.082250" lon="-3.717367">
        <ele>1876.0</ele>
        <time>2015-09-27T12:11:21Z</time>
      </trkpt>
      <trkpt lat="41.082367" lon="-3.717333">
        <ele>1872.0</ele>
        <time>2015-09-27T12:11:23Z</time>
      </trkpt>
      <trkpt lat="41.082483" lon="-3.717300">
        <ele>1867.0</ele>
        <time>2015-09-27T12:11:25Z</time>
      </trkpt>
      <trkpt lat="41.082617" lon="-3.717283">
        <ele>1863.0</ele>
        <time>2015-09-27T12:11:27Z</time>
      </trkpt>
      <trkpt lat="41.082767" lon="-3.717233">
        <ele>1861.0</ele>
        <time>2015-09-27T12:11:29Z</time>
      </trkpt>
      <trkpt lat="41.082883" lon="-3.717200">
        <ele>1861.0</ele>
        <time>2015-09-27T12:11:31Z</time>
      </trkpt>
      <trkpt lat="41.083017" lon="-3.717133">
        <ele>1859.0</ele>
        <time>2015-09-27T12:11:33Z</time>
      </trkpt>
      <trkpt lat="41.083117" lon="-3.717017">
        <ele>1858.0</ele>
        <time>2015-09-27T12:11:35Z</time>
      </trkpt>
      <trkpt lat="41.083233" lon="-3.716933">
        <ele>1856.0</ele>
        <time>2015-09-27T12:11:37Z</time>
      </trkpt>
      <trkpt lat="41.083350" lon="-3.716800">
        <ele>1856.0</ele>
        <time>2015-09-27T12:11:39Z</time>
      </trkpt>
      <trkpt lat="41.083417" lon="-3.716600">
        <ele>1855.0</ele>
        <time>2015-09-27T12:11:41Z</time>
      </trkpt>
      <trkpt lat="41.083500" lon="-3.716517">
        <ele>1849.0</ele>
        <time>2015-09-27T12:11:43Z</time>
      </trkpt>
      <trkpt lat="41.083583" lon="-3.716483">
        <ele>1846.0</ele>
        <time>2015-09-27T12:11:45Z</time>
      </trkpt>
      <trkpt lat="41.083683" lon="-3.716400">
        <ele>1841.0</ele>
        <time>2015-09-27T12:11:47Z</time>
      </trkpt>
      <trkpt lat="41.083800" lon="-3.716350">
        <ele>1837.0</ele>
        <time>2015-09-27T12:11:49Z</time>
      </trkpt>
      <trkpt lat="41.083917" lon="-3.716350">
        <ele>1833.0</ele>
        <time>2015-09-27T12:11:51Z</time>
      </trkpt>
      <trkpt lat="41.084033" lon="-3.716283">
        <ele>1828.0</ele>
        <time>2015-09-27T12:11:53Z</time>
      </trkpt>
      <trkpt lat="41.084167" lon="-3.716267">
        <ele>1827.0</ele>
        <time>2015-09-27T12:11:55Z</time>
      </trkpt>
      <trkpt lat="41.084267" lon="-3.716283">
        <ele>1829.0</ele>
        <time>2015-09-27T12:11:57Z</time>
      </trkpt>
      <trkpt lat="41.084400" lon="-3.716267">
        <ele>1830.0</ele>
        <time>2015-09-27T12:11:59Z</time>
      </trkpt>
      <trkpt lat="41.084517" lon="-3.716250">
        <ele>1830.0</ele>
        <time>2015-09-27T12:12:01Z</time>
      </trkpt>
      <trkpt lat="41.084667" lon="-3.716217">
        <ele>1832.0</ele>
        <time>2015-09-27T12:12:03Z</time>
      </trkpt>
      <trkpt lat="41.084767" lon="-3.716200">
        <ele>1834.0</ele>
        <time>2015-09-27T12:12:05Z</time>
      </trkpt>
      <trkpt lat="41.084883" lon="-3.716150">
        <ele>1835.0</ele>
        <time>2015-09-27T12:12:07Z</time>
      </trkpt>
      <trkpt lat="41.085000" lon="-3.716083">
        <ele>1837.0</ele>
        <time>2015-09-27T12:12:09Z</time>
      </trkpt>
      <trkpt lat="41.085100" lon="-3.716017">
        <ele>1840.0</ele>
        <time>2015-09-27T12:12:11Z</time>
      </trkpt>
      <trkpt lat="41.085200" lon="-3.715967">
        <ele>1841.0</ele>
        <time>2015-09-27T12:12:13Z</time>
      </trkpt>
      <trkpt lat="41.085300" lon="-3.715917">
        <ele>1842.0</ele>
        <time>2015-09-27T12:12:15Z</time>
      </trkpt>
      <trkpt lat="41.085400" lon="-3.715900">
        <ele>1842.0</ele>
        <time>2015-09-27T12:12:17Z</time>
      </trkpt>
      <trkpt lat="41.085550" lon="-3.715933">
        <ele>1845.0</ele>
        <time>2015-09-27T12:12:19Z</time>
      </trkpt>
      <trkpt lat="41.085650" lon="-3.716017">
        <ele>1850.0</ele>
        <time>2015-09-27T12:12:21Z</time>
      </trkpt>
      <trkpt lat="41.085750" lon="-3.716100">
        <ele>1855.0</ele>
        <time>2015-09-27T12:12:23Z</time>
      </trkpt>
      <trkpt lat="41.085833" lon="-3.716167">
        <ele>1859.0</ele>
        <time>2015-09-27T12:12:25Z</time>
      </trkpt>
      <trkpt lat="41.085950" lon="-3.716217">
        <ele>1863.0</ele>
        <time>2015-09-27T12:12:27Z</time>
      </trkpt>
      <trkpt lat="41.086050" lon="-3.716283">
        <ele>1869.0</ele>
        <time>2015-09-27T12:12:29Z</time>
      </trkpt>
      <trkpt lat="41.086150" lon="-3.716333">
        <ele>1874.0</ele>
        <time>2015-09-27T12:12:31Z</time>
      </trkpt>
      <trkpt lat="41.086283" lon="-3.716383">
        <ele>1880.0</ele>
        <time>2015-09-27T12:12:33Z</time>
      </trkpt>
      <trkpt lat="41.086367" lon="-3.716417">
        <ele>1887.0</ele>
        <time>2015-09-27T12:12:35Z</time>
      </trkpt>
      <trkpt lat="41.086467" lon="-3.716483">
        <ele>1890.0</ele>
        <time>2015-09-27T12:12:37Z</time>
      </trkpt>
      <trkpt lat="41.086600" lon="-3.716483">
        <ele>1895.0</ele>
        <time>2015-09-27T12:12:39Z</time>
      </trkpt>
      <trkpt lat="41.086683" lon="-3.716467">
        <ele>1901.0</ele>
        <time>2015-09-27T12:12:41Z</time>
      </trkpt>
      <trkpt lat="41.086733" lon="-3.716483">
        <ele>1901.0</ele>
        <time>2015-09-27T12:12:43Z</time>
      </trkpt>
      <trkpt lat="41.086833" lon="-3.716517">
        <ele>1899.0</ele>
        <time>2015-09-27T12:12:45Z</time>
      </trkpt>
      <trkpt lat="41.086950" lon="-3.716567">
        <ele>1900.0</ele>
        <time>2015-09-27T12:12:47Z</time>
      </trkpt>
      <trkpt lat="41.087050" lon="-3.716567">
        <ele>1902.0</ele>
        <time>2015-09-27T12:12:49Z</time>
      </trkpt>
      <trkpt lat="41.087167" lon="-3.716583">
        <ele>1907.0</ele>
        <time>2015-09-27T12:12:51Z</time>
      </trkpt>
      <trkpt lat="41.087283" lon="-3.716583">
        <ele>1911.0</ele>
        <time>2015-09-27T12:12:53Z</time>
      </trkpt>
      <trkpt lat="41.087417" lon="-3.716600">
        <ele>1913.0</ele>
        <time>2015-09-27T12:12:55Z</time>
      </trkpt>
      <trkpt lat="41.087533" lon="-3.716633">
        <ele>1915.0</ele>
        <time>2015-09-27T12:12:57Z</time>
      </trkpt>
      <trkpt lat="41.087667" lon="-3.716667">
        <ele>1916.0</ele>
        <time>2015-09-27T12:12:59Z</time>
      </trkpt>
      <trkpt lat="41.087783" lon="-3.716733">
        <ele>1919.0</ele>
        <time>2015-09-27T12:13:01Z</time>
      </trkpt>
      <trkpt lat="41.087917" lon="-3.716783">
        <ele>1922.0</ele>
        <time>2015-09-27T12:13:03Z</time>
      </trkpt>
      <trkpt lat="41.088017" lon="-3.716800">
        <ele>1923.0</ele>
        <time>2015-09-27T12:13:05Z</time>
      </trkpt>
      <trkpt lat="41.088133" lon="-3.716783">
        <ele>1923.0</ele>
        <time>2015-09-27T12:13:07Z</time>
      </trkpt>
      <trkpt lat="41.088267" lon="-3.716833">
        <ele>1921.0</ele>
        <time>2015-09-27T12:13:09Z</time>
      </trkpt>
      <trkpt lat="41.088367" lon="-3.716883">
        <ele>1925.0</ele>
        <time>2015-09-27T12:13:11Z</time>
      </trkpt>
      <trkpt lat="41.088400" lon="-3.716900">
        <ele>1924.0</ele>
        <time>2015-09-27T12:13:13Z</time>
      </trkpt>
      <trkpt lat="41.088467" lon="-3.716933">
        <ele>1917.0</ele>
        <time>2015-09-27T12:13:15Z</time>
      </trkpt>
      <trkpt lat="41.088617" lon="-3.716950">
        <ele>1910.0</ele>
        <time>2015-09-27T12:13:17Z</time>
      </trkpt>
      <trkpt lat="41.088750" lon="-3.716933">
        <ele>1908.0</ele>
        <time>2015-09-27T12:13:19Z</time>
      </trkpt>
      <trkpt lat="41.088850" lon="-3.716933">
        <ele>1907.0</ele>
        <time>2015-09-27T12:13:21Z</time>
      </trkpt>
      <trkpt lat="41.088950" lon="-3.716917">
        <ele>1903.0</ele>
        <time>2015-09-27T12:13:23Z</time>
      </trkpt>
      <trkpt lat="41.089067" lon="-3.716917">
        <ele>1899.0</ele>
        <time>2015-09-27T12:13:25Z</time>
      </trkpt>
      <trkpt lat="41.089183" lon="-3.716917">
        <ele>1896.0</ele>
        <time>2015-09-27T12:13:27Z</time>
      </trkpt>
      <trkpt lat="41.089283" lon="-3.716883">
        <ele>1894.0</ele>
        <time>2015-09-27T12:13:29Z</time>
      </trkpt>
      <trkpt lat="41.089367" lon="-3.716817">
        <ele>1888.0</ele>
        <time>2015-09-27T12:13:31Z</time>
      </trkpt>
      <trkpt lat="41.089483" lon="-3.716783">
        <ele>1883.0</ele>
        <time>2015-09-27T12:13:33Z</time>
      </trkpt>
      <trkpt lat="41.089583" lon="-3.716750">
        <ele>1882.0</ele>
        <time>2015-09-27T12:13:35Z</time>
      </trkpt>
      <trkpt lat="41.089650" lon="-3.716717">
        <ele>1880.0</ele>
        <time>2015-09-27T12:13:37Z</time>
      </trkpt>
      <trkpt lat="41.089733" lon="-3.716700">
        <ele>1877.0</ele>
        <time>2015-09-27T12:13:39Z</time>
      </trkpt>
      <trkpt lat="41.089817" lon="-3.716717">
        <ele>1873.0</ele>
        <time>2015-09-27T12:13:41Z</time>
      </trkpt>
      <trkpt lat="41.089883" lon="-3.716733">
        <ele>1869.0</ele>
        <time>2015-09-27T12:13:43Z</time>
      </trkpt>
      <trkpt lat="41.089967" lon="-3.716750">
        <ele>1864.0</ele>
        <time>2015-09-27T12:13:45Z</time>
      </trkpt>
      <trkpt lat="41.090067" lon="-3.716767">
        <ele>1861.0</ele>
        <time>2015-09-27T12:13:47Z</time>
      </trkpt>
      <trkpt lat="41.090150" lon="-3.716783">
        <ele>1857.0</ele>
        <time>2015-09-27T12:13:49Z</time>
      </trkpt>
      <trkpt lat="41.090233" lon="-3.716850">
        <ele>1854.0</ele>
        <time>2015-09-27T12:13:51Z</time>
      </trkpt>
      <trkpt lat="41.090317" lon="-3.716900">
        <ele>1852.0</ele>
        <time>2015-09-27T12:13:53Z</time>
      </trkpt>
      <trkpt lat="41.090433" lon="-3.716950">
        <ele>1853.0</ele>
        <time>2015-09-27T12:13:55Z</time>
      </trkpt>
      <trkpt lat="41.090517" lon="-3.717033">
        <ele>1856.0</ele>
        <time>2015-09-27T12:13:57Z</time>
      </trkpt>
      <trkpt lat="41.090600" lon="-3.717117">
        <ele>1857.0</ele>
        <time>2015-09-27T12:13:59Z</time>
      </trkpt>
      <trkpt lat="41.090683" lon="-3.717183">
        <ele>1855.0</ele>
        <time>2015-09-27T12:14:01Z</time>
      </trkpt>
      <trkpt lat="41.090767" lon="-3.717217">
        <ele>1849.0</ele>
        <time>2015-09-27T12:14:03Z</time>
      </trkpt>
      <trkpt lat="41.090883" lon="-3.717233">
        <ele>1845.0</ele>
        <time>2015-09-27T12:14:05Z</time>
      </trkpt>
      <trkpt lat="41.090983" lon="-3.717233">
        <ele>1842.0</ele>
        <time>2015-09-27T12:14:07Z</time>
      </trkpt>
      <trkpt lat="41.091083" lon="-3.717217">
        <ele>1841.0</ele>
        <time>2015-09-27T12:14:09Z</time>
      </trkpt>
      <trkpt lat="41.091183" lon="-3.717217">
        <ele>1840.0</ele>
        <time>2015-09-27T12:14:11Z</time>
      </trkpt>
      <trkpt lat="41.091300" lon="-3.717183">
        <ele>1840.0</ele>
        <time>2015-09-27T12:14:13Z</time>
      </trkpt>
      <trkpt lat="41.091417" lon="-3.717200">
        <ele>1840.0</ele>
        <time>2015-09-27T12:14:15Z</time>
      </trkpt>
      <trkpt lat="41.091517" lon="-3.717283">
        <ele>1838.0</ele>
        <time>2015-09-27T12:14:17Z</time>
      </trkpt>
      <trkpt lat="41.091600" lon="-3.717350">
        <ele>1836.0</ele>
        <time>2015-09-27T12:14:19Z</time>
      </trkpt>
      <trkpt lat="41.091717" lon="-3.717400">
        <ele>1833.0</ele>
        <time>2015-09-27T12:14:21Z</time>
      </trkpt>
      <trkpt lat="41.091867" lon="-3.717433">
        <ele>1831.0</ele>
        <time>2015-09-27T12:14:23Z</time>
      </trkpt>
      <trkpt lat="41.092000" lon="-3.717450">
        <ele>1831.0</ele>
        <time>2015-09-27T12:14:25Z</time>
      </trkpt>
      <trkpt lat="41.092150" lon="-3.717433">
        <ele>1831.0</ele>
        <time>2015-09-27T12:14:27Z</time>
      </trkpt>
      <trkpt lat="41.092283" lon="-3.717417">
        <ele>1832.0</ele>
        <time>2015-09-27T12:14:29Z</time>
      </trkpt>
      <trkpt lat="41.092383" lon="-3.717450">
        <ele>1832.0</ele>
        <time>2015-09-27T12:14:31Z</time>
      </trkpt>
      <trkpt lat="41.092483" lon="-3.717500">
        <ele>1829.0</ele>
        <time>2015-09-27T12:14:33Z</time>
      </trkpt>
      <trkpt lat="41.092600" lon="-3.717517">
        <ele>1827.0</ele>
        <time>2015-09-27T12:14:35Z</time>
      </trkpt>
      <trkpt lat="41.092717" lon="-3.717500">
        <ele>1826.0</ele>
        <time>2015-09-27T12:14:37Z</time>
      </trkpt>
      <trkpt lat="41.092817" lon="-3.717500">
        <ele>1825.0</ele>
        <time>2015-09-27T12:14:39Z</time>
      </trkpt>
      <trkpt lat="41.092917" lon="-3.717483">
        <ele>1823.0</ele>
        <time>2015-09-27T12:14:41Z</time>
      </trkpt>
      <trkpt lat="41.093033" lon="-3.717450">
        <ele>1822.0</ele>
        <time>2015-09-27T12:14:43Z</time>
      </trkpt>
      <trkpt lat="41.093133" lon="-3.717417">
        <ele>1821.0</ele>
        <time>2015-09-27T12:14:45Z</time>
      </trkpt>
      <trkpt lat="41.093250" lon="-3.717383">
        <ele>1820.0</ele>
        <time>2015-09-27T12:14:47Z</time>
      </trkpt>
      <trkpt lat="41.093367" lon="-3.717350">
        <ele>1821.0</ele>
        <time>2015-09-27T12:14:49Z</time>
      </trkpt>
      <trkpt lat="41.093500" lon="-3.717300">
        <ele>1820.0</ele>
        <time>2015-09-27T12:14:51Z</time>
      </trkpt>
      <trkpt lat="41.093633" lon="-3.717250">
        <ele>1821.0</ele>
        <time>2015-09-27T12:14:53Z</time>
      </trkpt>
      <trkpt lat="41.093767" lon="-3.717183">
        <ele>1822.0</ele>
        <time>2015-09-27T12:14:55Z</time>
      </trkpt>
      <trkpt lat="41.093883" lon="-3.717117">
        <ele>1819.0</ele>
        <time>2015-09-27T12:14:57Z</time>
      </trkpt>
      <trkpt lat="41.094017" lon="-3.717050">
        <ele>1812.0</ele>
        <time>2015-09-27T12:14:59Z</time>
      </trkpt>
      <trkpt lat="41.094150" lon="-3.717017">
        <ele>1807.0</ele>
        <time>2015-09-27T12:15:01Z</time>
      </trkpt>
      <trkpt lat="41.094283" lon="-3.717050">
        <ele>1800.0</ele>
        <time>2015-09-27T12:15:03Z</time>
      </trkpt>
      <trkpt lat="41.094417" lon="-3.717050">
        <ele>1794.0</ele>
        <time>2015-09-27T12:15:05Z</time>
      </trkpt>
      <trkpt lat="41.094533" lon="-3.716983">
        <ele>1789.0</ele>
        <time>2015-09-27T12:15:07Z</time>
      </trkpt>
      <trkpt lat="41.094617" lon="-3.716783">
        <ele>1779.0</ele>
        <time>2015-09-27T12:15:09Z</time>
      </trkpt>
      <trkpt lat="41.094567" lon="-3.716450">
        <ele>1770.0</ele>
        <time>2015-09-27T12:15:11Z</time>
      </trkpt>
      <trkpt lat="41.094350" lon="-3.716317">
        <ele>1766.0</ele>
        <time>2015-09-27T12:15:13Z</time>
      </trkpt>
      <trkpt lat="41.094200" lon="-3.716467">
        <ele>1761.0</ele>
        <time>2015-09-27T12:15:15Z</time>
      </trkpt>
      <trkpt lat="41.094233" lon="-3.716633">
        <ele>1758.0</ele>
        <time>2015-09-27T12:15:17Z</time>
      </trkpt>
      <trkpt lat="41.094367" lon="-3.716633">
        <ele>1750.0</ele>
        <time>2015-09-27T12:15:19Z</time>
      </trkpt>
      <trkpt lat="41.094483" lon="-3.716483">
        <ele>1742.0</ele>
        <time>2015-09-27T12:15:21Z</time>
      </trkpt>
      <trkpt lat="41.094517" lon="-3.716217">
        <ele>1736.0</ele>
        <time>2015-09-27T12:15:23Z</time>
      </trkpt>
      <trkpt lat="41.094367" lon="-3.715950">
        <ele>1728.0</ele>
        <time>2015-09-27T12:15:25Z</time>
      </trkpt>
      <trkpt lat="41.094150" lon="-3.715950">
        <ele>1725.0</ele>
        <time>2015-09-27T12:15:27Z</time>
      </trkpt>
      <trkpt lat="41.094067" lon="-3.716100">
        <ele>1719.0</ele>
        <time>2015-09-27T12:15:29Z</time>
      </trkpt>
      <trkpt lat="41.094117" lon="-3.716233">
        <ele>1713.0</ele>
        <time>2015-09-27T12:15:31Z</time>
      </trkpt>
      <trkpt lat="41.094233" lon="-3.716217">
        <ele>1705.0</ele>
        <time>2015-09-27T12:15:33Z</time>
      </trkpt>
      <trkpt lat="41.094367" lon="-3.716050">
        <ele>1699.0</ele>
        <time>2015-09-27T12:15:35Z</time>
      </trkpt>
      <trkpt lat="41.094367" lon="-3.715783">
        <ele>1692.0</ele>
        <time>2015-09-27T12:15:37Z</time>
      </trkpt>
      <trkpt lat="41.094217" lon="-3.715533">
        <ele>1685.0</ele>
        <time>2015-09-27T12:15:39Z</time>
      </trkpt>
      <trkpt lat="41.094000" lon="-3.715483">
        <ele>1680.0</ele>
        <time>2015-09-27T12:15:41Z</time>
      </trkpt>
      <trkpt lat="41.093867" lon="-3.715617">
        <ele>1674.0</ele>
        <time>2015-09-27T12:15:43Z</time>
      </trkpt>
      <trkpt lat="41.093883" lon="-3.715783">
        <ele>1669.0</ele>
        <time>2015-09-27T12:15:45Z</time>
      </trkpt>
      <trkpt lat="41.093967" lon="-3.715850">
        <ele>1664.0</ele>
        <time>2015-09-27T12:15:47Z</time>
      </trkpt>
      <trkpt lat="41.094083" lon="-3.715833">
        <ele>1657.0</ele>
        <time>2015-09-27T12:15:49Z</time>
      </trkpt>
      <trkpt lat="41.094217" lon="-3.715700">
        <ele>1647.0</ele>
        <time>2015-09-27T12:15:51Z</time>
      </trkpt>
      <trkpt lat="41.094333" lon="-3.715533">
        <ele>1640.0</ele>
        <time>2015-09-27T12:15:53Z</time>
      </trkpt>
      <trkpt lat="41.094450" lon="-3.715417">
        <ele>1632.0</ele>
        <time>2015-09-27T12:15:55Z</time>
      </trkpt>
      <trkpt lat="41.094583" lon="-3.715317">
        <ele>1623.0</ele>
        <time>2015-09-27T12:15:57Z</time>
      </trkpt>
      <trkpt lat="41.094700" lon="-3.715250">
        <ele>1617.0</ele>
        <time>2015-09-27T12:15:59Z</time>
      </trkpt>
      <trkpt lat="41.094800" lon="-3.715233">
        <ele>1612.0</ele>
        <time>2015-09-27T12:16:01Z</time>
      </trkpt>
      <trkpt lat="41.094883" lon="-3.715267">
        <ele>1610.0</ele>
        <time>2015-09-27T12:16:03Z</time>
      </trkpt>
      <trkpt lat="41.094917" lon="-3.715317">
        <ele>1607.0</ele>
        <time>2015-09-27T12:16:05Z</time>
      </trkpt>
      <trkpt lat="41.094967" lon="-3.715400">
        <ele>1601.0</ele>
        <time>2015-09-27T12:16:07Z</time>
      </trkpt>
      <trkpt lat="41.095050" lon="-3.715483">
        <ele>1598.0</ele>
        <time>2015-09-27T12:16:09Z</time>
      </trkpt>
      <trkpt lat="41.095117" lon="-3.715533">
        <ele>1597.0</ele>
        <time>2015-09-27T12:16:11Z</time>
      </trkpt>
      <trkpt lat="41.095200" lon="-3.715550">
        <ele>1596.0</ele>
        <time>2015-09-27T12:16:13Z</time>
      </trkpt>
      <trkpt lat="41.095267" lon="-3.715583">
        <ele>1594.0</ele>
        <time>2015-09-27T12:16:15Z</time>
      </trkpt>
      <trkpt lat="41.095333" lon="-3.715600">
        <ele>1592.0</ele>
        <time>2015-09-27T12:16:17Z</time>
      </trkpt>
      <trkpt lat="41.095400" lon="-3.715600">
        <ele>1589.0</ele>
        <time>2015-09-27T12:16:19Z</time>
      </trkpt>
      <trkpt lat="41.095483" lon="-3.715633">
        <ele>1585.0</ele>
        <time>2015-09-27T12:16:21Z</time>
      </trkpt>
      <trkpt lat="41.095583" lon="-3.715667">
        <ele>1583.0</ele>
        <time>2015-09-27T12:16:23Z</time>
      </trkpt>
      <trkpt lat="41.095650" lon="-3.715667">
        <ele>1582.0</ele>
        <time>2015-09-27T12:16:25Z</time>
      </trkpt>
      <trkpt lat="41.095717" lon="-3.715667">
        <ele>1577.0</ele>
        <time>2015-09-27T12:16:27Z</time>
      </trkpt>
      <trkpt lat="41.095817" lon="-3.715683">
        <ele>1572.0</ele>
        <time>2015-09-27T12:16:29Z</time>
      </trkpt>
      <trkpt lat="41.095917" lon="-3.715667">
        <ele>1568.0</ele>
        <time>2015-09-27T12:16:31Z</time>
      </trkpt>
      <trkpt lat="41.096017" lon="-3.715600">
        <ele>1562.0</ele>
        <time>2015-09-27T12:16:33Z</time>
      </trkpt>
      <trkpt lat="41.096133" lon="-3.715550">
        <ele>1557.0</ele>
        <time>2015-09-27T12:16:35Z</time>
      </trkpt>
      <trkpt lat="41.096250" lon="-3.715483">
        <ele>1555.0</ele>
        <time>2015-09-27T12:16:37Z</time>
      </trkpt>
      <trkpt lat="41.096350" lon="-3.715417">
        <ele>1551.0</ele>
        <time>2015-09-27T12:16:39Z</time>
      </trkpt>
      <trkpt lat="41.096467" lon="-3.715350">
        <ele>1546.0</ele>
        <time>2015-09-27T12:16:41Z</time>
      </trkpt>
      <trkpt lat="41.096567" lon="-3.715317">
        <ele>1542.0</ele>
        <time>2015-09-27T12:16:43Z</time>
      </trkpt>
      <trkpt lat="41.096667" lon="-3.715333">
        <ele>1538.0</ele>
        <time>2015-09-27T12:16:45Z</time>
      </trkpt>
      <trkpt lat="41.096750" lon="-3.715350">
        <ele>1535.0</ele>
        <time>2015-09-27T12:16:47Z</time>
      </trkpt>
      <trkpt lat="41.096850" lon="-3.715383">
        <ele>1532.0</ele>
        <time>2015-09-27T12:16:49Z</time>
      </trkpt>
      <trkpt lat="41.096933" lon="-3.715400">
        <ele>1529.0</ele>
        <time>2015-09-27T12:16:51Z</time>
      </trkpt>
      <trkpt lat="41.097017" lon="-3.715417">
        <ele>1526.0</ele>
        <time>2015-09-27T12:16:53Z</time>
      </trkpt>
      <trkpt lat="41.097117" lon="-3.715400">
        <ele>1523.0</ele>
        <time>2015-09-27T12:16:55Z</time>
      </trkpt>
      <trkpt lat="41.097217" lon="-3.715400">
        <ele>1520.0</ele>
        <time>2015-09-27T12:16:57Z</time>
      </trkpt>
      <trkpt lat="41.097317" lon="-3.715383">
        <ele>1518.0</ele>
        <time>2015-09-27T12:16:59Z</time>
      </trkpt>
      <trkpt lat="41.097417" lon="-3.715383">
        <ele>1517.0</ele>
        <time>2015-09-27T12:17:01Z</time>
      </trkpt>
      <trkpt lat="41.097517" lon="-3.715367">
        <ele>1516.0</ele>
        <time>2015-09-27T12:17:03Z</time>
      </trkpt>
      <trkpt lat="41.097617" lon="-3.715333">
        <ele>1514.0</ele>
        <time>2015-09-27T12:17:05Z</time>
      </trkpt>
      <trkpt lat="41.097717" lon="-3.715283">
        <ele>1514.0</ele>
        <time>2015-09-27T12:17:07Z</time>
      </trkpt>
      <trkpt lat="41.097800" lon="-3.715233">
        <ele>1514.0</ele>
        <time>2015-09-27T12:17:09Z</time>
      </trkpt>
      <trkpt lat="41.097850" lon="-3.715233">
        <ele>1514.0</ele>
        <time>2015-09-27T12:17:11Z</time>
      </trkpt>
      <trkpt lat="41.097933" lon="-3.715233">
        <ele>1514.0</ele>
        <time>2015-09-27T12:17:13Z</time>
      </trkpt>
      <trkpt lat="41.098033" lon="-3.715233">
        <ele>1513.0</ele>
        <time>2015-09-27T12:17:15Z</time>
      </trkpt>
      <trkpt lat="41.098117" lon="-3.715250">
        <ele>1514.0</ele>
        <time>2015-09-27T12:17:17Z</time>
      </trkpt>
      <trkpt lat="41.098200" lon="-3.715267">
        <ele>1514.0</ele>
        <time>2015-09-27T12:17:19Z</time>
      </trkpt>
      <trkpt lat="41.098317" lon="-3.715283">
        <ele>1514.0</ele>
        <time>2015-09-27T12:17:21Z</time>
      </trkpt>
      <trkpt lat="41.098417" lon="-3.715317">
        <ele>1518.0</ele>
        <time>2015-09-27T12:17:23Z</time>
      </trkpt>
      <trkpt lat="41.098483" lon="-3.715317">
        <ele>1521.0</ele>
        <time>2015-09-27T12:17:25Z</time>
      </trkpt>
      <trkpt lat="41.098567" lon="-3.715317">
        <ele>1521.0</ele>
        <time>2015-09-27T12:17:27Z</time>
      </trkpt>
      <trkpt lat="41.098667" lon="-3.715350">
        <ele>1521.0</ele>
        <time>2015-09-27T12:17:29Z</time>
      </trkpt>
      <trkpt lat="41.098783" lon="-3.715383">
        <ele>1525.0</ele>
        <time>2015-09-27T12:17:31Z</time>
      </trkpt>
      <trkpt lat="41.098883" lon="-3.715367">
        <ele>1528.0</ele>
        <time>2015-09-27T12:17:33Z</time>
      </trkpt>
      <trkpt lat="41.099000" lon="-3.715367">
        <ele>1531.0</ele>
        <time>2015-09-27T12:17:35Z</time>
      </trkpt>
      <trkpt lat="41.099117" lon="-3.715367">
        <ele>1535.0</ele>
        <time>2015-09-27T12:17:37Z</time>
      </trkpt>
      <trkpt lat="41.099217" lon="-3.715350">
        <ele>1538.0</ele>
        <time>2015-09-27T12:17:39Z</time>
      </trkpt>
      <trkpt lat="41.099317" lon="-3.715333">
        <ele>1542.0</ele>
        <time>2015-09-27T12:17:41Z</time>
      </trkpt>
      <trkpt lat="41.099417" lon="-3.715367">
        <ele>1544.0</ele>
        <time>2015-09-27T12:17:43Z</time>
      </trkpt>
      <trkpt lat="41.099500" lon="-3.715383">
        <ele>1545.0</ele>
        <time>2015-09-27T12:17:45Z</time>
      </trkpt>
      <trkpt lat="41.099600" lon="-3.715417">
        <ele>1545.0</ele>
        <time>2015-09-27T12:17:47Z</time>
      </trkpt>
      <trkpt lat="41.099683" lon="-3.715467">
        <ele>1543.0</ele>
        <time>2015-09-27T12:17:49Z</time>
      </trkpt>
      <trkpt lat="41.099750" lon="-3.715517">
        <ele>1540.0</ele>
        <time>2015-09-27T12:17:51Z</time>
      </trkpt>
      <trkpt lat="41.099817" lon="-3.715583">
        <ele>1535.0</ele>
        <time>2015-09-27T12:17:53Z</time>
      </trkpt>
      <trkpt lat="41.099900" lon="-3.715667">
        <ele>1532.0</ele>
        <time>2015-09-27T12:17:55Z</time>
      </trkpt>
      <trkpt lat="41.099983" lon="-3.715767">
        <ele>1532.0</ele>
        <time>2015-09-27T12:17:57Z</time>
      </trkpt>
      <trkpt lat="41.100033" lon="-3.715833">
        <ele>1530.0</ele>
        <time>2015-09-27T12:17:59Z</time>
      </trkpt>
      <trkpt lat="41.100117" lon="-3.715883">
        <ele>1527.0</ele>
        <time>2015-09-27T12:18:01Z</time>
      </trkpt>
      <trkpt lat="41.100200" lon="-3.715900">
        <ele>1524.0</ele>
        <time>2015-09-27T12:18:03Z</time>
      </trkpt>
      <trkpt lat="41.100283" lon="-3.715967">
        <ele>1522.0</ele>
        <time>2015-09-27T12:18:05Z</time>
      </trkpt>
      <trkpt lat="41.100383" lon="-3.716017">
        <ele>1519.0</ele>
        <time>2015-09-27T12:18:07Z</time>
      </trkpt>
      <trkpt lat="41.100483" lon="-3.716017">
        <ele>1516.0</ele>
        <time>2015-09-27T12:18:09Z</time>
      </trkpt>
      <trkpt lat="41.100567" lon="-3.716033">
        <ele>1511.0</ele>
        <time>2015-09-27T12:18:11Z</time>
      </trkpt>
      <trkpt lat="41.100667" lon="-3.716083">
        <ele>1505.0</ele>
        <time>2015-09-27T12:18:13Z</time>
      </trkpt>
      <trkpt lat="41.100750" lon="-3.716167">
        <ele>1502.0</ele>
        <time>2015-09-27T12:18:15Z</time>
      </trkpt>
      <trkpt lat="41.100700" lon="-3.716317">
        <ele>1497.0</ele>
        <time>2015-09-27T12:18:17Z</time>
      </trkpt>
      <trkpt lat="41.100467" lon="-3.716433">
        <ele>1489.0</ele>
        <time>2015-09-27T12:18:19Z</time>
      </trkpt>
      <trkpt lat="41.100200" lon="-3.716250">
        <ele>1483.0</ele>
        <time>2015-09-27T12:18:21Z</time>
      </trkpt>
      <trkpt lat="41.100100" lon="-3.715933">
        <ele>1481.0</ele>
        <time>2015-09-27T12:18:23Z</time>
      </trkpt>
      <trkpt lat="41.100100" lon="-3.715733">
        <ele>1479.0</ele>
        <time>2015-09-27T12:18:25Z</time>
      </trkpt>
      <trkpt lat="41.100150" lon="-3.715583">
        <ele>1473.0</ele>
        <time>2015-09-27T12:18:27Z</time>
      </trkpt>
      <trkpt lat="41.100267" lon="-3.715583">
        <ele>1466.0</ele>
        <time>2015-09-27T12:18:29Z</time>
      </trkpt>
      <trkpt lat="41.100283" lon="-3.715733">
        <ele>1461.0</ele>
        <time>2015-09-27T12:18:31Z</time>
      </trkpt>
      <trkpt lat="41.100133" lon="-3.715883">
        <ele>1456.0</ele>
        <time>2015-09-27T12:18:33Z</time>
      </trkpt>
      <trkpt lat="41.099900" lon="-3.715900">
        <ele>1451.0</ele>
        <time>2015-09-27T12:18:35Z</time>
      </trkpt>
      <trkpt lat="41.099650" lon="-3.715733">
        <ele>1446.0</ele>
        <time>2015-09-27T12:18:37Z</time>
      </trkpt>
      <trkpt lat="41.099550" lon="-3.715417">
        <ele>1441.0</ele>
        <time>2015-09-27T12:18:39Z</time>
      </trkpt>
      <trkpt lat="41.099583" lon="-3.715183">
        <ele>1439.0</ele>
        <time>2015-09-27T12:18:41Z</time>
      </trkpt>
      <trkpt lat="41.099667" lon="-3.715083">
        <ele>1435.0</ele>
        <time>2015-09-27T12:18:43Z</time>
      </trkpt>
      <trkpt lat="41.099733" lon="-3.715067">
        <ele>1431.0</ele>
        <time>2015-09-27T12:18:45Z</time>
      </trkpt>
      <trkpt lat="41.099783" lon="-3.715150">
        <ele>1425.0</ele>
        <time>2015-09-27T12:18:47Z</time>
      </trkpt>
      <trkpt lat="41.099850" lon="-3.715283">
        <ele>1420.0</ele>
        <time>2015-09-27T12:18:49Z</time>
      </trkpt>
      <trkpt lat="41.099933" lon="-3.715317">
        <ele>1417.0</ele>
        <time>2015-09-27T12:18:51Z</time>
      </trkpt>
      <trkpt lat="41.100017" lon="-3.715283">
        <ele>1415.0</ele>
        <time>2015-09-27T12:18:53Z</time>
      </trkpt>
      <trkpt lat="41.100100" lon="-3.715200">
        <ele>1410.0</ele>
        <time>2015-09-27T12:18:55Z</time>
      </trkpt>
      <trkpt lat="41.100217" lon="-3.715167">
        <ele>1404.0</ele>
        <time>2015-09-27T12:18:57Z</time>
      </trkpt>
      <trkpt lat="41.100317" lon="-3.715183">
        <ele>1402.0</ele>
        <time>2015-09-27T12:18:59Z</time>
      </trkpt>
      <trkpt lat="41.100400" lon="-3.715200">
        <ele>1398.0</ele>
        <time>2015-09-27T12:19:01Z</time>
      </trkpt>
      <trkpt lat="41.100517" lon="-3.715200">
        <ele>1393.0</ele>
        <time>2015-09-27T12:19:03Z</time>
      </trkpt>
      <trkpt lat="41.100600" lon="-3.715183">
        <ele>1392.0</ele>
        <time>2015-09-27T12:19:05Z</time>
      </trkpt>
      <trkpt lat="41.100683" lon="-3.715150">
        <ele>1389.0</ele>
        <time>2015-09-27T12:19:07Z</time>
      </trkpt>
      <trkpt lat="41.100783" lon="-3.715133">
        <ele>1385.0</ele>
        <time>2015-09-27T12:19:09Z</time>
      </trkpt>
      <trkpt lat="41.100900" lon="-3.715183">
        <ele>1383.0</ele>
        <time>2015-09-27T12:19:11Z</time>
      </trkpt>
      <trkpt lat="41.100983" lon="-3.715233">
        <ele>1382.0</ele>
        <time>2015-09-27T12:19:13Z</time>
      </trkpt>
      <trkpt lat="41.101050" lon="-3.715267">
        <ele>1377.0</ele>
        <time>2015-09-27T12:19:15Z</time>
      </trkpt>
      <trkpt lat="41.101167" lon="-3.715333">
        <ele>1373.0</ele>
        <time>2015-09-27T12:19:17Z</time>
      </trkpt>
      <trkpt lat="41.101250" lon="-3.715400">
        <ele>1371.0</ele>
        <time>2015-09-27T12:19:19Z</time>
      </trkpt>
      <trkpt lat="41.101350" lon="-3.715467">
        <ele>1370.0</ele>
        <time>2015-09-27T12:19:21Z</time>
      </trkpt>
      <trkpt lat="41.101450" lon="-3.715500">
        <ele>1370.0</ele>
        <time>2015-09-27T12:19:23Z</time>
      </trkpt>
      <trkpt lat="41.101533" lon="-3.715500">
        <ele>1367.0</ele>
        <time>2015-09-27T12:19:25Z</time>
      </trkpt>
      <trkpt lat="41.101617" lon="-3.715467">
        <ele>1363.0</ele>
        <time>2015-09-27T12:19:27Z</time>
      </trkpt>
      <trkpt lat="41.101700" lon="-3.715450">
        <ele>1361.0</ele>
        <time>2015-09-27T12:19:29Z</time>
      </trkpt>
      <trkpt lat="41.101767" lon="-3.715467">
        <ele>1360.0</ele>
        <time>2015-09-27T12:19:31Z</time>
      </trkpt>
      <trkpt lat="41.101817" lon="-3.715517">
        <ele>1358.0</ele>
        <time>2015-09-27T12:19:33Z</time>
      </trkpt>
      <trkpt lat="41.101883" lon="-3.715600">
        <ele>1356.0</ele>
        <time>2015-09-27T12:19:35Z</time>
      </trkpt>
      <trkpt lat="41.101933" lon="-3.715667">
        <ele>1356.0</ele>
        <time>2015-09-27T12:19:37Z</time>
      </trkpt>
      <trkpt lat="41.102000" lon="-3.715700">
        <ele>1356.0</ele>
        <time>2015-09-27T12:19:39Z</time>
      </trkpt>
      <trkpt lat="41.102050" lon="-3.715750">
        <ele>1355.0</ele>
        <time>2015-09-27T12:19:41Z</time>
      </trkpt>
      <trkpt lat="41.102100" lon="-3.715850">
        <ele>1353.0</ele>
        <time>2015-09-27T12:19:43Z</time>
      </trkpt>
      <trkpt lat="41.102183" lon="-3.715983">
        <ele>1352.0</ele>
        <time>2015-09-27T12:19:45Z</time>
      </trkpt>
      <trkpt lat="41.102267" lon="-3.716050">
        <ele>1355.0</ele>
        <time>2015-09-27T12:19:47Z</time>
      </trkpt>
      <trkpt lat="41.102333" lon="-3.715950">
        <ele>1354.0</ele>
        <time>2015-09-27T12:19:49Z</time>
      </trkpt>
      <trkpt lat="41.102367" lon="-3.715750">
        <ele>1354.0</ele>
        <time>2015-09-27T12:19:51Z</time>
      </trkpt>
      <trkpt lat="41.102367" lon="-3.715567">
        <ele>1356.0</ele>
        <time>2015-09-27T12:19:53Z</time>
      </trkpt>
      <trkpt lat="41.102367" lon="-3.715433">
        <ele>1351.0</ele>
        <time>2015-09-27T12:19:55Z</time>
      </trkpt>
      <trkpt lat="41.102417" lon="-3.715300">
        <ele>1344.0</ele>
        <time>2015-09-27T12:19:57Z</time>
      </trkpt>
      <trkpt lat="41.102533" lon="-3.715400">
        <ele>1339.0</ele>
        <time>2015-09-27T12:19:59Z</time>
      </trkpt>
      <trkpt lat="41.102517" lon="-3.715633">
        <ele>1339.0</ele>
        <time>2015-09-27T12:20:01Z</time>
      </trkpt>
      <trkpt lat="41.102517" lon="-3.715800">
        <ele>1342.0</ele>
        <time>2015-09-27T12:20:03Z</time>
      </trkpt>
      <trkpt lat="41.102567" lon="-3.715900">
        <ele>1343.0</ele>
        <time>2015-09-27T12:20:05Z</time>
      </trkpt>
      <trkpt lat="41.102667" lon="-3.715933">
        <ele>1343.0</ele>
        <time>2015-09-27T12:20:07Z</time>
      </trkpt>
      <trkpt lat="41.102733" lon="-3.715800">
        <ele>1341.0</ele>
        <time>2015-09-27T12:20:09Z</time>
      </trkpt>
      <trkpt lat="41.102750" lon="-3.715550">
        <ele>1337.0</ele>
        <time>2015-09-27T12:20:11Z</time>
      </trkpt>
      <trkpt lat="41.102800" lon="-3.715333">
        <ele>1334.0</ele>
        <time>2015-09-27T12:20:13Z</time>
      </trkpt>
      <trkpt lat="41.102867" lon="-3.715100">
        <ele>1333.0</ele>
        <time>2015-09-27T12:20:15Z</time>
      </trkpt>
      <trkpt lat="41.102900" lon="-3.714867">
        <ele>1333.0</ele>
        <time>2015-09-27T12:20:17Z</time>
      </trkpt>
      <trkpt lat="41.102950" lon="-3.714633">
        <ele>1328.0</ele>
        <time>2015-09-27T12:20:19Z</time>
      </trkpt>
      <trkpt lat="41.103033" lon="-3.714500">
        <ele>1320.0</ele>
        <time>2015-09-27T12:20:21Z</time>
      </trkpt>
      <trkpt lat="41.103133" lon="-3.714550">
        <ele>1310.0</ele>
        <time>2015-09-27T12:20:23Z</time>
      </trkpt>
      <trkpt lat="41.103167" lon="-3.714650">
        <ele>1303.0</ele>
        <time>2015-09-27T12:20:25Z</time>
      </trkpt>
      <trkpt lat="41.103183" lon="-3.714833">
        <ele>1299.0</ele>
        <time>2015-09-27T12:20:27Z</time>
      </trkpt>
      <trkpt lat="41.103200" lon="-3.715033">
        <ele>1299.0</ele>
        <time>2015-09-27T12:20:29Z</time>
      </trkpt>
      <trkpt lat="41.103183" lon="-3.715233">
        <ele>1299.0</ele>
        <time>2015-09-27T12:20:31Z</time>
      </trkpt>
      <trkpt lat="41.103167" lon="-3.715433">
        <ele>1299.0</ele>
        <time>2015-09-27T12:20:33Z</time>
      </trkpt>
      <trkpt lat="41.103117" lon="-3.715617">
        <ele>1300.0</ele>
        <time>2015-09-27T12:20:35Z</time>
      </trkpt>
      <trkpt lat="41.103083" lon="-3.715800">
        <ele>1301.0</ele>
        <time>2015-09-27T12:20:37Z</time>
      </trkpt>
      <trkpt lat="41.103067" lon="-3.715950">
        <ele>1300.0</ele>
        <time>2015-09-27T12:20:39Z</time>
      </trkpt>
      <trkpt lat="41.103067" lon="-3.716117">
        <ele>1300.0</ele>
        <time>2015-09-27T12:20:41Z</time>
      </trkpt>
      <trkpt lat="41.103033" lon="-3.716267">
        <ele>1301.0</ele>
        <time>2015-09-27T12:20:43Z</time>
      </trkpt>
      <trkpt lat="41.103033" lon="-3.716417">
        <ele>1299.0</ele>
        <time>2015-09-27T12:20:45Z</time>
      </trkpt>
      <trkpt lat="41.103050" lon="-3.716567">
        <ele>1299.0</ele>
        <time>2015-09-27T12:20:47Z</time>
      </trkpt>
      <trkpt lat="41.103067" lon="-3.716700">
        <ele>1302.0</ele>
        <time>2015-09-27T12:20:49Z</time>
      </trkpt>
      <trkpt lat="41.103083" lon="-3.716817">
        <ele>1304.0</ele>
        <time>2015-09-27T12:20:51Z</time>
      </trkpt>
      <trkpt lat="41.103117" lon="-3.716917">
        <ele>1306.0</ele>
        <time>2015-09-27T12:20:53Z</time>
      </trkpt>
      <trkpt lat="41.103183" lon="-3.716950">
        <ele>1308.0</ele>
        <time>2015-09-27T12:20:55Z</time>
      </trkpt>
      <trkpt lat="41.103233" lon="-3.716883">
        <ele>1308.0</ele>
        <time>2015-09-27T12:20:57Z</time>
      </trkpt>
      <trkpt lat="41.103300" lon="-3.716700">
        <ele>1306.0</ele>
        <time>2015-09-27T12:20:59Z</time>
      </trkpt>
      <trkpt lat="41.103350" lon="-3.716533">
        <ele>1306.0</ele>
        <time>2015-09-27T12:21:01Z</time>
      </trkpt>
      <trkpt lat="41.103383" lon="-3.716383">
        <ele>1305.0</ele>
        <time>2015-09-27T12:21:03Z</time>
      </trkpt>
      <trkpt lat="41.103450" lon="-3.716250">
        <ele>1303.0</ele>
        <time>2015-09-27T12:21:05Z</time>
      </trkpt>
      <trkpt lat="41.103533" lon="-3.716150">
        <ele>1299.0</ele>
        <time>2015-09-27T12:21:08Z</time>
      </trkpt>
      <trkpt lat="41.103600" lon="-3.716217">
        <ele>1297.0</ele>
        <time>2015-09-27T12:21:10Z</time>
      </trkpt>
      <trkpt lat="41.103650" lon="-3.716333">
        <ele>1294.0</ele>
        <time>2015-09-27T12:21:12Z</time>
      </trkpt>
      <trkpt lat="41.103650" lon="-3.716483">
        <ele>1291.0</ele>
        <time>2015-09-27T12:21:14Z</time>
      </trkpt>
      <trkpt lat="41.103667" lon="-3.716617">
        <ele>1287.0</ele>
        <time>2015-09-27T12:21:16Z</time>
      </trkpt>
      <trkpt lat="41.103683" lon="-3.716767">
        <ele>1283.0</ele>
        <time>2015-09-27T12:21:18Z</time>
      </trkpt>
      <trkpt lat="41.103683" lon="-3.716883">
        <ele>1281.0</ele>
        <time>2015-09-27T12:21:20Z</time>
      </trkpt>
      <trkpt lat="41.103700" lon="-3.716983">
        <ele>1280.0</ele>
        <time>2015-09-27T12:21:22Z</time>
      </trkpt>
      <trkpt lat="41.103733" lon="-3.717083">
        <ele>1278.0</ele>
        <time>2015-09-27T12:21:24Z</time>
      </trkpt>
      <trkpt lat="41.103800" lon="-3.717050">
        <ele>1279.0</ele>
        <time>2015-09-27T12:21:26Z</time>
      </trkpt>
      <trkpt lat="41.103883" lon="-3.716867">
        <ele>1276.0</ele>
        <time>2015-09-27T12:21:28Z</time>
      </trkpt>
      <trkpt lat="41.103933" lon="-3.716650">
        <ele>1277.0</ele>
        <time>2015-09-27T12:21:30Z</time>
      </trkpt>
      <trkpt lat="41.103967" lon="-3.716467">
        <ele>1276.0</ele>
        <time>2015-09-27T12:21:32Z</time>
      </trkpt>
      <trkpt lat="41.104033" lon="-3.716367">
        <ele>1274.0</ele>
        <time>2015-09-27T12:21:34Z</time>
      </trkpt>
      <trkpt lat="41.104117" lon="-3.716417">
        <ele>1272.0</ele>
        <time>2015-09-27T12:21:36Z</time>
      </trkpt>
      <trkpt lat="41.104167" lon="-3.716583">
        <ele>1272.0</ele>
        <time>2015-09-27T12:21:38Z</time>
      </trkpt>
      <trkpt lat="41.104133" lon="-3.716750">
        <ele>1276.0</ele>
        <time>2015-09-27T12:21:40Z</time>
      </trkpt>
      <trkpt lat="41.104067" lon="-3.716900">
        <ele>1278.0</ele>
        <time>2015-09-27T12:21:42Z</time>
      </trkpt>
      <trkpt lat="41.104017" lon="-3.717083">
        <ele>1276.0</ele>
        <time>2015-09-27T12:21:44Z</time>
      </trkpt>
      <trkpt lat="41.104000" lon="-3.717283">
        <ele>1275.0</ele>
        <time>2015-09-27T12:21:46Z</time>
      </trkpt>
      <trkpt lat="41.104067" lon="-3.717367">
        <ele>1276.0</ele>
        <time>2015-09-27T12:21:48Z</time>
      </trkpt>
      <trkpt lat="41.104183" lon="-3.717250">
        <ele>1275.0</ele>
        <time>2015-09-27T12:21:50Z</time>
      </trkpt>
      <trkpt lat="41.104217" lon="-3.717000">
        <ele>1277.0</ele>
        <time>2015-09-27T12:21:52Z</time>
      </trkpt>
      <trkpt lat="41.104200" lon="-3.716783">
        <ele>1279.0</ele>
        <time>2015-09-27T12:21:54Z</time>
      </trkpt>
      <trkpt lat="41.104200" lon="-3.716567">
        <ele>1278.0</ele>
        <time>2015-09-27T12:21:56Z</time>
      </trkpt>
      <trkpt lat="41.104233" lon="-3.716350">
        <ele>1277.0</ele>
        <time>2015-09-27T12:21:58Z</time>
      </trkpt>
      <trkpt lat="41.104283" lon="-3.716300">
        <ele>1276.0</ele>
        <time>2015-09-27T12:22:00Z</time>
      </trkpt>
      <trkpt lat="41.104300" lon="-3.716517">
        <ele>1270.0</ele>
        <time>2015-09-27T12:22:02Z</time>
      </trkpt>
      <trkpt lat="41.104217" lon="-3.716733">
        <ele>1272.0</ele>
        <time>2015-09-27T12:22:04Z</time>
      </trkpt>
      <trkpt lat="41.104217" lon="-3.716850">
        <ele>1274.0</ele>
        <time>2015-09-27T12:22:06Z</time>
      </trkpt>
      <trkpt lat="41.104300" lon="-3.716867">
        <ele>1274.0</ele>
        <time>2015-09-27T12:22:08Z</time>
      </trkpt>
      <trkpt lat="41.104400" lon="-3.716750">
        <ele>1275.0</ele>
        <time>2015-09-27T12:22:10Z</time>
      </trkpt>
      <trkpt lat="41.104467" lon="-3.716533">
        <ele>1274.0</ele>
        <time>2015-09-27T12:22:12Z</time>
      </trkpt>
      <trkpt lat="41.104550" lon="-3.716367">
        <ele>1275.0</ele>
        <time>2015-09-27T12:22:14Z</time>
      </trkpt>
      <trkpt lat="41.104583" lon="-3.716217">
        <ele>1276.0</ele>
        <time>2015-09-27T12:22:16Z</time>
      </trkpt>
      <trkpt lat="41.104633" lon="-3.716150">
        <ele>1274.0</ele>
        <time>2015-09-27T12:22:18Z</time>
      </trkpt>
      <trkpt lat="41.104700" lon="-3.716233">
        <ele>1269.0</ele>
        <time>2015-09-27T12:22:20Z</time>
      </trkpt>
      <trkpt lat="41.104667" lon="-3.716433">
        <ele>1270.0</ele>
        <time>2015-09-27T12:22:22Z</time>
      </trkpt>
      <trkpt lat="41.104600" lon="-3.716583">
        <ele>1270.0</ele>
        <time>2015-09-27T12:22:24Z</time>
      </trkpt>
      <trkpt lat="41.104567" lon="-3.716767">
        <ele>1265.0</ele>
        <time>2015-09-27T12:22:26Z</time>
      </trkpt>
      <trkpt lat="41.104533" lon="-3.716983">
        <ele>1263.0</ele>
        <time>2015-09-27T12:22:28Z</time>
      </trkpt>
      <trkpt lat="41.104483" lon="-3.717133">
        <ele>1266.0</ele>
        <time>2015-09-27T12:22:30Z</time>
      </trkpt>
      <trkpt lat="41.104500" lon="-3.717233">
        <ele>1267.0</ele>
        <time>2015-09-27T12:22:32Z</time>
      </trkpt>
      <trkpt lat="41.104600" lon="-3.717300">
        <ele>1267.0</ele>
        <time>2015-09-27T12:22:34Z</time>
      </trkpt>
      <trkpt lat="41.104717" lon="-3.717183">
        <ele>1266.0</ele>
        <time>2015-09-27T12:22:36Z</time>
      </trkpt>
      <trkpt lat="41.104783" lon="-3.716933">
        <ele>1267.0</ele>
        <time>2015-09-27T12:22:38Z</time>
      </trkpt>
      <trkpt lat="41.104800" lon="-3.716717">
        <ele>1270.0</ele>
        <time>2015-09-27T12:22:40Z</time>
      </trkpt>
      <trkpt lat="41.104800" lon="-3.716483">
        <ele>1269.0</ele>
        <time>2015-09-27T12:22:42Z</time>
      </trkpt>
      <trkpt lat="41.104833" lon="-3.716283">
        <ele>1267.0</ele>
        <time>2015-09-27T12:22:44Z</time>
      </trkpt>
      <trkpt lat="41.104900" lon="-3.716217">
        <ele>1266.0</ele>
        <time>2015-09-27T12:22:46Z</time>
      </trkpt>
      <trkpt lat="41.104967" lon="-3.716317">
        <ele>1264.0</ele>
        <time>2015-09-27T12:22:48Z</time>
      </trkpt>
      <trkpt lat="41.104917" lon="-3.716533">
        <ele>1260.0</ele>
        <time>2015-09-27T12:22:50Z</time>
      </trkpt>
      <trkpt lat="41.104817" lon="-3.716733">
        <ele>1259.0</ele>
        <time>2015-09-27T12:22:52Z</time>
      </trkpt>
      <trkpt lat="41.104733" lon="-3.716917">
        <ele>1260.0</ele>
        <time>2015-09-27T12:22:54Z</time>
      </trkpt>
      <trkpt lat="41.104683" lon="-3.717083">
        <ele>1262.0</ele>
        <time>2015-09-27T12:22:56Z</time>
      </trkpt>
      <trkpt lat="41.104767" lon="-3.717133">
        <ele>1260.0</ele>
        <time>2015-09-27T12:22:58Z</time>
      </trkpt>
      <trkpt lat="41.104900" lon="-3.716983">
        <ele>1259.0</ele>
        <time>2015-09-27T12:23:00Z</time>
      </trkpt>
      <trkpt lat="41.104900" lon="-3.716700">
        <ele>1262.0</ele>
        <time>2015-09-27T12:23:02Z</time>
      </trkpt>
      <trkpt lat="41.104933" lon="-3.716550">
        <ele>1263.0</ele>
        <time>2015-09-27T12:23:04Z</time>
      </trkpt>
      <trkpt lat="41.105050" lon="-3.716583">
        <ele>1257.0</ele>
        <time>2015-09-27T12:23:06Z</time>
      </trkpt>
      <trkpt lat="41.105033" lon="-3.716783">
        <ele>1256.0</ele>
        <time>2015-09-27T12:23:08Z</time>
      </trkpt>
      <trkpt lat="41.104900" lon="-3.716983">
        <ele>1255.0</ele>
        <time>2015-09-27T12:23:10Z</time>
      </trkpt>
      <trkpt lat="41.104867" lon="-3.717133">
        <ele>1257.0</ele>
        <time>2015-09-27T12:23:12Z</time>
      </trkpt>
      <trkpt lat="41.105000" lon="-3.717133">
        <ele>1255.0</ele>
        <time>2015-09-27T12:23:14Z</time>
      </trkpt>
      <trkpt lat="41.105083" lon="-3.716933">
        <ele>1256.0</ele>
        <time>2015-09-27T12:23:16Z</time>
      </trkpt>
      <trkpt lat="41.105067" lon="-3.716683">
        <ele>1258.0</ele>
        <time>2015-09-27T12:23:18Z</time>
      </trkpt>
      <trkpt lat="41.105133" lon="-3.716533">
        <ele>1257.0</ele>
        <time>2015-09-27T12:23:20Z</time>
      </trkpt>
      <trkpt lat="41.105267" lon="-3.716617">
        <ele>1253.0</ele>
        <time>2015-09-27T12:23:22Z</time>
      </trkpt>
      <trkpt lat="41.105200" lon="-3.716833">
        <ele>1253.0</ele>
        <time>2015-09-27T12:23:24Z</time>
      </trkpt>
      <trkpt lat="41.105050" lon="-3.716967">
        <ele>1258.0</ele>
        <time>2015-09-27T12:23:26Z</time>
      </trkpt>
      <trkpt lat="41.105000" lon="-3.717083">
        <ele>1258.0</ele>
        <time>2015-09-27T12:23:28Z</time>
      </trkpt>
      <trkpt lat="41.105000" lon="-3.717217">
        <ele>1259.0</ele>
        <time>2015-09-27T12:23:30Z</time>
      </trkpt>
      <trkpt lat="41.104983" lon="-3.717333">
        <ele>1262.0</ele>
        <time>2015-09-27T12:23:32Z</time>
      </trkpt>
      <trkpt lat="41.105050" lon="-3.717433">
        <ele>1263.0</ele>
        <time>2015-09-27T12:23:34Z</time>
      </trkpt>
      <trkpt lat="41.105183" lon="-3.717500">
        <ele>1263.0</ele>
        <time>2015-09-27T12:23:36Z</time>
      </trkpt>
      <trkpt lat="41.105283" lon="-3.717400">
        <ele>1266.0</ele>
        <time>2015-09-27T12:23:38Z</time>
      </trkpt>
      <trkpt lat="41.105367" lon="-3.717200">
        <ele>1263.0</ele>
        <time>2015-09-27T12:23:40Z</time>
      </trkpt>
      <trkpt lat="41.105450" lon="-3.716900">
        <ele>1260.0</ele>
        <time>2015-09-27T12:23:42Z</time>
      </trkpt>
      <trkpt lat="41.105483" lon="-3.716600">
        <ele>1263.0</ele>
        <time>2015-09-27T12:23:44Z</time>
      </trkpt>
      <trkpt lat="41.105500" lon="-3.716367">
        <ele>1267.0</ele>
        <time>2015-09-27T12:23:46Z</time>
      </trkpt>
      <trkpt lat="41.105533" lon="-3.716183">
        <ele>1268.0</ele>
        <time>2015-09-27T12:23:48Z</time>
      </trkpt>
      <trkpt lat="41.105600" lon="-3.716017">
        <ele>1266.0</ele>
        <time>2015-09-27T12:23:50Z</time>
      </trkpt>
      <trkpt lat="41.105683" lon="-3.715833">
        <ele>1265.0</ele>
        <time>2015-09-27T12:23:52Z</time>
      </trkpt>
      <trkpt lat="41.105750" lon="-3.715717">
        <ele>1262.0</ele>
        <time>2015-09-27T12:23:54Z</time>
      </trkpt>
      <trkpt lat="41.105833" lon="-3.715600">
        <ele>1257.0</ele>
        <time>2015-09-27T12:23:56Z</time>
      </trkpt>
      <trkpt lat="41.105900" lon="-3.715567">
        <ele>1252.0</ele>
        <time>2015-09-27T12:23:58Z</time>
      </trkpt>
      <trkpt lat="41.105967" lon="-3.715650">
        <ele>1245.0</ele>
        <time>2015-09-27T12:24:00Z</time>
      </trkpt>
      <trkpt lat="41.105983" lon="-3.715783">
        <ele>1241.0</ele>
        <time>2015-09-27T12:24:02Z</time>
      </trkpt>
      <trkpt lat="41.105917" lon="-3.715933">
        <ele>1234.0</ele>
        <time>2015-09-27T12:24:04Z</time>
      </trkpt>
      <trkpt lat="41.105867" lon="-3.716100">
        <ele>1229.0</ele>
        <time>2015-09-27T12:24:06Z</time>
      </trkpt>
      <trkpt lat="41.105817" lon="-3.716283">
        <ele>1226.0</ele>
        <time>2015-09-27T12:24:08Z</time>
      </trkpt>
      <trkpt lat="41.105783" lon="-3.716450">
        <ele>1225.0</ele>
        <time>2015-09-27T12:24:10Z</time>
      </trkpt>
      <trkpt lat="41.105750" lon="-3.716633">
        <ele>1223.0</ele>
        <time>2015-09-27T12:24:12Z</time>
      </trkpt>
      <trkpt lat="41.105767" lon="-3.716800">
        <ele>1223.0</ele>
        <time>2015-09-27T12:24:14Z</time>
      </trkpt>
      <trkpt lat="41.105883" lon="-3.716867">
        <ele>1223.0</ele>
        <time>2015-09-27T12:24:16Z</time>
      </trkpt>
      <trkpt lat="41.106033" lon="-3.716650">
        <ele>1220.0</ele>
        <time>2015-09-27T12:24:18Z</time>
      </trkpt>
      <trkpt lat="41.106067" lon="-3.716417">
        <ele>1227.0</ele>
        <time>2015-09-27T12:24:20Z</time>
      </trkpt>
      <trkpt lat="41.106083" lon="-3.716317">
        <ele>1228.0</ele>
        <time>2015-09-27T12:24:22Z</time>
      </trkpt>
      <trkpt lat="41.106133" lon="-3.716217">
        <ele>1223.0</ele>
        <time>2015-09-27T12:24:24Z</time>
      </trkpt>
      <trkpt lat="41.106233" lon="-3.716250">
        <ele>1218.0</ele>
        <time>2015-09-27T12:24:26Z</time>
      </trkpt>
      <trkpt lat="41.106267" lon="-3.716417">
        <ele>1218.0</ele>
        <time>2015-09-27T12:24:28Z</time>
      </trkpt>
      <trkpt lat="41.106200" lon="-3.716550">
        <ele>1220.0</ele>
        <time>2015-09-27T12:24:30Z</time>
      </trkpt>
      <trkpt lat="41.106167" lon="-3.716650">
        <ele>1219.0</ele>
        <time>2015-09-27T12:24:32Z</time>
      </trkpt>
      <trkpt lat="41.106167" lon="-3.716733">
        <ele>1217.0</ele>
        <time>2015-09-27T12:24:34Z</time>
      </trkpt>
      <trkpt lat="41.106217" lon="-3.716817">
        <ele>1214.0</ele>
        <time>2015-09-27T12:24:36Z</time>
      </trkpt>
      <trkpt lat="41.106317" lon="-3.716850">
        <ele>1212.0</ele>
        <time>2015-09-27T12:24:38Z</time>
      </trkpt>
      <trkpt lat="41.106417" lon="-3.716833">
        <ele>1211.0</ele>
        <time>2015-09-27T12:24:40Z</time>
      </trkpt>
      <trkpt lat="41.106467" lon="-3.716867">
        <ele>1213.0</ele>
        <time>2015-09-27T12:24:42Z</time>
      </trkpt>
      <trkpt lat="41.106500" lon="-3.716850">
        <ele>1211.0</ele>
        <time>2015-09-27T12:24:44Z</time>
      </trkpt>
      <trkpt lat="41.106533" lon="-3.716883">
        <ele>1209.0</ele>
        <time>2015-09-27T12:24:46Z</time>
      </trkpt>
      <trkpt lat="41.106550" lon="-3.716950">
        <ele>1208.0</ele>
        <time>2015-09-27T12:24:48Z</time>
      </trkpt>
      <trkpt lat="41.106600" lon="-3.717000">
        <ele>1205.0</ele>
        <time>2015-09-27T12:24:50Z</time>
      </trkpt>
      <trkpt lat="41.106667" lon="-3.717083">
        <ele>1202.0</ele>
        <time>2015-09-27T12:24:52Z</time>
      </trkpt>
      <trkpt lat="41.106750" lon="-3.717117">
        <ele>1200.0</ele>
        <time>2015-09-27T12:24:54Z</time>
      </trkpt>
      <trkpt lat="41.106883" lon="-3.717117">
        <ele>1199.0</ele>
        <time>2015-09-27T12:24:56Z</time>
      </trkpt>
      <trkpt lat="41.106950" lon="-3.717167">
        <ele>1198.0</ele>
        <time>2015-09-27T12:24:58Z</time>
      </trkpt>
      <trkpt lat="41.106983" lon="-3.717250">
        <ele>1197.0</ele>
        <time>2015-09-27T12:25:00Z</time>
      </trkpt>
      <trkpt lat="41.107000" lon="-3.717300">
        <ele>1198.0</ele>
        <time>2015-09-27T12:25:02Z</time>
      </trkpt>
      <trkpt lat="41.107000" lon="-3.717350">
        <ele>1198.0</ele>
        <time>2015-09-27T12:25:04Z</time>
      </trkpt>
      <trkpt lat="41.107050" lon="-3.717350">
        <ele>1195.0</ele>
        <time>2015-09-27T12:25:06Z</time>
      </trkpt>
      <trkpt lat="41.107100" lon="-3.717383">
        <ele>1191.0</ele>
        <time>2015-09-27T12:25:08Z</time>
      </trkpt>
      <trkpt lat="41.107150" lon="-3.717450">
        <ele>1188.0</ele>
        <time>2015-09-27T12:25:10Z</time>
      </trkpt>
      <trkpt lat="41.107200" lon="-3.717500">
        <ele>1185.0</ele>
        <time>2015-09-27T12:25:12Z</time>
      </trkpt>
      <trkpt lat="41.107233" lon="-3.717533">
        <ele>1183.0</ele>
        <time>2015-09-27T12:25:14Z</time>
      </trkpt>
      <trkpt lat="41.107233" lon="-3.717567">
        <ele>1181.0</ele>
        <time>2015-09-27T12:25:16Z</time>
      </trkpt>
      <trkpt lat="41.107233" lon="-3.717567">
        <ele>1180.0</ele>
        <time>2015-09-27T12:25:18Z</time>
      </trkpt>
      <trkpt lat="41.107217" lon="-3.717533">
        <ele>1180.0</ele>
        <time>2015-09-27T12:25:20Z</time>
      </trkpt>
      <trkpt lat="41.107217" lon="-3.717533">
        <ele>1180.0</ele>
        <time>2015-09-27T12:25:22Z</time>
      </trkpt>
      <trkpt lat="41.107200" lon="-3.717533">
        <ele>1180.0</ele>
        <time>2015-09-27T12:25:24Z</time>
      </trkpt>
      <trkpt lat="41.107200" lon="-3.717533">
        <ele>1180.0</ele>
        <time>2015-09-27T12:25:26Z</time>
      </trkpt>
      <trkpt lat="41.107217" lon="-3.717533">
        <ele>1180.0</ele>
        <time>2015-09-27T12:25:28Z</time>
      </trkpt>
      <trkpt lat="41.107200" lon="-3.717533">
        <ele>1180.0</ele>
        <time>2015-09-27T12:25:30Z</time>
      </trkpt>
      <trkpt lat="41.107200" lon="-3.717533">
        <ele>1179.0</ele>
        <time>2015-09-27T12:25:32Z</time>
      </trkpt>
      <trkpt lat="41.107200" lon="-3.717533">
        <ele>1179.0</ele>
        <time>2015-09-27T12:25:34Z</time>
      </trkpt>
      <trkpt lat="41.107200" lon="-3.717533">
        <ele>1178.0</ele>
        <time>2015-09-27T12:25:36Z</time>
      </trkpt>
      <trkpt lat="41.107200" lon="-3.717517">
        <ele>1178.0</ele>
        <time>2015-09-27T12:25:38Z</time>
      </trkpt>
      <trkpt lat="41.107200" lon="-3.717517">
        <ele>1177.0</ele>
        <time>2015-09-27T12:25:40Z</time>
      </trkpt>
      <trkpt lat="41.107200" lon="-3.717533">
        <ele>1177.0</ele>
        <time>2015-09-27T12:25:42Z</time>
      </trkpt>
      <trkpt lat="41.107200" lon="-3.717517">
        <ele>1175.0</ele>
        <time>2015-09-27T12:25:44Z</time>
      </trkpt>
      <trkpt lat="41.107200" lon="-3.717517">
        <ele>1175.0</ele>
        <time>2015-09-27T12:25:46Z</time>
      </trkpt>
      <trkpt lat="41.107200" lon="-3.717517">
        <ele>1175.0</ele>
        <time>2015-09-27T12:25:48Z</time>
      </trkpt>
      <trkpt lat="41.107200" lon="-3.717517">
        <ele>1176.0</ele>
        <time>2015-09-27T12:25:50Z</time>
      </trkpt>
      <trkpt lat="41.107200" lon="-3.717517">
        <ele>1176.0</ele>
        <time>2015-09-27T12:25:52Z</time>
      </trkpt>
      <trkpt lat="41.107200" lon="-3.717517">
        <ele>1177.0</ele>
        <time>2015-09-27T12:25:54Z</time>
      </trkpt>
      <trkpt lat="41.107200" lon="-3.717517">
        <ele>1177.0</ele>
        <time>2015-09-27T12:25:56Z</time>
      </trkpt>
      <trkpt lat="41.107200" lon="-3.717517">
        <ele>1177.0</ele>
        <time>2015-09-27T12:25:58Z</time>
      </trkpt>
      <trkpt lat="41.107200" lon="-3.717517">
        <ele>1177.0</ele>
        <time>2015-09-27T12:26:00Z</time>
      </trkpt>
      <trkpt lat="41.107200" lon="-3.717517">
        <ele>1176.0</ele>
        <time>2015-09-27T12:26:02Z</time>
      </trkpt>
      <trkpt lat="41.107200" lon="-3.717500">
        <ele>1176.0</ele>
        <time>2015-09-27T12:26:04Z</time>
      </trkpt>
      <trkpt lat="41.107200" lon="-3.717500">
        <ele>1176.0</ele>
        <time>2015-09-27T12:26:06Z</time>
      </trkpt>
      <trkpt lat="41.107200" lon="-3.717517">
        <ele>1176.0</ele>
        <time>2015-09-27T12:26:08Z</time>
      </trkpt>
      <trkpt lat="41.107200" lon="-3.717517">
        <ele>1176.0</ele>
        <time>2015-09-27T12:26:10Z</time>
      </trkpt>
      <trkpt lat="41.107200" lon="-3.717517">
        <ele>1175.0</ele>
        <time>2015-09-27T12:26:12Z</time>
      </trkpt>
      <trkpt lat="41.107200" lon="-3.717517">
        <ele>1175.0</ele>
        <time>2015-09-27T12:26:14Z</time>
      </trkpt>
      <trkpt lat="41.107200" lon="-3.717517">
        <ele>1175.0</ele>
        <time>2015-09-27T12:26:16Z</time>
      </trkpt>
      <trkpt lat="41.107200" lon="-3.717500">
        <ele>1175.0</ele>
        <time>2015-09-27T12:26:18Z</time>
      </trkpt>
      <trkpt lat="41.107200" lon="-3.717500">
        <ele>1175.0</ele>
        <time>2015-09-27T12:26:20Z</time>
      </trkpt>
      <trkpt lat="41.107200" lon="-3.717500">
        <ele>1175.0</ele>
        <time>2015-09-27T12:26:22Z</time>
      </trkpt>
      <trkpt lat="41.107200" lon="-3.717500">
        <ele>1175.0</ele>
        <time>2015-09-27T12:26:24Z</time>
      </trkpt>
    </trkseg>
  </trk>
</gpx>
